[[{"header":{"parameterUnit":"m.s-1","parameterCategory":1,"la1":30.6,"la2":29.2853,"lo1":-89.7004,"lo2":-87.6739,"dy":0.0162,"dx":0.0183,"nx":112,"ny":82,"refTime":"2023-10-21T06:00:00:Z","depth":0,"parameterNumber":2,"parameterNumberName":"U-component_of_WINDS"},"data":[0.0,0.0,0.0,0.0,0.0,0.0,0.0,0.0,0.0,0.0,0.0,0.0,0.0,0.0,0.0,0.0,0.0,0.0,0.0,0.0,0.0,0.0,0.0,0.0,0.0,0.0,0.0,0.0,0.0,0.0,0.0,0.0,0.0,0.0,0.0,0.0,0.0,0.0,0.0,0.0,0.0,0.0,0.0,0.0,0.0,0.0,0.0,0.0,0.0,0.0,0.0,0.0,0.0,0.0,0.0,0.0,0.0,0.0,0.0,0.0,0.0,0.0,0.0,0.0,0.0,0.0,0.0,0.0,0.0,0.0,0.0,0.0,0.0,0.0,0.0,0.0,0.0,0.0,0.0,0.0,0.0,0.0,0.0,0.0,0.0,0.0,0.0,0.0,0.0,0.0,0.0,-0.6801,-0.5061,-0.3342,-0.197,-0.1714,-0.3124,-0.665,0.0,0.0,0.0,0.0,0.0,0.0,0.0,0.0,0.0,0.0,0.0,0.0,0.0,0.0,0.0,0.0,0.0,0.0,0.0,0.0,0.0,0.0,0.0,0.0,0.0,0.0,0.0,0.0,0.0,0.0,0.0,0.0,0.0,0.0,0.0,0.0,0.0,0.0,0.0,0.0,0.0,0.0,0.0,0.0,0.0,0.0,0.0,0.0,0.0,0.0,0.0,0.0,0.0,0.0,0.0,0.0,0.0,0.0,0.0,0.0,0.0,0.0,0.0,0.0,0.0,0.0,0.0,0.0,0.0,0.0,0.0,0.0,0.0,0.0,0.0,0.0,0.0,0.0,0.0,0.0,0.0,0.0,0.0,0.0,0.0,0.0,0.0,0.0,0.0,0.0,0.0,0.0,0.0,0.0,0.0,0.0,0.0,0.0,0.0,0.0,0.0,0.0,0.0,0.0,-0.811,-0.4037,-0.3499,-0.2793,-0.1349,-0.1191,-0.2805,-0.6571,0.0,0.0,0.0,0.0,0.0,0.0,0.0,0.0,0.0,0.0,0.0,0.0,0.0,0.0,0.0,0.0,0.0,0.0,0.0,0.0,0.0,0.0,0.0,0.0,0.0,0.0,0.0,0.0,0.0,0.0,0.0,0.0,0.0,0.0,0.0,0.0,0.0,0.0,0.0,0.0,0.0,0.0,0.0,0.0,0.0,0.0,0.0,0.0,0.0,0.0,0.0,0.0,0.0,0.0,0.0,0.0,0.0,0.0,0.0,0.0,0.0,0.0,0.0,0.0,0.0,0.0,0.0,0.0,0.0,0.0,0.0,0.0,0.0,0.0,0.0,0.0,0.0,0.0,0.0,0.0,0.0,0.0,0.0,0.0,0.0,0.0,0.0,0.0,0.0,0.0,0.0,0.0,0.0,0.0,0.0,0.0,0.0,0.0,0.0,0.0,0.0,0.0,0.0,-0.9122,-0.6765,-0.3102,-0.2793,-0.2418,-0.1316,-0.1165,-0.2861,-0.7012,-0.6843,0.0,0.0,0.0,0.0,0.0,0.0,0.0,0.0,0.0,0.0,0.0,0.0,0.0,0.0,0.0,0.0,0.0,0.0,0.0,0.0,0.0,0.0,0.0,0.0,0.0,0.0,0.0,0.0,0.0,0.0,0.0,0.0,0.0,0.0,0.0,0.0,0.0,0.0,0.0,0.0,0.0,0.0,0.0,0.0,0.0,0.0,0.0,0.0,0.0,0.0,0.0,0.0,0.0,0.0,0.0,0.0,0.0,0.0,0.0,0.0,0.0,0.0,0.0,0.0,0.0,0.0,0.0,0.0,0.0,0.0,0.0,0.0,0.0,0.0,0.0,0.0,0.0,0.0,0.0,0.0,0.0,0.0,0.0,0.0,0.0,0.0,0.0,0.0,0.0,0.0,0.0,0.0,0.0,0.0,0.0,0.0,0.0,0.0,0.0,0.0,0.0,0.0,-0.7249,-0.4767,-0.2745,-0.2499,-0.2164,-0.1358,-0.1696,-0.3602,-0.7494,-0.7637,0.0,0.0,0.0,0.0,0.0,0.0,0.0,0.0,0.0,0.0,0.0,0.0,0.0,0.0,0.0,0.0,0.0,0.0,0.0,0.0,0.0,0.0,0.0,0.0,0.0,0.0,0.0,0.0,0.0,0.0,0.0,0.0,0.0,0.0,0.0,0.0,0.0,0.0,0.0,0.0,0.0,0.0,0.0,0.0,0.0,0.0,0.0,0.0,0.0,0.0,0.0,0.0,0.0,0.0,0.0,0.0,0.0,0.0,0.0,0.0,0.0,0.0,0.0,0.0,0.0,0.0,0.0,0.0,0.0,0.0,0.0,0.0,0.0,0.0,0.0,0.0,0.0,0.0,0.0,0.0,0.0,0.0,0.0,0.0,0.0,0.0,0.0,0.0,0.0,0.0,0.0,0.0,0.0,0.0,0.0,0.0,0.0,0.0,0.0,0.0,0.0,0.0,-0.5523,-0.2661,-0.2535,-0.2497,-0.2157,-0.135,-0.329,-0.5479,-0.7648,-0.9497,0.0,0.0,0.0,0.0,0.0,0.0,0.0,0.0,0.0,0.0,0.0,0.0,0.0,0.0,0.0,0.0,0.0,0.0,0.0,0.0,0.0,0.0,0.0,0.0,0.0,0.0,0.0,0.0,0.0,0.0,0.0,0.0,0.0,0.0,0.0,0.0,0.0,0.0,0.0,0.0,0.0,0.0,0.0,0.0,0.0,0.0,0.0,0.0,0.0,0.0,0.0,0.0,0.0,0.0,0.0,0.0,0.0,0.0,0.0,0.0,0.0,0.0,0.0,0.0,0.0,0.0,0.0,0.0,0.0,0.0,0.0,0.0,0.0,0.0,0.0,0.0,0.0,0.0,0.0,0.0,0.0,0.0,0.0,0.0,0.0,0.0,0.0,0.0,0.0,0.0,0.0,0.0,0.0,0.0,0.0,0.0,0.0,0.0,0.0,0.0,0.0,0.0,-0.6132,-0.3933,0.0,-0.217,-0.1968,-0.1429,-0.2037,-0.3939,-0.7457,0.0,0.0,0.0,0.0,0.0,0.0,0.0,0.0,0.0,0.0,0.0,0.0,0.0,0.0,0.0,0.0,0.0,0.0,0.0,0.0,0.0,0.0,0.0,0.0,0.0,0.0,0.0,0.0,0.0,0.0,0.0,0.0,0.0,0.0,0.0,0.0,0.0,0.0,0.0,0.0,0.0,0.0,0.0,0.0,0.0,0.0,0.0,0.0,0.0,0.0,0.0,0.0,0.0,0.0,0.0,0.0,0.0,0.0,0.0,0.0,0.0,0.0,0.0,0.0,0.0,0.0,0.0,0.0,0.0,0.0,0.0,0.0,0.0,0.0,0.0,0.0,0.0,0.0,0.0,0.0,0.0,0.0,0.0,0.0,0.0,0.0,0.0,0.0,0.0,0.0,0.0,0.0,0.0,0.0,0.0,0.0,0.0,0.0,0.0,0.0,0.0,0.0,-0.8144,-0.5973,-0.3954,0.0,-0.2046,-0.1896,-0.1635,-0.1944,-0.3771,-0.7508,0.0,0.0,0.0,0.0,0.0,0.0,0.0,0.0,0.0,0.0,0.0,0.0,0.0,0.0,0.0,0.0,0.0,0.0,0.0,0.0,0.0,0.0,0.0,0.0,0.0,0.0,0.0,0.0,0.0,0.0,0.0,0.0,0.0,0.0,0.0,0.0,0.0,0.0,0.0,0.0,0.0,0.0,0.0,0.0,0.0,0.0,0.0,0.0,0.0,0.0,0.0,0.0,0.0,0.0,0.0,0.0,0.0,0.0,0.0,0.0,0.0,0.0,0.0,0.0,0.0,0.0,0.0,0.0,0.0,0.0,0.0,0.0,0.0,0.0,0.0,0.0,0.0,0.0,0.0,0.0,0.0,0.0,0.0,0.0,0.0,0.0,0.0,0.0,0.0,0.0,0.0,0.0,0.0,0.0,0.0,0.0,0.0,0.0,0.0,0.0,0.0,0.0,-0.8291,-0.4612,-0.2052,-0.2101,-0.2109,-0.2071,-0.2023,-0.3631,-0.5627,0.0,0.0,0.0,0.0,0.0,0.0,0.0,0.0,0.0,0.0,0.0,0.0,0.0,0.0,0.0,0.0,0.0,0.0,0.0,0.0,0.0,0.0,0.0,0.0,0.0,0.0,0.0,0.0,0.0,0.0,0.0,0.0,0.0,0.0,0.0,0.0,0.0,0.0,0.0,0.0,0.0,0.0,0.0,0.0,0.0,0.0,0.0,0.0,0.0,0.0,0.0,0.0,0.0,0.0,0.0,0.0,0.0,0.0,0.0,0.0,0.0,0.0,0.0,0.0,0.0,0.0,0.0,0.0,0.0,0.0,0.0,0.0,0.0,0.0,0.0,0.0,0.0,0.0,0.0,0.0,0.0,0.0,0.0,0.0,0.0,0.0,0.0,0.0,0.0,0.0,0.0,0.0,0.0,0.0,0.0,0.0,0.0,0.0,0.0,0.0,0.0,0.0,0.0,-0.7813,-0.4814,-0.265,-0.2541,-0.244,-0.2241,-0.1837,-0.2444,-0.4167,-0.7252,0.0,0.0,0.0,0.0,0.0,0.0,0.0,0.0,0.0,0.0,0.0,0.0,0.0,0.0,0.0,0.0,0.0,0.0,0.0,0.0,0.0,0.0,0.0,0.0,0.0,0.0,0.0,0.0,0.0,0.0,0.0,0.0,0.0,0.0,0.0,0.0,0.0,0.0,0.0,0.0,0.0,0.0,0.0,0.0,0.0,0.0,0.0,0.0,0.0,0.0,0.0,0.0,0.0,0.0,0.0,0.0,0.0,0.0,0.0,0.0,0.0,0.0,0.0,0.0,0.0,0.0,0.0,0.0,0.0,0.0,0.0,0.0,0.0,0.0,0.0,0.0,0.0,0.0,0.0,0.0,0.0,0.0,0.0,0.0,0.0,0.0,0.0,0.0,0.0,0.0,0.0,0.0,0.0,0.0,0.0,0.0,0.0,0.0,0.0,0.0,0.0,0.0,-0.7476,-0.4739,-0.2772,-0.2747,-0.2656,-0.2436,-0.1992,-0.2156,-0.3361,-0.5853,0.0,0.0,0.0,0.0,0.0,0.0,0.0,0.0,0.0,0.0,0.0,0.0,0.0,0.0,0.0,0.0,0.0,0.0,0.0,0.0,0.0,0.0,0.0,0.0,0.0,0.0,0.0,0.0,0.0,0.0,0.0,0.0,0.0,0.0,0.0,0.0,0.0,0.0,0.0,0.0,0.0,0.0,0.0,0.0,0.0,0.0,0.0,0.0,0.0,0.0,0.0,0.0,0.0,0.0,0.0,0.0,0.0,0.0,0.0,0.0,0.0,0.0,0.0,0.0,0.0,0.0,0.0,0.0,0.0,0.0,0.0,0.0,0.0,0.0,0.0,0.0,0.0,0.0,0.0,0.0,0.0,0.0,0.0,0.0,0.0,0.0,0.0,0.0,0.0,0.0,0.0,0.0,0.0,0.0,0.0,0.0,0.0,0.0,0.0,0.0,0.0,0.0,-0.7318,-0.4497,-0.2625,-0.2847,-0.2814,-0.2661,-0.2307,-0.2479,-0.3084,-0.4199,0.0,0.0,0.0,0.0,0.0,0.0,0.0,0.0,0.0,0.0,0.0,0.0,0.0,0.0,0.0,0.0,0.0,0.0,0.0,0.0,0.0,0.0,0.0,0.0,0.0,0.0,0.0,0.0,0.0,0.0,0.0,0.0,0.0,0.0,0.0,0.0,0.0,0.0,0.0,0.0,0.0,0.0,0.0,0.0,0.0,0.0,0.0,0.0,0.0,0.0,0.0,0.0,0.0,0.0,0.0,0.0,0.0,0.0,0.0,0.0,-1.6839,0.0,0.0,0.0,0.0,0.0,0.0,0.0,0.0,0.0,0.0,0.0,0.0,0.0,0.0,0.0,0.0,0.0,0.0,0.0,0.0,0.0,0.0,0.0,0.0,0.0,0.0,0.0,0.0,0.0,0.0,0.0,0.0,0.0,0.0,0.0,0.0,0.0,0.0,0.0,0.0,0.0,-0.7877,-0.4933,-0.2951,-0.3303,-0.3058,-0.2669,-0.2094,-0.2385,-0.3198,-0.4594,-0.5526,0.0,0.0,0.0,0.0,0.0,0.0,0.0,0.0,0.0,0.0,0.0,0.0,0.0,0.0,0.0,0.0,0.0,0.0,0.0,0.0,0.0,0.0,0.0,0.0,0.0,0.0,0.0,0.0,0.0,0.0,0.0,0.0,0.0,0.0,0.0,0.0,0.0,0.0,0.0,0.0,0.0,0.0,0.0,0.0,0.0,0.0,0.0,0.0,0.0,0.0,0.0,0.0,0.0,0.0,0.0,0.0,0.0,0.0,0.0,0.0,-1.6839,0.0,0.0,0.0,0.0,0.0,0.0,0.0,0.0,0.0,0.0,0.0,0.0,0.0,0.0,0.0,0.0,0.0,0.0,0.0,0.0,0.0,0.0,0.0,0.0,0.0,0.0,0.0,0.0,0.0,0.0,0.0,0.0,0.0,0.0,0.0,0.0,0.0,0.0,0.0,0.0,-0.6621,-0.4424,-0.2988,-0.318,-0.289,-0.2497,-0.2071,-0.2311,-0.2538,-0.2759,-0.4567,0.0,0.0,0.0,0.0,0.0,0.0,0.0,0.0,0.0,0.0,0.0,0.0,0.0,0.0,0.0,0.0,0.0,0.0,0.0,0.0,0.0,0.0,0.0,0.0,0.0,0.0,0.0,0.0,0.0,0.0,0.0,0.0,0.0,0.0,0.0,0.0,0.0,0.0,0.0,0.0,0.0,0.0,0.0,0.0,0.0,0.0,0.0,0.0,0.0,0.0,0.0,0.0,0.0,-2.5044,-2.5522,-2.5283,-2.524,-2.4938,-2.4216,-1.9895,-1.8266,-1.8412,0.0,0.0,0.0,0.0,0.0,0.0,0.0,0.0,0.0,0.0,0.0,0.0,0.0,0.0,0.0,0.0,0.0,0.0,0.0,0.0,0.0,0.0,0.0,0.0,0.0,-0.7006,-0.6936,0.0,0.0,0.0,0.0,0.0,0.0,0.0,0.0,0.0,0.0,0.0,0.0,-0.5283,-0.3871,-0.3014,-0.3025,-0.2719,-0.243,-0.2102,-0.2163,-0.1796,-0.0871,-0.3334,-0.4541,0.0,0.0,0.0,0.0,0.0,0.0,0.0,0.0,0.0,0.0,0.0,0.0,0.0,0.0,0.0,0.0,0.0,0.0,0.0,0.0,0.0,0.0,0.0,0.0,0.0,0.0,0.0,0.0,0.0,0.0,0.0,0.0,-1.6632,-1.7014,0.0,0.0,0.0,0.0,0.0,0.0,0.0,0.0,0.0,0.0,0.0,0.0,0.0,-2.3166,-2.4734,-2.7245,-2.7775,-2.6437,-2.9565,-3.0274,-2.8825,-2.8886,-2.9258,-2.9663,-2.605,0.0,-2.1134,-2.0038,0.0,0.0,0.0,0.0,0.0,0.0,0.0,0.0,0.0,0.0,0.0,0.0,0.0,0.0,0.0,0.0,0.0,0.0,0.0,0.0,0.0,0.0,-0.7487,-0.7397,-0.713,-0.6755,0.0,-0.7014,-0.779,-0.8162,-0.8177,0.0,0.0,0.0,0.0,0.0,0.0,0.0,-0.5933,-0.4482,-0.3435,-0.3485,-0.3263,-0.2801,-0.206,-0.1884,-0.1732,-0.1637,-0.1947,-0.2541,-0.3526,-0.3969,0.0,0.0,0.0,0.0,0.0,0.0,0.0,0.0,0.0,0.0,0.0,0.0,0.0,0.0,0.0,0.0,0.0,0.0,0.0,0.0,0.0,0.0,0.0,0.0,0.0,0.0,0.0,0.0,0.0,-1.6386,-1.8055,-1.6824,-1.8232,-1.868,0.0,0.0,0.0,0.0,0.0,0.0,0.0,0.0,0.0,-2.5338,-2.576,-2.6801,-2.851,-3.0137,-3.0823,-3.0574,-3.2518,-3.3088,-3.2418,-3.2402,-3.2109,-3.1499,-2.9954,-2.783,-2.5195,-2.2422,-2.0156,-1.8337,0.0,0.0,0.0,0.0,-1.631,-1.6586,-1.652,-1.6999,0.0,-1.6048,0.0,0.0,0.0,0.0,0.0,0.0,0.0,0.0,0.0,0.0,-0.7701,-0.7697,-0.7123,-0.6602,-0.657,-0.6566,-0.6772,0.0,-0.7427,-0.7602,-0.8434,0.0,0.0,0.0,0.0,-0.5755,-0.5347,-0.4389,-0.3703,-0.3677,-0.3071,-0.2507,-0.2109,-0.1557,-0.1274,-0.1294,-0.1557,-0.1971,-0.253,-0.266,-0.2959,0.0,0.0,0.0,0.0,0.0,0.0,0.0,0.0,0.0,0.0,0.0,0.0,0.0,0.0,0.0,0.0,0.0,0.0,0.0,0.0,0.0,0.0,0.0,0.0,0.0,0.0,0.0,0.0,-1.751,-1.942,-1.7023,-1.9604,-2.0674,0.0,0.0,0.0,0.0,0.0,0.0,-2.4243,-2.5367,-2.7157,-2.9757,-3.0059,-3.0901,-3.2421,-3.3083,-3.3614,-3.4053,-3.4615,-3.4927,-3.4997,-3.4746,-3.3939,-3.2719,-3.2292,-3.0907,-2.8625,-2.4491,-2.1542,-1.9606,-1.9489,-1.8659,-1.7618,-1.8216,-1.8267,-1.8033,-1.8094,-1.8452,-1.8661,-1.742,0.0,-1.5683,-1.311,0.0,0.0,0.0,0.0,-0.8885,-0.9227,-0.8838,-0.8328,-0.8317,-0.7654,-0.7064,-0.7173,-0.6609,-0.6275,0.0,-0.6808,-0.682,-0.7675,0.0,0.0,0.0,0.0,-0.5697,-0.4964,-0.4476,-0.4095,-0.3881,-0.3073,-0.2459,-0.2185,-0.1495,-0.1001,-0.0894,-0.1269,-0.1474,-0.1469,-0.1558,-0.2069,-0.3092,0.0,0.0,0.0,0.0,0.0,0.0,0.0,0.0,0.0,0.0,0.0,0.0,0.0,0.0,0.0,0.0,0.0,0.0,0.0,0.0,0.0,0.0,0.0,0.0,0.0,0.0,0.0,0.0,0.0,-1.8753,-2.3037,0.0,0.0,0.0,0.0,-2.2694,-2.5027,-2.6903,-2.7896,-2.9557,-3.1637,-3.4194,-3.5081,-3.5938,-3.6863,-3.6921,-3.6551,-3.5777,-3.5876,-3.5896,-3.5801,-3.504,-3.4605,-3.4393,-3.2783,-3.1565,-3.0406,-2.6924,-2.4902,-2.3749,-2.1282,-2.0239,-2.012,-2.0167,-1.9653,-1.9035,-1.9796,-1.9515,-1.865,-1.769,-1.5654,-1.3344,-1.2038,-1.1252,0.0,0.0,-1.0261,-0.996,-1.0161,-0.996,-0.9648,-0.9481,-0.9023,-0.8511,-0.7884,-0.728,-0.683,0.0,-0.6026,-0.5808,-0.7106,0.0,-0.5798,-0.6839,-0.6008,-0.5262,-0.5354,-0.5126,-0.4753,-0.4311,-0.3647,-0.3032,-0.2427,-0.1823,-0.1304,-0.0927,-0.0738,-0.0637,-0.0566,-0.1235,-0.1657,-0.1803,-0.3462,0.0,0.0,0.0,0.0,0.0,0.0,0.0,0.0,0.0,0.0,0.0,0.0,0.0,0.0,0.0,0.0,0.0,0.0,0.0,0.0,0.0,0.0,0.0,0.0,0.0,0.0,0.0,0.0,-2.4295,-2.745,0.0,-2.5263,-2.588,-2.6384,-2.6138,-2.8664,-3.0837,-3.223,-3.3965,-3.5846,-3.7873,-3.7688,-3.7713,-3.802,-3.7488,-3.6777,-3.5965,-3.5935,-3.5642,-3.5128,-3.4788,-3.4038,-3.2937,-3.1772,-3.0763,-2.9772,-2.7443,-2.598,-2.5055,-2.3513,-2.2211,-2.1191,-2.1106,-2.0523,-1.9799,-1.9991,-1.985,-1.9361,-1.8126,-1.5682,-1.3266,-1.3605,-1.2414,-1.1017,-1.1369,-1.1389,-1.1189,-1.0788,-1.052,-1.0316,-1.0134,-0.9634,-0.9089,-0.8757,-0.807,-0.7416,-0.7265,-0.6194,-0.5424,-0.5881,-0.5588,-0.5529,-0.6173,-0.5809,-0.5531,-0.5775,-0.5493,-0.5129,-0.4743,-0.3846,-0.3129,-0.2753,-0.2001,-0.1441,-0.1176,-0.1052,-0.0916,-0.0752,-0.1336,-0.1683,-0.1712,-0.2892,-0.3867,0.0,0.0,0.0,0.0,0.0,0.0,0.0,0.0,0.0,0.0,0.0,0.0,0.0,0.0,0.0,0.0,0.0,0.0,0.0,0.0,0.0,0.0,0.0,0.0,0.0,0.0,-2.7233,-2.7875,-3.0738,-3.1675,-2.9192,-2.9563,-3.0124,-3.0498,-3.2531,-3.4503,-3.6259,-3.7444,-3.8741,-4.0179,-3.9687,-3.9087,-3.8502,-3.7932,-3.7082,-3.5994,-3.5937,-3.5462,-3.4652,-3.4311,-3.3394,-3.2024,-3.1139,-3.0443,-2.9762,-2.8056,-2.702,-2.6367,-2.4846,-2.3362,-2.2016,-2.1648,-2.0941,-2.0169,-1.9982,-1.9877,-1.9613,-1.845,-1.6588,-1.4885,-1.5265,-1.3868,-1.2213,-1.2614,-1.2555,-1.2224,-1.1709,-1.1518,-1.1392,-1.1015,-1.05,-0.9973,-0.9435,-0.8719,-0.7982,-0.7297,-0.6442,-0.5881,-0.6062,-0.6202,-0.648,-0.6954,-0.6888,-0.6868,-0.6981,-0.6465,-0.5889,-0.5437,-0.4266,-0.3301,-0.2867,-0.2555,-0.2078,-0.1336,-0.1907,-0.1928,-0.123,-0.213,-0.2637,-0.2637,-0.3325,-0.3718,-0.3795,0.0,0.0,0.0,0.0,0.0,0.0,0.0,0.0,0.0,0.0,0.0,0.0,0.0,0.0,0.0,0.0,0.0,0.0,0.0,0.0,0.0,0.0,0.0,-2.2523,-2.766,-3.0833,-2.9345,-3.29,-3.4515,-3.209,-3.3383,-3.4745,-3.5706,-3.6578,-3.7872,-3.9701,-3.9817,-4.0218,-4.1075,-4.1072,-4.0238,-3.8521,-3.8482,-3.7624,-3.6009,-3.5935,-3.5425,-3.4539,-3.3692,-3.2804,-3.1914,-3.1035,-3.0645,-3.0489,-2.8841,-2.8092,-2.7723,-2.5195,-2.3637,-2.2694,-2.182,-2.0945,-2.0164,-1.9915,-1.9656,-1.9338,-1.8663,-1.8342,-1.798,-1.672,-1.5502,-1.4544,-1.4459,-1.3795,-1.308,-1.2954,-1.2987,-1.2867,-1.2092,-1.1715,-1.119,-0.9896,-0.9268,-0.8487,-0.6887,-0.6716,-0.7072,-0.7662,-0.8045,-0.846,-0.9051,-0.9143,0.0,-0.8921,-0.8018,-0.7108,-0.6483,-0.4894,-0.3609,-0.2848,-0.3443,-0.3138,-0.1438,-0.3158,-0.351,-0.1869,-0.3505,-0.4465,-0.4439,-0.4794,-0.4007,-0.2031,0.0,0.0,0.0,0.0,0.0,0.0,0.0,0.0,0.0,0.0,0.0,0.0,0.0,0.0,0.0,0.0,0.0,0.0,0.0,0.0,0.0,0.0,-2.8476,-2.8733,-3.126,-3.412,-3.6819,-3.8207,-3.8663,-3.7974,-3.7871,-3.7685,-3.7334,-3.8179,-3.9015,-3.9626,-4.0252,-4.076,-4.1081,-4.0485,-3.965,-3.8583,-3.7952,-3.7053,-3.5937,-3.5915,-3.5112,-3.3648,-3.342,-3.2492,-3.1001,-3.014,-2.9402,-2.8722,-2.7684,-2.6469,-2.52,-2.4471,-2.3642,-2.2689,-2.1778,-2.0843,-2.0101,-2.0533,-2.0481,-2.0184,-1.9705,-1.9067,-1.834,-1.7606,-1.6574,-1.5625,-1.5509,-1.5335,-1.4929,-1.3839,-1.373,-1.3585,-1.2222,-1.2072,-1.1845,-1.041,-0.9956,-0.9515,-0.8368,-0.8166,-0.7913,-0.7022,-0.6852,-0.7053,-0.7667,-0.7652,0.0,-0.7341,-0.6792,-0.6488,-0.6798,-0.4995,-0.3959,-0.44,-0.3472,-0.2563,-0.1776,-0.2608,-0.2663,-0.1615,-0.2899,-0.3464,-0.3121,-0.3875,-0.3826,0.0,0.0,0.0,0.0,0.0,0.0,0.0,0.0,0.0,0.0,0.0,0.0,0.0,0.0,0.0,0.0,0.0,0.0,0.0,0.0,0.0,0.0,-2.9339,-3.3445,-3.5192,-3.633,-3.7927,-4.0502,-4.1132,-4.1208,-4.0845,-4.0746,-4.0372,-3.955,-4.0053,-4.0324,-4.0138,-4.061,-4.0786,-4.0567,-4.0059,-3.9244,-3.8063,-3.7552,-3.6841,-3.5937,-3.5541,-3.4622,-3.3293,-3.2928,-3.1992,0.0,-3.0166,-2.9447,-2.8592,-2.7757,-2.652,0.0,0.0,0.0,0.0,0.0,-2.1001,-2.0585,-2.117,-2.1265,-2.1009,-2.0227,-1.9589,-1.9008,-1.8207,-1.7209,-1.6392,-1.6594,-1.637,-1.5805,-1.4816,-1.4656,-1.4311,-1.2673,-1.2546,-1.2352,-1.0651,-1.0389,-1.014,-0.893,-0.8598,0.0,-0.7422,-0.7433,-0.7764,-0.8329,-0.8274,-0.8092,-0.8041,-0.7174,-0.668,-0.693,-0.5145,-0.4083,-0.4359,-0.3883,0.0,0.0,0.0,-0.3637,-0.2919,-0.3529,0.0,0.0,0.0,-0.4444,-0.4146,0.0,0.0,0.0,-0.2785,-0.3803,0.0,0.0,0.0,0.0,0.0,0.0,0.0,0.0,0.0,0.0,0.0,0.0,0.0,0.0,0.0,0.0,-3.2767,-3.7328,-4.1032,-4.1675,-4.1739,-4.1647,-4.2316,-4.2507,-4.1724,-4.2354,-4.2489,-4.1728,-4.1739,-4.1517,-4.0888,0.0,0.0,0.0,0.0,-3.8889,-3.7321,-3.7204,-3.6716,-3.584,-3.5018,-3.4105,-3.3122,-3.2355,-3.1513,-3.069,-3.069,-3.0146,-2.9195,-2.8411,-2.7396,-2.61,-2.3874,-2.2408,-2.1522,-2.1479,-2.1403,-2.1386,-2.1894,0.0,0.0,-2.0477,-2.0032,-1.9795,-1.8592,-1.7559,-1.6957,-1.7547,-1.699,-1.612,-1.5643,-1.5417,-1.4905,-1.3174,-1.3019,-1.2771,-1.0902,-1.0743,-1.0586,-0.913,-0.8608,-0.8442,-0.8517,-0.8871,-0.9331,-0.9824,-0.9703,-0.9567,-0.9559,-0.8223,-0.716,-0.6867,0.0,0.0,-0.3661,-0.4413,-0.4246,-0.2628,-0.4346,-0.5153,-0.467,-0.453,-0.4773,-0.5407,-0.5132,-0.4948,-0.4833,-0.5497,-0.3892,-0.0258,-0.143,-0.281,0.0,0.0,0.0,0.0,0.0,0.0,0.0,0.0,0.0,0.0,0.0,0.0,0.0,0.0,0.0,-3.2837,-3.6804,-4.024,-4.2729,-4.3691,-4.3729,-4.2597,-4.2659,-4.2737,-4.2565,-4.2698,-4.245,-4.1609,-4.1662,-4.1393,-4.0617,-4.0674,-4.0431,-3.9733,-3.9045,-3.8229,-3.7301,-3.6599,-3.5808,-3.4941,0.0,0.0,-3.2259,-3.2079,-3.152,-3.069,-3.069,-2.9816,-2.8333,-2.8165,-2.6703,-2.4522,-2.3937,-2.3167,-2.2362,-2.2342,-2.2266,-2.225,-2.2776,-2.2838,-2.2502,-2.1342,-2.085,-2.04,-1.8845,-1.7996,0.0,-1.7738,-1.7396,-1.6694,-1.5375,-1.5272,-1.5037,-1.3033,-1.3142,-1.3301,-1.1952,-1.1607,-1.133,-1.0592,-1.0029,-0.956,-0.9313,-0.8798,-0.8477,-0.8683,-0.8697,-0.8361,-0.7588,-0.6871,-0.6482,-0.6564,-0.504,-0.4228,-0.4866,-0.4182,-0.3459,-0.2876,-0.3211,-0.3547,-0.3832,-0.3309,-0.2816,-0.2347,-0.254,-0.2463,-0.2075,-0.2259,-0.2497,-0.2754,-0.1157,-0.0484,0.0,0.0,0.0,0.0,0.0,0.0,0.0,0.0,0.0,0.0,0.0,-2.3255,0.0,0.0,-3.2231,-3.4976,-3.8688,-4.1698,-4.3033,-4.3672,-4.3729,-4.2846,-4.3137,-4.308,-4.2221,-4.2545,-4.2431,-4.1571,-4.1589,-4.1485,-4.1123,-4.0808,-4.0328,-3.9682,-3.8851,-3.7834,-3.6657,-3.5779,-3.5123,-3.4682,-3.3827,-3.2927,-3.2029,-3.1562,-3.112,-3.0703,-3.0711,-2.9719,-2.8023,-2.7154,-2.5975,-2.4687,-2.4628,-2.379,-2.2658,-2.3046,-2.3137,-2.3126,-2.3624,-2.3655,-2.3307,-2.2132,-2.1384,-2.0703,-1.9395,-1.8537,-1.7992,-1.8005,-1.7772,-1.7209,-1.5742,-1.5428,-1.5064,-1.3301,-1.3233,-1.3224,-1.2021,-1.1666,-1.1417,-1.0756,-1.025,-0.9915,-0.9884,-0.9472,-0.9059,-0.8748,-0.8488,-0.8111,-0.753,-0.6719,-0.6177,-0.6173,-0.4939,-0.4308,-0.4749,-0.4054,-0.3467,-0.3281,-0.323,-0.3358,-0.3591,-0.3225,-0.2653,-0.1946,-0.1777,-0.1483,-0.098,-0.0943,-0.13,-0.2063,-0.066,-0.0044,0.0,0.0,0.0,0.0,0.0,0.0,0.0,0.0,-2.1824,-2.3883,-2.5565,-2.7003,-2.807,-3.1903,-3.5321,-3.6625,-3.9955,-4.2456,-4.2586,-4.2941,-4.2944,-4.2311,-4.3156,-4.3252,-4.1877,-4.2526,-4.2737,-4.203,-4.2049,-4.197,-4.17,-4.1123,-4.0346,-3.9332,-3.8685,-3.7572,-3.6001,-3.5126,-3.4602,-3.4432,-3.2848,-3.2011,-3.1816,-3.107,-3.07,-3.0682,-3.0335,-2.9311,-2.7725,-2.6151,-2.5437,-2.5322,-2.5312,-2.4387,-2.3184,-2.3812,-2.4005,-2.3977,-2.4316,-2.4173,-2.3673,-2.2494,-2.1494,-2.0583,-1.9661,-1.8833,-1.8205,-1.8197,-1.807,-1.7608,-1.617,-1.5727,-1.5257,-1.3833,-1.3459,-1.3165,-1.2208,-1.1805,-1.1455,-1.0808,-1.0329,-1.0086,-1.033,-1.0244,-0.9883,-0.9217,-0.8716,-0.8341,-0.8013,-0.7056,-0.6258,-0.5873,-0.5009,-0.4403,-0.432,-0.3921,-0.37,-0.3667,-0.3622,-0.3622,-0.3622,-0.3398,-0.2993,-0.2368,-0.1697,-0.1163,-0.0719,-0.0539,-0.0539,-0.0674,-0.0315,-0.0315,-1.2982,-1.3539,-1.4661,-1.5596,-1.7508,-2.0138,0.0,0.0,-2.7318,-2.9535,-3.1044,-3.2414,-3.387,-3.6119,-3.8264,-3.9888,-4.1812,-4.275,-4.1711,-4.2251,-4.2118,-4.0442,-4.1834,-4.287,-4.2679,-4.3386,-4.3845,-4.373,-4.377,-4.3159,-4.1684,-4.1585,-4.0566,-3.8349,-3.8187,-3.7434,-3.5938,-3.5056,-3.4242,-3.3534,-3.2561,-3.1693,-3.0937,-3.0839,-3.0767,-3.0604,-2.9065,-2.7848,-2.6864,-2.5958,-2.5505,-2.5385,-2.5313,-2.5138,-2.4903,-2.4941,-2.4873,-2.4761,-2.4617,-2.3855,-2.2794,-2.1822,-2.0753,-1.9682,-1.8871,-1.8418,-1.8187,-1.8205,-1.8095,-1.7647,-1.6243,-1.6143,-1.6019,-1.4521,-1.4056,-1.3875,-1.3757,-1.2871,-1.2052,-1.1763,-1.127,-1.0816,-1.0611,-1.04,-1.0088,-0.9518,-0.9399,-0.8981,-0.7957,-0.7453,-0.6868,-0.6076,-0.5399,-0.484,-0.436,-0.3921,-0.3744,-0.3836,-0.3711,-0.3619,-0.37,-0.3084,-0.2593,-0.2144,-0.1611,-0.1121,-0.0719,-0.0674,-0.0674,-0.0719,-0.0629,-0.0539,-1.6218,-1.6403,0.0,0.0,-2.1791,-2.3622,-2.7028,-2.8938,-3.0626,-3.2878,-3.4498,-3.5809,-3.673,-3.843,-3.9872,0.0,-4.1303,-4.1624,-4.1158,-4.0344,-3.9342,-3.8196,-3.8452,-3.9029,-3.9757,-4.0597,-4.1094,-4.1094,-4.159,-4.1781,-4.1552,-4.0671,-3.9967,-3.9446,-3.8074,-3.6871,-3.5846,-3.4514,-3.3438,-3.2636,-3.1758,-3.1157,-3.0795,-3.08,-3.0751,-3.0604,-2.889,-2.7923,-2.7453,-2.6139,-2.5511,-2.5401,-2.5365,-2.5245,-2.5084,-2.5107,-2.5025,-2.4888,-2.4712,-2.4236,-2.3566,-2.2948,-2.1729,-2.043,-1.9864,-1.9042,-1.8249,-1.8201,-1.8134,-1.7774,-1.6525,-1.6182,-1.5828,-1.4511,-1.3947,-1.354,-1.2955,-1.242,-1.1927,-1.1607,-1.1331,-1.1165,-1.1276,-1.1029,-1.0611,-0.9991,-0.9518,-0.8958,-0.8203,-0.7543,-0.6862,-0.6119,-0.5482,-0.5018,-0.4825,-0.4329,-0.4056,-0.402,-0.3619,-0.335,-0.33,-0.2768,-0.2237,-0.17,-0.1478,-0.1121,-0.0719,-0.0719,-0.0719,-0.0719,-0.0719,-0.0674,-1.831,0.0,0.0,-2.4099,-2.5881,-2.7303,-2.989,-3.1353,-3.2714,-3.4673,-3.5952,-3.6827,-3.7266,-3.866,0.0,-3.9706,-4.0336,-4.0586,-4.001,-3.8799,-3.7498,-3.6166,-3.5437,-3.5405,-3.6388,-3.8156,-3.928,-3.9355,-4.0368,-4.1036,-4.1151,-4.0289,-3.9862,-4.0038,-3.8127,-3.6648,-3.5721,-3.4309,-3.3214,-3.2427,-3.1577,-3.1153,-3.1153,-3.0916,-3.05,-2.9944,-2.8727,-2.7897,-2.7324,-2.6106,-2.5544,-2.5453,-2.5379,-2.5264,-2.5099,-2.5082,-2.4993,-2.4861,-2.4746,-2.4377,-2.3915,-2.3377,-2.2124,-2.0735,-2.0248,-1.9279,-1.8307,-1.8239,-1.8176,-1.7933,-1.697,-1.6489,-1.5967,-1.4981,-1.4298,-1.3674,-1.3013,-1.2636,-1.2301,-1.1939,-1.1772,-1.1711,-1.1816,-1.159,-1.1169,-1.0562,-0.9755,-0.8999,-0.8415,-0.7672,-0.6993,-0.6418,-0.5869,-0.552,-0.5405,-0.4721,-0.4286,-0.4248,-0.3514,-0.3052,-0.3095,-0.247,-0.1912,-0.1505,-0.1308,-0.1038,-0.0732,-0.0723,-0.0728,-0.0789,-0.0735,-0.0736,0.0,0.0,-2.2185,-2.5819,-2.8903,-3.141,-3.2933,-3.3305,-3.3668,-3.4833,-3.4874,-3.478,-3.5135,-3.6291,-3.7198,-3.7198,-3.929,-4.0083,-3.7729,-3.8132,-3.7577,-3.4637,-3.3571,-3.3179,0.0,-3.7327,-3.9981,-4.0234,-4.18,-4.203,-4.0425,-4.1093,-4.0785,-3.9197,-3.8309,-3.7098,-3.5526,-3.4749,-3.4008,-3.3248,-3.2443,-3.2051,-3.2034,-3.1189,-2.9881,-2.8268,-2.8216,-2.7235,-2.5679,-2.5621,-2.5589,-2.557,-2.5371,-2.5337,-2.5367,-2.5103,-2.4915,-2.4794,-2.4719,-2.4073,-2.3093,-2.2229,-2.1131,-1.9974,-1.911,-1.8654,-1.8385,-1.8328,-1.8301,-1.8176,-1.7687,-1.7311,-1.6953,-1.6449,-1.5515,-1.4807,-1.4978,-1.4337,-1.3651,-1.3288,-1.3085,-1.2718,-1.2006,-1.1836,-1.1627,-1.1217,-1.036,-0.946,-0.8594,-0.8054,-0.7562,-0.7044,-0.6834,-0.6503,-0.5931,-0.498,-0.4436,-0.4603,-0.3409,-0.2911,-0.3257,-0.2279,-0.1713,-0.1712,-0.1054,-0.0733,-0.0811,-0.0733,-0.0795,-0.1004,-0.0873,-0.0876,0.0,0.0,-2.568,-2.8915,-3.1207,-3.2797,-3.3288,-3.3778,-3.3888,-3.3089,-3.3173,-3.3065,-3.1908,-3.2574,-3.3834,-3.5674,-3.639,-3.727,-3.881,-3.7906,-3.6515,-3.4907,-3.4013,0.0,0.0,0.0,0.0,-3.8251,-3.9014,-3.968,-4.0272,-4.0042,-3.9888,-3.9905,-3.7989,-3.6761,-3.6299,-3.494,-3.3916,-3.3218,-3.2462,-3.1797,-3.1231,-3.0927,-3.0154,-2.9022,-2.8442,-2.7534,-2.6413,-2.5832,-2.5595,-2.5589,-2.5478,-2.5387,-2.5329,-2.5234,-2.4712,-2.4052,-2.3983,-2.3697,-2.317,-2.2154,-2.1195,-2.0314,-1.9647,-1.9067,-1.8565,-1.8351,-1.8304,-1.8215,-1.7833,-1.7455,-1.6963,-1.6082,-1.5407,-1.4841,-1.4362,-1.3997,-1.3718,-1.3423,-1.3244,-1.3035,-1.2768,-1.2437,-1.1838,-1.0815,-1.0054,-0.9274,-0.8415,-0.808,-0.7923,-0.7931,-0.7346,-0.6927,-0.6901,-0.5665,-0.4948,-0.5005,-0.3764,-0.3068,-0.3116,-0.2291,-0.1762,-0.1621,-0.1222,-0.1035,-0.1049,-0.1035,-0.1104,-0.121,-0.1146,-0.1147,-2.3748,-2.659,-2.9074,-3.175,-3.3347,-3.4066,-3.3525,-3.3169,-3.2462,-3.0812,-3.0384,-2.992,-2.8491,-2.8986,-3.0295,-3.2322,-3.301,-3.44,-3.7564,-3.652,-3.5412,-3.5477,-3.4486,0.0,0.0,0.0,0.0,-3.6348,-3.7738,-3.8747,-3.9355,-3.9431,-3.9716,-4.0288,-3.8142,-3.6888,-3.6666,-3.5329,-3.4158,-3.3192,-3.2767,-3.1931,-3.0801,-3.0801,-3.0147,-2.9004,-2.8432,-2.7532,-2.6396,-2.5837,-2.5601,-2.5595,-2.5551,-2.5471,-2.5363,-2.5255,-2.4621,-2.3752,-2.3682,-2.3371,-2.2851,-2.1807,-2.1084,-2.046,-1.9723,-1.9145,-1.8678,-1.8408,-1.8325,-1.8218,-1.7878,-1.7502,-1.7036,-1.6198,-1.5739,-1.5331,-1.4758,-1.4495,-1.4251,-1.3891,-1.365,-1.3391,-1.3141,-1.2711,-1.2046,-1.0993,-1.0376,-0.9689,-0.8669,-0.8478,-0.8477,-0.8548,-0.7992,-0.7647,-0.7568,-0.6442,-0.5599,-0.5344,-0.4113,-0.3289,-0.3032,-0.2433,-0.1985,-0.1737,-0.1518,-0.1322,-0.124,-0.1224,-0.1299,-0.1417,-0.1139,-0.1088,-2.6964,-3.0037,-3.216,-3.4248,-3.5115,-3.5121,-3.3643,-3.1579,-2.957,-2.8152,-2.673,-2.5541,0.0,0.0,-2.6707,-2.7659,-2.9625,-3.1926,-3.4516,-3.4418,-3.4687,0.0,0.0,0.0,0.0,0.0,0.0,-3.4907,0.0,-3.9162,-3.7885,-3.9391,-4.0307,-4.0307,-3.8733,-3.7504,-3.6668,-3.59,-3.4729,-3.3206,-3.3321,-3.2489,-3.0799,-3.0762,-2.9816,-2.8203,-2.816,-2.7164,-2.5601,-2.559,-2.5601,-2.5601,-2.5602,-2.5544,-2.5452,-2.5197,-2.4583,-2.3869,-2.3739,-2.3048,-2.2084,-2.1134,-2.0703,-2.0369,-1.9332,-1.8931,-1.8769,-1.8485,-1.8348,-1.8229,-1.7905,-1.7572,-1.7224,-1.6825,-1.6448,-1.6194,-1.6123,-1.574,-1.5255,-1.4721,-1.4278,-1.3802,-1.3198,-1.274,-1.2296,-1.1722,-1.1322,-1.0637,-0.9385,-0.9252,-0.9134,-0.8876,-0.8804,-0.8586,-0.7925,-0.7106,-0.6293,-0.5542,-0.4443,-0.3622,-0.313,-0.2713,-0.2344,-0.2073,-0.1853,-0.1597,-0.1332,-0.1338,-0.1418,-0.157,-0.0922,-0.0707,-3.0172,-3.2565,-3.4277,-3.5317,-3.4849,-3.3689,-3.2124,-2.9909,-2.7496,-2.4906,-2.3861,-2.3069,0.0,0.0,0.0,-2.8876,-3.0636,0.0,-3.7893,-3.8407,0.0,0.0,0.0,-3.7294,-3.689,-3.6526,0.0,0.0,-3.6729,-3.7714,-3.9256,-3.9948,-4.0309,-4.0307,-3.8697,-3.774,-3.7581,-3.6188,-3.4696,-3.3125,-3.3219,-3.24,-3.0774,-3.0174,-2.9301,-2.8232,-2.7598,-2.6654,-2.5598,-2.5601,-2.56,-2.5601,-2.5602,-2.5498,-2.5335,-2.5264,-2.4605,-2.3739,-2.3702,-2.2665,-2.1178,-2.0294,-1.9974,-1.9824,-1.9248,-1.9049,-1.8948,-1.8582,-1.8426,-1.8328,-1.8225,-1.7777,-1.7337,-1.7183,-1.6738,-1.6316,-1.6194,-1.5883,-1.5448,-1.4937,-1.4181,-1.3514,-1.3232,-1.3361,-1.3247,-1.239,-1.2449,-1.1899,-1.01,-0.9645,-0.9475,-0.9406,-0.9113,-0.8685,-0.7978,-0.7106,-0.6244,-0.5386,-0.4567,-0.3965,-0.363,-0.3327,-0.3002,-0.2762,-0.2477,-0.2214,-0.1967,-0.195,-0.188,-0.174,-0.1224,-0.1001,-3.2812,-3.481,-3.5918,-3.5699,-3.4382,-3.2524,-3.0251,-2.7601,-2.4812,-2.1966,-2.1242,0.0,0.0,0.0,0.0,0.0,0.0,0.0,-3.6845,-3.7973,-3.8933,0.0,-4.0249,0.0,-3.8615,-3.823,-3.7886,0.0,-3.7468,-3.7988,-3.9245,-3.9829,-4.0005,-3.9771,-3.8489,-3.7472,-3.6779,-3.5925,-3.4658,-3.3014,-3.3149,-3.2341,-3.0732,-2.9913,-2.9101,-2.8244,0.0,-2.6484,-2.5638,-2.5603,-2.5604,-2.5595,-2.5601,-2.5538,-2.5414,-2.5312,-2.4635,-2.3769,-2.365,-2.2725,-2.1441,-2.0538,-2.0506,-2.0569,-1.9444,-1.9352,-1.9467,-1.8709,-1.8445,-1.8365,-1.8208,-1.791,-1.7549,-1.7248,-1.6876,-1.6554,-1.6344,-1.5911,-1.5359,-1.461,-1.3967,-1.357,-1.3699,-1.3705,-1.3556,-1.3202,-1.2976,-1.2404,-1.1226,-1.0362,-0.9814,-0.9614,-0.9054,-0.8421,-0.7925,-0.7224,-0.647,-0.5655,-0.5007,-0.4463,-0.4021,-0.3744,-0.3434,-0.3207,-0.2936,-0.2665,-0.2394,-0.2394,-0.2199,-0.1682,-0.1401,-0.1008,-3.4862,-3.644,-3.6967,-3.5622,-3.3687,-3.1385,-2.8412,-2.5118,-2.2013,-1.9548,0.0,-1.9058,-1.9183,0.0,-2.1675,-2.3863,0.0,-2.908,-3.4202,-3.5841,-3.7949,-4.1846,-4.168,-4.0946,-4.0139,-3.9331,-3.8817,-3.8707,-3.8939,-3.8954,-3.8726,-3.9359,-3.9429,-3.8776,-3.801,-3.6881,-3.5312,-3.5422,-3.461,-3.2909,-3.3093,-3.2246,-3.0506,-2.9694,-2.8879,-2.8088,-2.7205,0.0,-2.5703,-2.564,-2.5609,-2.5598,-2.5595,-2.5595,-2.555,-2.5313,-2.4722,-2.3995,-2.3774,-2.3215,-2.2473,-2.1489,-2.1644,-2.1853,-1.9895,-1.9858,-2.0191,-1.8908,-1.8573,-1.8487,-1.8142,-1.7975,-1.7772,-1.7199,-1.6977,-1.6825,-1.649,-1.5943,-1.5293,-1.4504,-1.4018,-1.3934,-1.4377,-1.3973,-1.3644,-1.3935,-1.3253,-1.2666,-1.2421,-1.1141,-1.0064,-0.971,-0.8844,-0.8162,-0.7871,-0.7402,-0.675,-0.5982,-0.555,-0.4956,-0.4249,-0.3965,-0.363,-0.3357,-0.3132,-0.291,-0.2577,-0.2747,-0.2408,-0.1567,-0.1454,-0.0839,-3.5891,-3.6461,-3.6459,-3.5508,-3.2839,-2.9858,-2.7502,-2.3677,0.0,0.0,0.0,-1.835,-1.9126,-2.0676,0.0,-2.6306,0.0,0.0,0.0,0.0,-3.9276,0.0,0.0,0.0,0.0,0.0,0.0,0.0,0.0,-3.8933,-3.9325,-3.9006,-3.8251,-3.6996,-3.6805,-3.6265,-3.532,-3.532,-3.4534,-3.2909,-3.2926,-3.1768,-2.9596,-2.8734,-2.7932,-2.7184,-2.6294,0.0,-2.5703,-2.5683,-2.5648,-2.5601,-2.5593,-2.5529,-2.5437,-2.5385,-2.5079,-2.4715,-2.4663,-2.4483,-2.405,-2.2553,-2.2159,-2.2042,-2.0797,-2.0831,-2.0934,-1.9237,-1.91,-1.9286,-1.854,-1.8163,-1.7905,-1.7509,-1.7175,-1.6892,-1.6554,-1.6291,-1.623,-1.6556,-1.5591,-1.4689,-1.4714,-1.4542,-1.4267,-1.3806,-1.392,-1.3763,-1.3007,-1.1434,-1.0312,-1.0115,-0.9361,-0.8474,-0.7503,-0.7343,-0.675,-0.5513,-0.5348,-0.5018,-0.4463,-0.3904,-0.3461,-0.3132,-0.2912,-0.2519,-0.1959,-0.2972,-0.2807,-0.1514,-0.0897,-0.0617,-3.4651,-3.5535,-3.6137,-3.467,-3.1862,-2.8682,-2.5735,0.0,0.0,0.0,0.0,-1.8313,-1.9318,0.0,0.0,0.0,0.0,0.0,0.0,0.0,0.0,0.0,0.0,0.0,0.0,0.0,0.0,0.0,0.0,-3.8253,-3.8637,-3.7804,-3.7053,-3.6506,-3.608,-3.5675,-3.5239,-3.4833,-3.4021,-3.2799,-3.2404,-3.1182,-2.922,-2.8456,-2.7683,-2.6903,-2.6066,0.0,-2.5699,-2.5703,-2.5681,-2.5646,-2.5616,-2.5552,-2.5505,-2.5441,-2.5293,-2.5143,-2.4949,-2.485,-2.4672,-2.3817,-2.3562,-2.3195,-2.1284,-2.1163,-2.1291,-1.9345,-1.902,-1.91,-1.859,-1.8263,-1.8009,-1.7641,-1.7076,-1.6622,-1.6609,-1.6458,-1.6401,-1.6695,-1.6073,-1.5464,-1.5334,-1.495,-1.4525,-1.4283,-1.4071,-1.3716,-1.29,-1.1633,-1.0661,-1.0364,-0.9436,-0.8501,-0.7557,-0.7079,-0.6539,-0.5896,-0.5399,-0.4904,-0.4519,-0.3852,-0.3297,-0.2905,-0.2687,-0.2408,-0.2015,-0.2577,-0.2354,-0.1288,-0.1177,-0.0842,-3.3665,-3.4914,-3.603,-3.4106,-3.1176,-2.792,-2.4486,-2.1248,0.0,0.0,-1.7358,-1.8182,-1.9237,0.0,0.0,0.0,0.0,0.0,0.0,0.0,0.0,0.0,0.0,0.0,0.0,0.0,0.0,0.0,0.0,0.0,-3.7355,-3.6569,-3.6103,-3.6081,-3.5556,-3.5149,-3.4857,-3.4289,-3.3483,-3.2439,-3.1845,-3.0609,-2.8799,-2.8272,-2.7511,-2.6573,-2.5951,0.0,0.0,-2.57,-2.5703,-2.5683,-2.5642,-2.5616,-2.5593,-2.5473,-2.5414,-2.5357,-2.5111,-2.4949,-2.4891,-2.4804,-2.4734,-2.4245,-2.1794,-2.1535,-2.1664,-1.9521,-1.8968,-1.8967,-1.8617,-1.8403,-1.8172,-1.7726,-1.7131,-1.6732,-1.7015,-1.6948,-1.6808,-1.6894,-1.6592,-1.6201,-1.5972,-1.529,-1.469,-1.4607,-1.4082,-1.342,-1.2745,-1.1931,-1.1166,-1.0466,-0.9422,-0.8495,-0.7824,-0.7133,-0.6647,-0.6436,-0.5555,-0.4952,-0.4629,-0.3744,-0.313,-0.2681,-0.235,-0.2073,-0.1961,-0.1959,-0.1623,-0.1063,-0.1458,-0.0954,-3.4855,-3.583,-3.6153,-3.4737,-3.142,-2.7751,-2.5051,0.0,0.0,-1.7046,-1.6953,-1.7416,-1.8426,-1.9318,0.0,0.0,0.0,0.0,0.0,0.0,0.0,0.0,0.0,0.0,0.0,0.0,0.0,0.0,0.0,0.0,-3.5602,-3.5929,-3.5663,-3.4703,-3.5038,-3.4725,-3.3751,-3.3922,-3.3184,-3.1618,-3.1479,-3.019,-2.7918,-2.7864,-2.7011,-2.5624,-2.5619,0.0,0.0,-2.5707,-2.5698,-2.5703,-2.5683,-2.565,-2.5601,-2.5589,-2.5498,-2.5401,-2.5357,-2.5154,-2.4917,-2.4956,-2.4842,-2.4388,-2.2684,-2.2473,-2.2299,-1.9934,-1.9522,-1.9606,-1.8799,-1.8581,-1.842,-1.7822,-1.7723,-1.7876,-1.8263,-1.837,-1.85,-1.8877,-1.7822,-1.6809,-1.6401,-1.5516,-1.4755,-1.4305,-1.4093,-1.3668,-1.2871,-1.2463,-1.1814,-1.0517,-0.9555,-0.8679,-0.7925,-0.7818,-0.7396,-0.6436,-0.5991,-0.5445,-0.4897,-0.3627,-0.285,-0.2681,-0.1624,-0.1122,-0.1178,-0.1065,-0.1009,-0.0897,-0.0954,-0.0617,-3.1721,-3.4069,-3.5968,-3.3767,-3.0797,-2.7519,-2.4144,0.0,0.0,-1.7193,-1.7066,-1.7437,-1.8427,-1.937,-2.0425,0.0,0.0,0.0,0.0,0.0,0.0,0.0,0.0,0.0,0.0,0.0,0.0,0.0,0.0,0.0,-3.4444,-3.4764,-3.482,-3.4508,-3.4223,-3.3904,-3.36,-3.2759,-3.2041,-3.1484,-3.0949,-2.9658,-2.7738,-2.778,-2.6939,-2.5434,-2.5502,0.0,0.0,-2.5701,-2.5707,-2.5696,-2.5703,-2.5682,-2.5652,-2.5619,-2.5576,-2.5498,-2.5374,-2.5244,-2.5042,-2.4423,-2.4155,-2.3884,-2.2706,-2.2103,-2.1459,-1.977,-1.9415,-1.9396,-1.875,-1.8368,-1.8009,-1.7559,-1.7507,-1.7655,-1.8161,-1.8341,-1.8532,-1.8881,-1.8408,-1.7626,-1.6604,-1.6046,-1.541,-1.4351,-1.4104,-1.3621,-1.256,-1.2209,-1.1575,-1.0285,-0.9821,-0.9249,-0.8408,-0.8084,-0.7498,-0.6475,-0.5823,-0.5117,-0.4291,-0.3461,-0.2794,-0.2293,-0.179,-0.1401,-0.1122,-0.1066,-0.0954,-0.0898,-0.0898,-0.0785,-2.9343,-3.2232,-3.4623,-3.2638,-2.9986,-2.6917,0.0,0.0,-1.8121,-1.7265,-1.7141,-1.7429,-1.8193,-1.9294,-2.0306,-2.1078,0.0,-2.2686,0.0,0.0,0.0,0.0,0.0,0.0,0.0,0.0,0.0,0.0,0.0,0.0,0.0,-3.3751,-3.3802,-3.3929,-3.328,-3.286,-3.2675,-3.1691,-3.0994,-3.0628,-3.008,-2.8943,-2.7319,-2.7366,-2.665,-2.5368,-2.5427,0.0,0.0,-2.5658,-2.5687,-2.5698,-2.5697,-2.5702,-2.5683,-2.562,-2.5593,-2.5585,-2.5449,-2.5195,-2.4812,-2.4052,-2.3465,-2.2892,-2.2274,-2.1595,-2.0802,-1.9717,-1.9335,-1.9219,-1.9075,-1.8467,-1.789,-1.7897,-1.7823,-1.7846,-1.8115,-1.8455,-1.8745,-1.8864,-1.8592,-1.8001,-1.6857,-1.6275,-1.5531,-1.4387,-1.3894,-1.3266,-1.2227,-1.1774,-1.1183,-1.0095,-0.9984,-0.9503,-0.8461,-0.7931,-0.723,-0.6308,-0.5601,-0.4893,-0.4018,-0.3463,-0.2907,-0.235,-0.2127,-0.1792,-0.1345,-0.1234,-0.1066,-0.0954,-0.0954,-0.0954,-2.8872,-3.0826,-3.1888,-3.1504,-2.902,-2.5932,0.0,0.0,-1.7645,-1.7117,-1.7115,-1.7257,-1.7455,-1.8883,-2.0111,-2.0446,-2.1804,0.0,0.0,0.0,0.0,0.0,0.0,0.0,0.0,0.0,0.0,0.0,0.0,0.0,0.0,-3.3054,-3.2632,-3.2614,-3.2288,-3.1613,-3.0535,-3.0979,-3.0341,-2.8619,-2.8822,-2.8045,-2.6402,-2.6402,-2.6014,0.0,0.0,0.0,0.0,-2.5561,-2.5636,-2.571,-2.569,-2.5709,-2.5683,-2.562,-2.5598,-2.5593,-2.5599,-2.4955,-2.4111,-2.4094,-2.288,-2.1407,-2.1336,-2.1128,-2.0731,-1.9907,-1.9405,-1.9264,-1.9903,-1.9094,-1.8301,-1.9083,-1.9083,-1.8783,-1.8392,-1.9037,-1.9566,-1.9176,-1.8383,-1.7707,-1.7353,-1.6083,-1.4915,-1.4398,-1.3437,-1.257,-1.19,-1.1351,-1.0753,-1.0051,-0.9903,-0.9316,-0.8031,-0.7402,-0.6756,-0.5882,-0.5382,-0.4893,-0.4519,-0.3799,-0.3299,-0.3074,-0.235,-0.2015,-0.2015,-0.1514,-0.1234,-0.1122,-0.1122,-0.101,-2.526,-2.7166,-2.8424,-2.7343,-2.5595,-2.3538,-2.1335,0.0,-1.7792,-1.7245,-1.7216,-1.7329,-1.7526,-1.8471,-1.9508,-2.0366,-2.1322,0.0,0.0,0.0,0.0,0.0,0.0,0.0,0.0,0.0,0.0,0.0,0.0,0.0,0.0,-3.2228,-3.2027,-3.2596,-3.1426,-3.0691,-3.0497,-2.9566,-2.893,-2.8582,-2.8108,-2.7355,-2.6402,-2.6402,-2.6014,0.0,0.0,0.0,0.0,-2.5526,-2.56,-2.5697,-2.5707,-2.5696,-2.5689,-2.5623,-2.5592,-2.5595,-2.5543,-2.5311,-2.4851,-2.3605,-2.286,-2.218,-2.0935,-2.0412,-2.0297,-2.0359,-1.9998,-1.9715,-2.0353,-1.9625,-1.8699,-1.8575,-1.8312,-1.7953,-1.7514,-1.8205,-1.8856,-1.8607,-1.8446,-1.8133,-1.7435,-1.66,-1.5688,-1.4582,-1.4071,-1.3294,-1.207,-1.1751,-1.1108,-0.988,-0.9138,-0.8613,-0.8256,-0.8103,-0.7348,-0.5782,-0.5504,-0.5011,-0.4073,-0.3796,-0.3519,-0.313,-0.2687,-0.2296,-0.2015,-0.1682,-0.1347,-0.1066,-0.0561,-0.0336,0.0,-2.4218,-2.5319,-2.4521,-2.3339,0.0,0.0,0.0,-1.7627,-1.7305,-1.7297,-1.7368,-1.7526,-1.831,-1.9284,-2.0332,-2.1115,0.0,0.0,0.0,0.0,0.0,0.0,0.0,0.0,0.0,0.0,0.0,0.0,0.0,0.0,-3.1283,-3.1064,-3.1696,-3.043,-2.9655,-2.9499,-2.8565,-2.7942,-2.7579,-2.7161,-2.6564,-2.5831,-2.5913,-2.5662,0.0,0.0,0.0,0.0,-2.5441,-2.5535,-2.5628,-2.5671,-2.5701,-2.569,-2.5644,-2.5641,-2.5634,-2.5551,-2.5343,-2.483,-2.3353,-2.2436,-2.1707,-2.055,-2.0106,-2.0167,-2.0975,-2.0684,-2.0335,-2.123,-2.0355,-1.9218,-1.9157,-1.8402,-1.7618,-1.7262,-1.7741,-1.818,-1.815,-1.8058,-1.7832,-1.7395,-1.6502,-1.5588,-1.4663,-1.3978,-1.3122,-1.1882,-1.161,-1.1006,-0.9666,-0.8974,-0.8448,-0.8103,-0.7676,-0.681,-0.5399,-0.5344,-0.4846,-0.3688,-0.3858,-0.3635,-0.2965,-0.3028,-0.2635,-0.179,-0.1289,-0.0954,-0.0729,-0.0112,0.0168,0.0,0.0,0.0,0.0,0.0,0.0,0.0,0.0,0.0,-1.7306,-1.7345,-1.7448,-1.7569,-1.8326,-1.9284,-2.0377,-2.1098,0.0,0.0,0.0,0.0,0.0,0.0,0.0,0.0,0.0,0.0,0.0,0.0,0.0,0.0,-3.0254,-2.981,-3.0002,-2.9232,-2.8503,-2.7805,-2.7927,-2.7289,-2.5876,-2.6012,-2.5665,-2.4888,-2.5088,-2.5076,0.0,0.0,0.0,0.0,-2.5365,-2.5432,-2.5504,-2.5634,-2.5675,-2.5694,-2.5698,-2.5723,-2.5779,-2.5648,-2.5141,-2.4413,-2.3422,-2.1828,-2.0308,-2.0366,-2.0211,-2.0272,-2.163,-2.141,-2.1068,-2.2373,-2.1187,-1.9812,-2.0385,-1.9052,-1.761,-1.7503,-1.7517,-1.763,-1.7799,-1.7404,-1.706,-1.722,-1.594,-1.4801,-1.4457,-1.3351,-1.2224,-1.1377,-1.1023,-1.0506,-0.9465,-0.9138,-0.856,-0.7568,-0.6495,-0.5567,-0.4897,-0.4842,-0.4349,-0.3357,-0.3814,-0.3646,-0.2747,-0.32,-0.2802,-0.1398,-0.056,-0.0168,-0.0168,0.028,0.0449,-1.861,0.0,-1.9171,-1.9127,-1.8876,0.0,0.0,0.0,0.0,0.0,0.0,-1.7574,-1.8235,-1.8219,-1.8778,-2.0856,-2.0897,0.0,0.0,0.0,0.0,0.0,0.0,0.0,0.0,0.0,0.0,0.0,0.0,0.0,0.0,-2.8905,-2.8626,-2.8088,-2.7478,-2.7365,-2.7787,-2.7245,-2.6539,-2.5651,-2.5088,-2.4794,-2.4749,-2.4798,-2.4856,0.0,0.0,0.0,-2.5225,-2.5303,-2.5357,-2.5425,-2.5459,-2.5505,-2.5556,-2.5542,-2.5998,-2.652,-2.5844,-2.5913,-2.6058,-2.455,-2.2357,-2.0553,-2.1874,-2.1199,-2.0306,-2.1821,-2.1782,-2.1514,-2.2408,-2.1462,-2.0056,-1.9082,-1.7954,-1.7104,-1.7126,-1.7221,-1.7447,-1.7948,-1.7466,-1.699,-1.6941,-1.5808,-1.4617,-1.3794,-1.315,-1.2236,-1.0956,-1.071,-1.0241,-0.9211,-0.8837,-0.8309,-0.73,-0.6642,-0.5764,-0.467,-0.4236,-0.363,-0.2745,-0.3084,-0.3084,-0.2691,-0.2408,-0.1624,-0.0336,-0.0168,-0.0112,-0.0168,0.0672,0.1063,-1.7833,-1.7944,-1.8027,-1.7922,-1.7856,-1.7766,0.0,0.0,0.0,0.0,0.0,0.0,-1.8019,0.0,0.0,0.0,0.0,0.0,0.0,0.0,0.0,0.0,0.0,0.0,0.0,0.0,0.0,0.0,0.0,0.0,0.0,-2.7272,-2.6913,-2.6572,-2.6296,-2.65,-2.7236,-2.6426,-2.5663,-2.5004,-2.4559,-2.4409,-2.453,-2.4575,-2.4607,0.0,0.0,0.0,-2.5022,-2.5214,-2.5322,-2.5357,-2.5398,-2.5418,-2.5467,-2.5498,-2.5831,-2.6205,-2.5781,-2.5422,-2.5011,-2.4098,-2.2508,-2.1194,-2.2501,-2.186,-2.0986,-2.2401,-2.2244,-2.1841,-2.2443,-2.1664,-2.0366,-1.8954,-1.7749,-1.6991,-1.7182,-1.7013,-1.703,-1.7734,-1.7356,-1.6833,-1.6591,-1.5776,-1.4846,-1.405,-1.3236,-1.2316,-1.1183,-1.0744,-1.0138,-0.9211,-0.8837,-0.8355,-0.7557,-0.6632,-0.576,-0.4838,-0.4343,-0.3627,-0.2521,-0.2577,-0.224,-0.1456,-0.112,-0.0672,-0.0,0.028,0.0393,0.0336,0.1119,0.151,-1.7743,-1.7856,-1.7939,-1.7883,-1.7816,-1.7749,0.0,0.0,0.0,0.0,0.0,0.0,0.0,0.0,0.0,0.0,0.0,0.0,0.0,0.0,0.0,0.0,0.0,0.0,0.0,0.0,0.0,0.0,0.0,0.0,0.0,-2.5569,-2.5173,-2.5374,-2.5275,-2.5566,-2.6264,-2.557,-2.4884,-2.4192,-2.4229,-2.4247,-2.4247,-2.4372,-2.4372,-2.4303,0.0,0.0,-2.4776,-2.5096,-2.5233,-2.5253,-2.5339,-2.5382,-2.5387,-2.544,-2.5561,-2.573,-2.5852,-2.4765,-2.3315,-2.3458,-2.277,-2.2021,-2.2699,-2.2337,-2.1895,-2.2954,-2.2619,-2.2048,-2.2555,-2.1913,-2.0749,-1.9333,-1.8044,-1.7193,-1.748,-1.697,-1.6688,-1.7481,-1.7142,-1.6612,-1.6225,-1.5599,-1.4926,-1.4305,-1.3198,-1.2227,-1.1575,-1.0838,-1.0095,-0.9256,-0.8935,-0.8455,-0.7711,-0.6568,-0.5655,-0.5073,-0.4508,-0.3622,-0.2298,-0.2017,-0.1287,-0.0,-0.0,-0.0,-0.0,0.0561,0.0842,0.0898,0.1456,0.1736,-1.7612,-1.7635,-1.7681,-1.7789,-1.7772,-1.7687,0.0,0.0,0.0,0.0,0.0,0.0,0.0,0.0,0.0,0.0,0.0,0.0,0.0,0.0,0.0,0.0,0.0,0.0,0.0,0.0,0.0,0.0,0.0,0.0,0.0,-2.4205,-2.4243,-2.4322,-2.3841,-2.3934,-2.4724,-2.4846,-2.4468,-2.3717,-2.3958,-2.4056,-2.4056,-2.4057,-2.4135,-2.421,0.0,-2.4442,-2.4551,-2.4776,-2.4904,-2.4981,-2.5153,-2.5282,-2.5313,-2.5321,-2.5875,-2.6621,-2.6741,-2.5654,-2.4315,-2.5058,-2.4168,-2.2815,-2.2941,-2.2738,-2.2451,-2.2524,-2.2316,-2.2212,-2.2858,-2.2321,-2.1167,-1.9413,-1.8319,-1.7697,-1.773,-1.7243,-1.7028,-1.7655,-1.7044,-1.6213,-1.5712,-1.4755,-1.3758,-1.2996,-1.2295,-1.1619,-1.1065,-1.0718,-1.0095,-0.9138,-0.8778,-0.8031,-0.6583,-0.6258,-0.5778,-0.4927,-0.358,-0.2294,-0.1177,-0.1121,-0.0729,-0.0,-0.0,-0.0,-0.0,0.0336,0.0617,0.0898,0.1234,0.1402,-1.7589,-1.7582,-1.7612,-1.7929,-1.7786,-1.7555,0.0,0.0,0.0,0.0,0.0,0.0,0.0,0.0,0.0,0.0,0.0,0.0,0.0,0.0,0.0,0.0,0.0,0.0,0.0,0.0,0.0,0.0,0.0,0.0,0.0,0.0,-2.3148,-2.312,-2.285,-2.2894,-2.3257,-2.3543,-2.362,-2.3544,-2.3667,-2.3792,-2.3896,-2.3771,-2.3834,-2.3999,0.0,-2.4284,-2.4355,-2.4551,-2.4678,-2.4741,-2.4921,-2.5013,-2.5099,-2.5203,-2.558,-2.601,-2.5663,-2.5012,-2.4425,-2.4863,-2.4407,-2.3798,-2.4265,-2.3948,-2.3377,-2.3245,-2.2987,-2.2762,-2.283,-2.2123,-2.0969,-1.9124,-1.8087,-1.754,-1.759,-1.7143,-1.6937,-1.7529,-1.7034,-1.6269,-1.5445,-1.4801,-1.4097,-1.316,-1.2129,-1.1342,-1.1091,-1.0241,-0.9524,-0.9047,-0.8455,-0.7641,-0.6504,-0.5692,-0.4941,-0.4359,-0.3135,-0.2017,-0.1122,-0.0954,-0.0673,-0.0224,-0.0056,-0.0,-0.0,0.028,0.0561,0.0898,0.1178,0.1291,-1.7559,-1.7529,-1.7566,-1.7895,0.0,0.0,0.0,0.0,0.0,0.0,0.0,0.0,0.0,0.0,0.0,0.0,0.0,0.0,0.0,0.0,0.0,0.0,0.0,0.0,0.0,0.0,0.0,0.0,0.0,0.0,0.0,0.0,-2.2349,-2.231,-2.231,-2.231,-2.231,-2.238,-2.2735,-2.3318,-2.3394,-2.3486,-2.3628,-2.3531,-2.3576,-2.3732,-2.3999,-2.4115,-2.4154,-2.4355,-2.4474,-2.4543,-2.4685,-2.479,-2.4893,-2.513,-2.5255,-2.5274,-2.4742,-2.4574,-2.4583,-2.4637,-2.4648,-2.4717,-2.5158,-2.49,-2.4374,-2.4056,-2.3831,-2.3515,-2.285,-2.2118,-2.1137,-1.9453,-1.8433,-1.7738,-1.7537,-1.719,-1.6987,-1.7056,-1.6849,-1.6256,-1.5107,-1.4709,-1.4201,-1.3256,-1.207,-1.1225,-1.1015,-0.9858,-0.8942,-0.8732,-0.7913,-0.6988,-0.6004,-0.4645,-0.3721,-0.3405,-0.2571,-0.1792,-0.1178,-0.1066,-0.0785,-0.0168,-0.0056,0.0112,0.0448,0.0617,0.0953,0.1402,0.1514,0.157,-1.7522,-1.7458,-1.7394,-1.7355,-1.7257,0.0,0.0,0.0,0.0,0.0,0.0,0.0,0.0,0.0,0.0,0.0,0.0,0.0,0.0,0.0,0.0,0.0,0.0,0.0,0.0,0.0,0.0,0.0,0.0,0.0,0.0,0.0,0.0,-2.231,-2.231,-2.231,-2.231,-2.1893,-2.2055,-2.2747,-2.301,-2.314,-2.3164,-2.3394,-2.3504,-2.3531,-2.3732,-2.3858,-2.3937,-2.4154,-2.4266,-2.4339,-2.4474,-2.4651,-2.4847,-2.5099,-2.5215,-2.5226,-2.5307,-2.5362,-2.5413,-2.5415,-2.5499,-2.5458,-2.4641,-2.4918,-2.5308,-2.4441,-2.4466,-2.4479,-2.3206,-2.2754,-2.2312,-2.1259,-2.0152,-1.9045,-1.7936,-1.7861,-1.7551,-1.61,-1.6153,-1.5959,-1.4525,-1.3836,-1.3208,-1.2414,-1.185,-1.1209,-1.0568,-0.9629,-0.8685,-0.7853,-0.6886,-0.5697,-0.4122,-0.2959,-0.2181,-0.1958,-0.1341,-0.1007,-0.0898,-0.129,-0.0842,0.0505,0.0168,0.056,0.1679,0.1682,0.2077,0.286,0.2523,0.2462,-1.7512,-1.7683,-1.7862,-1.7672,-1.7551,0.0,0.0,0.0,0.0,0.0,0.0,0.0,0.0,0.0,0.0,0.0,0.0,0.0,0.0,0.0,0.0,0.0,0.0,0.0,0.0,0.0,0.0,0.0,0.0,0.0,0.0,0.0,0.0,-2.231,-2.1854,-2.1617,-2.1617,-2.0943,-2.0739,-2.1028,-2.1295,-2.1511,-2.1691,-2.2113,-2.2482,-2.2793,-2.3186,-2.354,-2.3837,-2.3774,-2.3876,-2.4077,-2.4248,-2.4442,-2.4623,-2.4733,-2.4845,-2.4968,-2.5091,-2.5226,-2.5335,-2.5451,-2.5526,-2.5522,-2.5254,-2.5361,-2.5405,-2.4503,-2.4579,-2.4733,-2.4065,-2.3139,-2.2148,-2.1225,-2.0101,-1.9009,-1.808,-1.7467,-1.6889,-1.6205,-1.5684,-1.4949,-1.3674,-1.3208,-1.256,-1.119,-1.0458,-0.9799,-0.8947,-0.8165,-0.7481,-0.6945,-0.5747,-0.4549,-0.3461,-0.2127,-0.1345,-0.1232,-0.0896,-0.0672,-0.0505,-0.0617,-0.0336,0.0393,0.101,0.1457,0.179,0.2186,0.2579,0.2974,0.2635,0.2573,-1.7512,-1.7667,-1.7808,0.0,0.0,0.0,0.0,0.0,0.0,0.0,0.0,0.0,0.0,0.0,0.0,0.0,0.0,0.0,0.0,0.0,0.0,0.0,0.0,0.0,0.0,0.0,0.0,0.0,0.0,0.0,0.0,0.0,0.0,0.0,-2.1022,-2.0822,-2.0822,-2.0044,-1.9605,-1.953,-1.9546,-1.9918,-2.0547,-2.1008,-2.154,-2.2109,-2.2523,-2.3035,-2.3562,-2.3508,-2.3642,-2.3878,-2.4001,-2.4174,-2.4391,-2.4474,-2.4588,-2.4693,-2.4574,-2.4777,-2.5086,-2.5008,-2.522,-2.5474,-2.5273,-2.5409,-2.5428,-2.4547,-2.4457,-2.4552,-2.4334,-2.3381,-2.2277,-2.1454,-2.0397,-1.9308,-1.8305,-1.7598,-1.6847,-1.5798,-1.5036,-1.4156,-1.289,-1.2261,-1.1505,-1.0265,-0.9474,-0.8698,-0.7859,-0.7063,-0.6308,-0.571,-0.4443,-0.3508,-0.313,-0.1903,-0.1066,-0.084,-0.0449,-0.0168,-0.0112,0.0056,0.0448,0.1174,0.1737,0.224,0.2625,0.2854,0.3081,0.3307,0.3079,0.3074,-1.7451,-1.7289,-1.7142,0.0,0.0,0.0,0.0,0.0,0.0,0.0,0.0,0.0,0.0,0.0,0.0,0.0,0.0,0.0,0.0,0.0,0.0,0.0,0.0,0.0,0.0,0.0,0.0,0.0,0.0,0.0,0.0,0.0,0.0,0.0,-1.9857,-1.9985,-1.9985,-1.9266,-1.8757,-1.8477,-1.7994,-1.8549,-1.9968,-2.0247,-2.0822,-2.1589,-2.1796,-2.2353,-2.3116,-2.3371,-2.362,-2.3795,-2.3702,-2.3846,-2.4117,-2.4391,-2.4476,-2.4379,-2.3712,-2.409,-2.4759,-2.4113,-2.4606,-2.5305,-2.4455,-2.4856,-2.5417,-2.4531,-2.4141,-2.3964,-2.3842,-2.343,-2.2895,-2.217,-2.1285,-2.0159,-1.8634,-1.8438,-1.7689,-1.4659,-1.4124,-1.3696,-1.2171,-1.0876,-1.0043,-0.9834,-0.9051,-0.8224,-0.7568,-0.648,-0.5336,-0.4132,-0.3132,-0.2687,-0.3077,-0.2298,-0.1514,-0.0726,0.0112,0.0505,0.0336,0.0673,0.1621,0.3063,0.2233,0.2681,0.4519,0.3913,0.3749,0.4024,0.4024,0.4187,-1.7256,-1.7339,0.0,0.0,0.0,0.0,0.0,0.0,0.0,0.0,0.0,0.0,0.0,0.0,0.0,0.0,0.0,0.0,0.0,0.0,0.0,0.0,0.0,0.0,0.0,0.0,0.0,0.0,0.0,0.0,0.0,0.0,0.0,0.0,-1.9168,-1.8926,-1.8926,-1.8038,-1.7527,-1.7452,-1.7265,-1.7527,-1.8193,-1.8978,-1.9572,-2.0033,-2.1,-2.1717,-2.2324,-2.2959,-2.3259,-2.3307,-2.3289,-2.3106,-2.289,-2.3354,-2.3117,-2.255,-2.2793,-2.2933,-2.3081,-2.3586,-2.3619,-2.3557,-2.4057,-2.4394,-2.4436,-2.3613,-2.365,-2.3902,-2.3813,-2.2935,-2.1923,-2.137,-2.0815,-1.9977,-1.8473,-1.7338,-1.6086,-1.4483,-1.3302,-1.2229,-1.1065,-1.0376,-0.9608,-0.8606,-0.78,-0.6838,-0.555,-0.4897,-0.4405,-0.4021,-0.3694,-0.353,-0.3641,-0.3317,-0.2303,-0.0559,0.056,0.1121,0.1231,0.1736,0.2516,0.3561,0.3453,0.3895,0.5062,0.4515,0.4353,0.4625,0.4187,0.4187,-1.7158,0.0,0.0,0.0,0.0,0.0,0.0,0.0,0.0,0.0,0.0,0.0,0.0,0.0,0.0,0.0,0.0,0.0,0.0,0.0,0.0,0.0,0.0,0.0,0.0,0.0,0.0,0.0,0.0,0.0,0.0,0.0,0.0,-1.8404,-1.8067,-1.7888,-1.7863,-1.7263,-1.6917,-1.6815,-1.6825,-1.6926,-1.7068,-1.7904,-1.8518,-1.9015,-2.0274,-2.1206,-2.1819,-2.2358,-2.279,-2.3091,-2.2985,-2.261,-2.2184,-2.25,-2.2064,-2.1368,-2.1588,-2.175,-2.195,-2.2469,-2.2578,-2.2631,-2.3263,-2.3562,-2.357,-2.2971,-2.3101,-2.3325,-2.2904,-2.2359,-2.1771,-2.1162,-2.0499,-1.9461,-1.7548,-1.6334,-1.5052,-1.3065,-1.1953,-1.0922,-0.9645,-0.8721,-0.8055,-0.7558,-0.6737,-0.5773,-0.4857,-0.419,-0.3858,-0.3858,-0.3583,-0.336,-0.3183,-0.2972,-0.1905,0.0335,0.1343,0.1961,0.2179,0.2464,0.3074,0.4116,0.4006,0.4501,0.566,0.5226,0.5117,0.5332,0.5058,0.5113,0.0,0.0,0.0,0.0,0.0,0.0,0.0,0.0,0.0,0.0,0.0,0.0,0.0,0.0,0.0,0.0,0.0,0.0,0.0,0.0,0.0,0.0,0.0,0.0,0.0,0.0,0.0,0.0,0.0,0.0,0.0,0.0,-1.7216,-1.6612,-1.6815,-1.6917,-1.686,-1.6834,-1.6696,-1.6474,-1.6633,-1.6633,-1.6501,-1.7027,-1.7667,-1.844,-1.9658,-2.0677,-2.1481,-2.1669,-2.2158,-2.2795,-2.2591,-2.2158,-2.1616,-2.1686,-2.1241,-2.0541,-2.0223,-2.0572,-2.1134,-2.0964,-2.1387,-2.2026,-2.2117,-2.2418,-2.2651,-2.2359,-2.2452,-2.2433,-2.1488,-2.1693,-2.1913,-2.1025,-2.0086,-1.8703,-1.6214,-1.5322,-1.4079,-1.0937,-1.0191,-0.9598,-0.811,-0.6619,-0.5917,-0.6635,-0.5704,-0.4963,-0.4974,-0.4141,-0.353,-0.353,-0.3081,-0.2629,-0.2169,-0.1618,-0.0446,0.1504,0.2404,0.2912,0.3074,0.2968,0.3463,0.4728,0.4281,0.4772,0.6263,0.5991,0.5932,0.6086,0.6308,0.647,0.0,0.0,0.0,0.0,0.0,0.0,0.0,0.0,0.0,0.0,0.0,0.0,0.0,0.0,0.0,0.0,0.0,0.0,0.0,0.0,0.0,0.0,0.0,0.0,0.0,0.0,0.0,0.0,0.0,0.0,0.0,0.0,-1.662,-1.6528,-1.6543,-1.6554,-1.6591,-1.634,-1.6148,0.0,-1.6095,-1.6179,-1.6355,-1.6722,-1.7355,-1.8119,-1.8937,-1.9702,-2.0488,-2.1028,-2.1026,-2.0681,-2.0931,-2.0387,-1.9471,-2.0152,-1.9797,-1.9029,-1.9328,-1.9359,-1.9381,-1.9957,-1.9638,-1.9266,-2.0564,-2.1179,-2.1287,-2.0699,-2.1429,-2.2145,-2.1107,-2.0477,-1.9777,-1.8402,-1.8204,-1.7792,-1.589,-1.3314,-1.111,-1.0049,-0.857,-0.752,-0.7648,-0.6781,-0.5942,-0.5535,-0.4583,-0.395,-0.3904,-0.3471,-0.314,-0.314,-0.3312,-0.3373,-0.3261,0.0223,0.2238,0.1789,0.3079,0.3644,0.313,0.3741,0.4401,0.4995,0.555,0.6209,0.6918,0.6588,0.6529,0.6686,0.6524,0.647,0.0,0.0,0.0,0.0,0.0,0.0,0.0,0.0,0.0,0.0,0.0,0.0,0.0,0.0,0.0,0.0,0.0,0.0,0.0,0.0,0.0,0.0,0.0,0.0,0.0,0.0,0.0,0.0,0.0,0.0,0.0,-1.566,-1.5767,-1.5779,-1.5767,-1.5895,-1.6219,-1.6039,-1.597,-1.597,-1.5885,-1.5942,-1.6067,-1.6409,-1.6892,-1.746,-1.7871,-1.8419,-1.909,-1.9618,-1.9729,-1.9541,-1.976,-1.9536,-1.9093,-1.9048,-1.8857,-1.8611,-1.8483,-1.8297,-1.8258,-1.8996,-1.8484,-1.7844,-1.9305,-1.9612,-1.9406,-1.9079,-2.0238,-2.1273,-1.9933,-1.7945,-1.6422,-1.6967,-1.7105,-1.6284,-1.337,-1.134,-0.9553,-0.7737,-0.6724,-0.6102,-0.5941,-0.5643,-0.5023,-0.3905,-0.3732,-0.363,-0.3355,-0.3137,-0.2972,-0.286,-0.3314,-0.3599,-0.3604,-0.1288,0.0895,0.2577,0.3702,0.4209,0.3925,0.4467,0.4897,0.5105,0.6095,0.6858,0.7402,0.7812,0.7972,0.7812,0.796,0.7913,0.0,0.0,0.0,0.0,0.0,0.0,0.0,0.0,0.0,0.0,0.0,0.0,0.0,0.0,0.0,0.0,0.0,0.0,0.0,0.0,0.0,0.0,0.0,0.0,0.0,0.0,0.0,0.0,0.0,0.0,-1.5012,-1.4875,-1.4814,-1.4799,-1.4747,-1.4992,-1.5538,-1.553,-1.5577,-1.5634,-1.5681,-1.5712,-1.5741,-1.6052,-1.6367,-1.6654,-1.687,-1.7279,-1.7765,-1.8216,-1.8464,-1.863,-1.8687,-1.882,-1.8833,-1.8076,-1.8074,-1.8343,-1.7693,-1.7336,-1.7294,-1.7899,-1.739,-1.6778,-1.8003,-1.8067,-1.7715,-1.7751,-1.9009,-1.981,-1.7346,-1.4387,-1.2328,-1.3557,-1.3785,-1.2979,-1.0278,-0.9441,-0.8268,-0.5132,-0.4871,-0.4851,-0.3759,-0.3903,-0.3717,-0.2389,-0.276,-0.3164,-0.3113,-0.2907,-0.2749,-0.2691,-0.303,-0.32,-0.2977,-0.2979,-0.1176,0.303,0.3987,0.4438,0.4556,0.4919,0.5175,0.5218,0.6303,0.7176,0.783,0.904,0.9354,0.8928,0.9658,0.9666,0.0,0.0,0.0,0.0,0.0,0.0,0.0,0.0,0.0,0.0,0.0,0.0,0.0,0.0,0.0,0.0,0.0,0.0,0.0,0.0,0.0,0.0,0.0,0.0,0.0,0.0,0.0,0.0,0.0,0.0,-1.4836,-1.427,-1.398,-1.4066,-1.3771,-1.379,-1.4162,-1.4179,-1.4285,-1.4527,-1.5096,-1.5359,-1.5389,-1.5726,-1.5913,-1.6057,-1.6652,-1.697,-1.7076,-1.7713,-1.7606,-1.7031,-1.7374,-1.7189,-1.6741,-1.6844,-1.6943,-1.7046,-1.6933,-1.6507,-1.607,-1.6324,-1.5674,-1.4993,-1.6309,-1.7008,-1.733,-1.7153,-1.7841,-1.7294,-1.1424,-0.9407,-0.7583,-0.2384,-0.2684,-0.5062,-0.8474,-0.7967,-0.6067,-0.341,-0.3231,-0.3073,-0.1578,-0.1977,-0.2405,-0.2069,-0.0995,-0.107,-0.3212,-0.2589,-0.2132,-0.2635,-0.2296,-0.1623,-0.056,-0.0502,0.0223,0.1958,0.3299,0.3919,0.3538,0.4629,0.5445,0.5773,0.6745,0.761,0.8315,0.9197,0.9562,0.951,1.0312,1.0364,0.0,0.0,0.0,0.0,0.0,0.0,0.0,0.0,0.0,0.0,0.0,0.0,0.0,0.0,0.0,0.0,0.0,0.0,0.0,0.0,0.0,0.0,0.0,0.0,0.0,0.0,0.0,0.0,0.0,-1.4494,-1.373,-1.3391,-1.325,-1.3284,-1.2991,-1.3077,-1.3612,-1.3466,-1.3615,-1.4084,-1.4385,-1.467,-1.5027,-1.5163,-1.5254,-1.5328,-1.598,-1.6174,-1.6054,-1.6503,-1.6518,-1.6218,-1.6394,-1.6655,-1.6853,-1.6413,-1.6725,-1.7242,-1.6307,-1.5741,-1.5436,-1.5286,-1.4621,-1.4056,-1.5168,-1.5716,-1.5927,-1.5748,-1.6717,-1.6336,-0.997,-0.622,-0.324,0.0158,0.2729,0.3158,-0.1478,-0.1971,-0.0985,0.0794,0.1021,0.0582,-0.046,-0.0515,-0.0419,-0.0441,0.0363,0.0584,-0.0529,-0.0601,-0.0838,-0.1621,-0.1734,-0.0783,0.1797,0.2018,0.224,0.2747,0.3641,0.4036,0.3816,0.5984,0.6981,0.6578,0.7283,0.8283,0.9533,1.0167,1.0626,1.0864,1.1216,1.1065,0.0,0.0,0.0,0.0,0.0,0.0,0.0,0.0,0.0,0.0,0.0,0.0,0.0,0.0,0.0,0.0,0.0,0.0,0.0,0.0,0.0,0.0,0.0,0.0,0.0,0.0,0.0,0.0,0.0,-1.4008,-1.2766,-1.259,-1.2477,-1.2361,-1.2158,-1.2293,-1.2798,-1.2694,-1.3025,-1.378,-1.378,-1.4042,-1.456,-1.4732,-1.4669,-1.4479,-1.5224,-1.5403,-1.5179,-1.5433,-1.5595,-1.5668,-1.558,-1.6098,-1.6766,-1.5934,-1.618,-1.6737,-1.5487,-1.4801,-1.4445,-1.4272,-1.3586,-1.3034,-1.4243,-1.4504,-1.4428,-1.4531,-1.5185,-1.4472,-0.8416,-0.3865,-0.0116,0.274,0.6382,0.8157,0.4321,0.3425,0.3822,0.5299,0.5569,0.4933,0.2905,0.236,0.1983,0.1414,0.1568,0.1653,0.1342,0.1117,0.06,-0.0275,-0.0828,-0.0,0.2923,0.3093,0.3261,0.3593,0.3872,0.4092,0.4317,0.6998,0.8477,0.8403,0.8743,0.9423,1.0399,1.1266,1.1774,1.2012,1.2346,1.2197,0.0,0.0,0.0,0.0,0.0,0.0,0.0,0.0,0.0,0.0,0.0,0.0,0.0,0.0,0.0,0.0,0.0,0.0,0.0,0.0,0.0,0.0,0.0,0.0,0.0,0.0,0.0,0.0,0.0,-1.3441,-1.2483,-1.2067,-1.1652,-1.1197,-1.1174,-1.1179,-1.1207,-1.1509,-1.2266,-1.3424,-1.3424,-1.357,-1.3861,-1.4515,-1.4305,-1.3514,-1.4433,-1.4825,-1.4839,-1.4825,-1.5041,-1.5285,-1.498,-1.5086,-1.5358,-1.4994,-1.47,-1.4483,-1.4382,-1.3551,-1.2623,-1.3031,-1.2306,-1.1595,-1.3548,-1.362,-1.3176,-1.399,-1.3,-1.0437,-0.4876,-0.2194,0.1083,0.8957,0.9342,0.7491,0.5966,0.6017,0.7006,0.9184,0.9604,0.9821,1.0576,0.7764,0.4847,0.3059,0.2557,0.1912,0.0715,0.1634,0.2058,0.1167,0.0798,0.0917,0.184,0.1786,0.2232,0.3527,0.3527,0.3802,0.4636,0.6947,0.9413,1.1963,1.1859,1.1323,1.0395,1.2132,1.2822,1.2609,1.3794,1.4121,0.0,0.0,0.0,0.0,0.0,0.0,0.0,0.0,0.0,0.0,0.0,0.0,0.0,0.0,0.0,0.0,0.0,0.0,0.0,0.0,0.0,0.0,0.0,0.0,0.0,0.0,0.0,0.0,0.0,0.0,-1.1632,-1.1431,-1.127,-1.1108,-1.092,-1.0753,-1.0597,-1.0698,-1.1335,-1.2515,-1.2515,-1.2852,-1.3568,-1.3782,-1.3615,-1.3104,-1.3433,-1.3914,-1.4493,-1.4714,-1.4856,-1.498,-1.4856,-1.4735,-1.4662,-1.4749,-1.4595,-1.4214,-1.3601,-1.3359,-1.3175,-1.2337,-1.1809,-1.1724,-1.2941,-1.2955,-1.2719,-1.3737,-1.2936,-1.0532,-0.5057,-0.1701,0.2441,1.1116,1.1357,1.0274,1.2762,1.1027,0.9851,1.2854,1.3509,1.3044,1.1448,1.173,1.1333,0.8809,0.6817,0.5458,0.4999,0.5394,0.4897,0.2824,0.2592,0.2668,0.2932,0.2798,0.2912,0.3413,0.3302,0.4273,0.6719,0.9383,1.1669,1.3598,1.5504,1.5295,1.3037,1.306,1.3263,1.3484,1.4179,1.4323,0.0,0.0,0.0,0.0,0.0,0.0,0.0,0.0,0.0,0.0,0.0,0.0,0.0,0.0,0.0,0.0,0.0,0.0,0.0,0.0,0.0,0.0,0.0,0.0,0.0,0.0,0.0,0.0,0.0,0.0,-1.1329,-1.115,-1.1062,-1.0968,-1.0705,-1.0449,-1.0186,-1.0274,-1.0676,-1.142,-1.1728,-1.2183,-1.2762,-1.3085,-1.3069,-1.2756,-1.2861,-1.3242,-1.3848,-1.4065,-1.4292,-1.4452,-1.4227,-1.4117,-1.4076,-1.4149,-1.3872,-1.3425,-1.282,-1.2804,-1.2887,-1.1813,-1.1335,-1.1374,-1.2295,-1.2005,-1.1638,-1.2887,-1.1861,-0.9595,-0.6082,-0.1643,0.3657,1.041,1.1973,1.2867,1.6376,1.4291,1.2712,1.5994,1.6822,1.6328,1.4269,1.4937,1.5078,1.3098,1.0463,0.8806,0.9119,0.9138,0.859,0.7113,0.5897,0.5773,0.7095,0.5884,0.509,0.5186,0.5027,0.6021,0.8468,1.1069,1.3649,1.6095,1.8258,1.8375,1.6414,1.5223,1.4722,1.4835,1.5285,1.5165,0.0,0.0,0.0,0.0,0.0,0.0,0.0,0.0,0.0,0.0,0.0,0.0,0.0,0.0,0.0,0.0,0.0,0.0,0.0,0.0,0.0,0.0,0.0,0.0,0.0,0.0,0.0,0.0,-1.3416,-1.2525,-1.1627,-1.1266,-1.0958,-1.0681,-1.0437,-1.0212,-0.9995,-1.0186,-1.0287,-1.0326,-1.1186,-1.1547,-1.1511,-1.2432,-1.272,-1.2461,-1.2756,-1.2861,-1.2861,-1.2896,-1.3251,-1.3729,-1.3113,-1.3148,-1.3509,-1.3057,-1.2472,-1.1907,-1.2021,-1.1858,-1.158,-1.1415,-1.0814,-1.0374,-1.1519,-1.0785,-0.9877,-1.1404,-0.9599,-0.7237,-0.7407,-0.1767,0.4631,0.7183,1.1159,1.4746,1.6082,1.5464,1.5531,1.8503,1.9411,1.9632,1.9508,1.7375,1.568,1.5536,1.3179,1.1726,1.2606,1.2599,1.2904,1.3899,1.0804,1.0256,1.406,1.0874,0.8767,0.8965,0.8784,0.9072,0.9956,1.203,1.5237,1.9645,2.0118,2.028,2.0267,1.8564,1.7275,1.6456,1.719,1.6853,-1.4387,0.0,0.0,0.0,0.0,0.0,-1.3234,-1.3688,0.0,0.0,0.0,0.0,0.0,0.0,0.0,0.0,0.0,0.0,0.0,0.0,0.0,0.0,0.0,0.0,0.0,0.0,0.0,0.0,-1.3009,-1.2224,-1.1375,-1.103,-1.0625,-1.0072,-1.0307,-1.0173,-0.9633,-0.9802,-0.9995,-1.0298,-1.0888,-1.12,-1.1308,-1.1895,-1.2018,-1.1774,-1.1847,-1.1872,-1.1909,-1.2449,-1.2766,-1.2894,-1.2591,-1.2449,-1.239,-1.2449,-1.2248,-1.1827,-1.1334,-1.1272,-1.1305,-1.0825,-1.0002,-0.9429,-1.0816,-1.0247,-0.9223,-0.9782,-0.8638,-0.6317,-0.248,0.106,0.4578,0.8405,1.0598,1.2568,1.5308,1.5932,1.6514,1.8377,1.8984,1.9161,1.9089,1.8584,1.827,1.8482,1.6009,1.4487,1.5504,1.551,1.5044,1.404,1.492,1.5241,1.4463,1.3293,1.2678,1.276,1.2648,1.3716,1.6328,1.7005,1.9031,2.265,2.2579,2.2318,2.191,1.9568,1.8047,1.7263,1.7531,1.7353,0.0,0.0,0.0,0.0,0.0,0.0,-1.288,-1.3345,-1.3724,0.0,0.0,0.0,0.0,0.0,0.0,0.0,0.0,0.0,0.0,0.0,0.0,0.0,0.0,0.0,0.0,0.0,0.0,-1.3816,-1.2917,-1.1864,-1.0731,-1.0509,-1.018,-0.9617,-0.9843,-0.9773,-0.9251,-0.9434,-0.9536,-0.9511,-1.034,-1.0608,-1.0387,-1.1123,-1.1364,-1.1231,-1.1231,-1.1341,-1.1516,-1.1715,-1.2006,-1.2306,-1.2054,-1.1909,-1.1799,-1.1909,-1.1763,-1.1402,-1.0917,-1.0941,-1.1047,-1.0214,-0.9487,-0.9095,-0.9667,-0.9,-0.8079,-0.839,-0.7107,-0.4586,-0.0216,0.2264,0.4566,0.8521,1.0305,1.1803,1.4424,1.5684,1.6676,1.8014,1.8537,1.877,1.8699,1.8889,1.9146,1.9341,1.7956,1.7412,1.8833,1.8943,1.8786,1.8489,1.8653,1.8816,1.8816,1.7383,1.6512,1.6552,1.6479,1.7311,1.9253,1.9342,2.0969,2.4506,2.4161,2.3639,2.2998,2.1081,1.9596,1.8582,1.8289,1.797,0.0,0.0,0.0,0.0,0.0,0.0,-1.2433,-1.283,-1.3025,0.0,0.0,0.0,0.0,0.0,0.0,0.0,0.0,0.0,0.0,0.0,0.0,0.0,0.0,0.0,0.0,-1.4342,-1.4189,-1.4157,-1.2877,-1.1507,-1.0049,-1.002,-0.9834,-0.9407,-0.9426,-0.9304,-0.9001,-0.9246,-0.9107,-0.8581,-0.9779,-0.9947,-0.9264,-1.0275,-1.0721,-1.0686,-1.0786,-1.0999,-1.1292,-1.0829,-1.1132,-1.1799,-1.1479,-1.1394,-1.1468,-1.1404,-1.1153,-1.0833,-1.0598,-1.0644,-1.0596,-0.9527,-0.907,-0.8846,-0.8295,-0.7503,-0.6766,-0.6949,-0.5077,-0.2368,0.0479,0.2531,0.4734,0.7997,1.0101,1.1826,1.352,1.4902,1.6204,1.7402,1.7996,1.8338,1.8356,1.859,1.884,1.8857,1.9152,1.9994,2.1826,2.2118,2.2824,2.4591,2.1952,2.1418,2.474,2.2137,2.0307,2.0322,2.0311,2.0333,2.0397,2.0407,2.2016,2.5426,2.4973,2.4369,2.3687,2.2693,2.1528,2.0237,1.9415,1.8846,0.0,0.0,0.0,0.0,0.0,0.0,-1.1616,-1.1802,-1.1981,0.0,0.0,0.0,0.0,0.0,0.0,0.0,0.0,0.0,0.0,0.0,0.0,0.0,0.0,0.0,0.0,-1.352,-1.3568,-1.3204,-1.2234,-1.1296,-1.0498,-1.0717,-1.0575,-0.9955,-1.0245,-1.0157,-0.9616,-0.9786,-0.9754,-0.9531,-0.9777,-0.9755,-0.9462,-1.0047,-1.019,-1.0021,-1.0619,-1.0674,-1.0283,-1.0418,-1.0812,-1.1287,-1.0802,-1.0611,-1.0649,-1.0611,-1.0572,-1.0417,-0.9771,-0.9543,-0.9376,-0.8776,-0.7994,-0.7361,-0.7769,-0.7155,-0.5983,-0.4393,-0.2358,-0.0176,0.1928,0.3771,0.5647,0.7568,0.9355,1.1045,1.2688,1.406,1.5301,1.646,1.6963,1.7363,1.7915,1.8146,1.8373,1.8681,1.9252,2.0154,2.1678,2.2227,2.3052,2.4495,2.4022,2.4038,2.5067,2.4529,2.4154,2.4199,2.4161,2.416,2.4217,2.4225,2.4637,2.5472,2.4979,2.4546,2.4228,2.3217,2.2444,2.1831,2.1398,2.0862,0.0,0.0,0.0,-1.3262,0.0,0.0,0.0,-1.1423,-1.114,-1.0944,0.0,0.0,0.0,0.0,0.0,0.0,0.0,0.0,0.0,0.0,0.0,0.0,0.0,0.0,0.0,-1.2355,-1.2349,-1.1941,-1.1664,-1.1215,-1.0441,-1.0556,-1.0401,-0.9818,-0.9997,-0.9974,-0.9642,-0.9709,-0.9709,-0.9642,-0.9543,-0.9509,-0.9486,-0.9461,-0.9576,-0.9794,-1.0022,-1.005,-0.998,-0.9961,-1.0196,-1.0564,-1.0322,-1.0205,-1.0205,-1.0205,-1.0205,-1.0128,-0.9571,-0.919,-0.8794,-0.8142,-0.7393,-0.6739,-0.6571,-0.5706,-0.4405,-0.2863,-0.1059,0.0752,0.2115,0.3959,0.5839,0.7272,0.902,1.076,1.2095,1.3446,1.4696,1.5762,1.6177,1.6684,1.7555,1.7883,1.8142,1.8417,1.8865,1.959,2.0806,2.1662,2.2575,2.367,2.4345,2.4766,2.4937,2.513,2.5264,2.5293,2.5271,2.5294,2.5395,2.5403,2.5444,2.5557,2.5187,2.4949,2.4849,2.4141,2.339,2.2591,2.2427,2.2033,0.0,0.0,0.0,0.0,0.0,-1.1012,0.0,0.0,0.0,-1.0143,0.0,0.0,0.0,0.0,0.0,0.0,0.0,0.0,0.0,0.0,0.0,0.0,0.0,0.0,0.0,-1.1216,-1.103,-1.0776,-1.1036,-1.0852,-1.0122,-1.0149,-1.0035,-0.9654,-0.9726,-0.9777,-0.9777,-0.9699,-0.9664,-0.9664,-0.9287,-0.9213,-0.9429,-0.8921,-0.9034,-0.9602,-0.9468,-0.9592,-0.9783,-0.9527,-0.9567,-0.9823,-0.9902,-0.9902,-0.9862,-0.9862,-0.9823,-0.9725,-0.9318,-0.8939,-0.8415,-0.7568,-0.6884,-0.6209,-0.526,-0.4125,-0.2934,-0.1866,-0.0355,0.1196,0.2253,0.4006,0.5876,0.73,0.905,1.0668,1.1721,1.3029,1.4264,1.5049,1.5549,1.6154,1.7256,1.7681,1.7944,1.8082,1.8453,1.9027,1.9899,2.0934,2.1935,2.285,2.3889,2.4549,2.4704,2.5049,2.5243,2.5243,2.5273,2.533,2.5463,2.551,2.5547,2.5576,2.543,2.5328,2.5292,2.4969,2.4223,2.314,2.3111,2.2832,0.0,0.0,0.0,0.0,-1.2214,0.0,0.0,0.0,-0.9779,-0.9692,0.0,0.0,0.0,0.0,0.0,0.0,0.0,0.0,0.0,0.0,0.0,0.0,0.0,0.0,0.0,0.0,-1.0231,-1.0189,-0.9914,-0.9711,-0.9592,-0.9973,-1.018,-1.0118,-1.052,-1.0726,-1.0726,-1.0442,-1.0318,-1.0298,-0.924,-0.8945,-0.9307,-0.8882,-0.8788,-0.8939,-0.9619,-0.9619,-0.9136,-0.9217,-0.9177,-0.9136,-0.9448,-0.9448,-0.9297,-0.9297,-0.9119,-0.8859,-0.8273,-0.8087,-0.7937,-0.6947,-0.5973,-0.5048,-0.4132,-0.3473,-0.2719,-0.1246,0.0089,0.1504,0.3437,0.4712,0.601,0.7993,0.94,1.0572,1.1589,1.2787,1.3769,1.4168,1.4957,1.5887,1.6969,1.732,1.7526,1.7732,1.8557,1.9265,1.9688,2.0586,2.1596,2.2703,2.3155,2.3752,2.4705,2.4949,2.5031,2.5031,2.5153,2.5236,2.5329,2.5488,2.5564,2.5506,2.5544,2.5451,2.5216,2.5239,2.4836,2.4045,2.387,2.3516,0.0,0.0,0.0,0.0,0.0,0.0,0.0,0.0,-1.0231,0.0,0.0,0.0,0.0,0.0,0.0,0.0,-0.8689,0.0,0.0,0.0,0.0,0.0,0.0,0.0,0.0,0.0,0.0,0.0,-1.0032,-1.0179,-1.0543,-1.0082,-0.9922,-1.019,-1.023,-1.0368,-1.0631,-1.0322,-1.0166,-1.0157,-0.9254,-0.9115,-0.9667,-0.894,-0.8819,-0.9196,-0.9345,-0.9217,-0.8846,-0.8886,-0.8814,-0.8651,-0.8602,-0.8724,-0.8886,-0.857,-0.8488,-0.8456,-0.7772,-0.7476,-0.7231,-0.6032,-0.4971,-0.4045,-0.3385,-0.2677,-0.1741,-0.0044,0.0977,0.2089,0.4029,0.5168,0.6112,0.7335,0.9041,1.0548,1.101,1.2425,1.3702,1.4025,1.4696,1.5433,1.6157,1.6834,1.7337,1.7439,1.8037,1.8508,1.8676,2.0093,2.1248,2.1754,2.2922,2.3858,2.4348,2.4762,2.5025,2.5069,2.5231,2.5341,2.5417,2.5506,2.557,2.5624,2.5609,2.5532,2.5428,2.5339,2.5141,2.4829,2.4557,2.4314,-1.4584,0.0,0.0,0.0,0.0,0.0,0.0,0.0,0.0,0.0,0.0,0.0,0.0,0.0,0.0,0.0,0.0,-0.8657,0.0,0.0,0.0,0.0,0.0,0.0,0.0,0.0,0.0,-0.992,-1.0073,-1.0283,-1.0553,-0.9831,-0.9553,-0.9773,-0.9724,-0.9881,-1.0302,-1.001,-0.9853,-0.9853,-0.9129,-0.9109,-0.9686,-0.8853,-0.8811,-0.9368,-0.9096,-0.8895,-0.8675,-0.8643,-0.8529,-0.8332,-0.7878,-0.7987,-0.8308,-0.7821,-0.7728,-0.7754,-0.7118,-0.6686,-0.6167,-0.5065,-0.4089,-0.3252,-0.2719,-0.1786,-0.0625,0.0711,0.1733,0.2802,0.4303,0.5389,0.6337,0.7133,0.873,1.0186,1.0664,1.2021,1.3238,1.3583,1.4333,1.5015,1.5345,1.6278,1.7052,1.7175,1.7499,1.7749,1.7832,1.9221,2.0414,2.0923,2.2341,2.349,2.4044,2.4532,2.4877,2.5069,2.5212,2.5322,2.539,2.5423,2.5492,2.5586,2.5605,2.5597,2.5609,2.5447,2.5376,2.536,2.5027,2.4845,0.0,0.0,0.0,-1.4004,0.0,0.0,0.0,0.0,-1.0898,0.0,0.0,0.0,0.0,0.0,0.0,-0.9024,0.0,0.0,0.0,0.0,0.0,0.0,0.0,0.0,0.0,0.0,0.0,-0.9714,-0.9661,-0.9357,-0.8706,-0.9091,-0.914,-0.878,-0.919,-0.962,-1.0019,-0.9686,-0.9518,-0.9518,-0.8814,-0.8686,-0.9007,-0.866,-0.8695,-0.9016,-0.9016,-0.8895,-0.8675,-0.8488,-0.8414,-0.8332,-0.7545,-0.737,-0.7482,-0.7147,-0.6765,-0.6323,-0.6053,-0.5383,-0.4615,-0.4105,-0.3393,-0.263,-0.2186,-0.0936,0.0401,0.0623,0.2129,0.3767,0.4283,0.546,0.6803,0.8074,0.8673,0.9358,1.0847,1.1594,1.2056,1.2449,1.3703,1.4696,1.4634,1.5679,1.6617,1.686,1.7134,1.7344,1.7408,1.7883,1.8818,2.0438,2.1067,2.2129,2.395,2.4228,2.4514,2.4962,2.5006,2.5043,2.5115,2.5244,2.5304,2.5303,2.5508,2.5605,2.5609,2.5595,2.559,2.5586,2.5178,2.4924,0.0,0.0,-1.3864,-1.4,0.0,0.0,0.0,0.0,0.0,0.0,0.0,0.0,0.0,0.0,-0.934,-0.9043,-0.888,0.0,0.0,0.0,0.0,0.0,0.0,0.0,0.0,0.0,0.0,-1.039,-0.9952,-0.9641,-0.9599,-0.923,-0.8889,-0.858,-0.8712,-0.9082,-0.9646,-0.9328,-0.9177,-0.9177,-0.8927,-0.8896,-0.9016,-0.8887,-0.8896,-0.8975,-0.8741,-0.8447,-0.816,-0.7773,-0.7482,-0.7231,-0.6732,-0.6562,-0.6647,-0.652,-0.65,-0.6464,-0.575,-0.4942,-0.4155,-0.3355,-0.2702,-0.2068,-0.124,-0.0401,0.0489,0.1468,0.2706,0.3942,0.5038,0.6076,0.7098,0.8203,0.9147,0.9973,1.0829,1.1542,1.2162,1.2615,1.3462,1.4237,1.4738,1.5536,1.6191,1.6474,1.685,1.7126,1.7264,1.8408,1.9556,2.0443,2.1668,2.2754,2.3631,2.4118,2.4511,2.4839,2.4981,2.508,2.5115,2.5143,2.5235,2.5362,2.5429,2.5528,2.5663,2.566,2.5642,2.5605,2.546,2.5357,-1.3796,-1.3681,0.0,-1.3746,-1.3289,0.0,-1.2462,0.0,0.0,0.0,0.0,0.0,0.0,0.0,0.0,-0.9043,-0.8857,-0.8702,0.0,-0.8392,0.0,0.0,0.0,0.0,0.0,0.0,-1.0015,-1.0655,-1.0372,-1.002,0.0,0.0,-0.8764,-0.8087,-0.82,-0.8545,-0.9199,-0.8935,-0.8854,-0.9016,-0.8935,-0.8935,-0.9016,-0.9016,-0.9016,-0.8975,-0.8578,-0.8201,-0.7912,-0.7391,-0.7021,-0.6732,-0.6349,-0.6184,-0.6184,-0.6056,-0.595,-0.5777,-0.5099,-0.4347,-0.3544,-0.2796,-0.2029,-0.1207,-0.0398,0.0446,0.1378,0.2532,0.3504,0.4474,0.5739,0.6598,0.7321,0.8111,0.9062,0.9884,1.0331,1.1223,1.2054,1.2508,1.3306,1.409,1.4658,1.5329,1.587,1.6163,1.6517,1.6763,1.6926,1.8273,1.9469,2.0176,2.1604,2.2775,2.3473,2.3967,2.4364,2.4655,2.479,2.491,2.4968,2.5031,2.4996,2.4841,2.5221,2.5315,2.5177,2.5494,2.5644,2.5631,2.5632,2.561]},{"header":{"parameterUnit":"m.s-1","parameterCategory":1,"la1":30.6,"la2":29.2853,"lo1":-89.7004,"lo2":-87.6739,"dy":0.0162,"dx":0.0183,"nx":112,"ny":82,"refTime":"2023-10-21T06:00:00:Z","depth":0,"parameterNumber":3,"parameterNumberName":"V-component_of_WINDS"},"data":[0.0,0.0,0.0,0.0,0.0,0.0,0.0,0.0,0.0,0.0,0.0,0.0,0.0,0.0,0.0,0.0,0.0,0.0,0.0,0.0,0.0,0.0,0.0,0.0,0.0,0.0,0.0,0.0,0.0,0.0,0.0,0.0,0.0,0.0,0.0,0.0,0.0,0.0,0.0,0.0,0.0,0.0,0.0,0.0,0.0,0.0,0.0,0.0,0.0,0.0,0.0,0.0,0.0,0.0,0.0,0.0,0.0,0.0,0.0,0.0,0.0,0.0,0.0,0.0,0.0,0.0,0.0,0.0,0.0,0.0,0.0,0.0,0.0,0.0,0.0,0.0,0.0,0.0,0.0,0.0,0.0,0.0,0.0,0.0,0.0,0.0,0.0,0.0,0.0,0.0,0.0,-2.2245,-2.5738,-2.7217,-2.5745,-2.3766,-2.0901,-1.6882,0.0,0.0,0.0,0.0,0.0,0.0,0.0,0.0,0.0,0.0,0.0,0.0,0.0,0.0,0.0,0.0,0.0,0.0,0.0,0.0,0.0,0.0,0.0,0.0,0.0,0.0,0.0,0.0,0.0,0.0,0.0,0.0,0.0,0.0,0.0,0.0,0.0,0.0,0.0,0.0,0.0,0.0,0.0,0.0,0.0,0.0,0.0,0.0,0.0,0.0,0.0,0.0,0.0,0.0,0.0,0.0,0.0,0.0,0.0,0.0,0.0,0.0,0.0,0.0,0.0,0.0,0.0,0.0,0.0,0.0,0.0,0.0,0.0,0.0,0.0,0.0,0.0,0.0,0.0,0.0,0.0,0.0,0.0,0.0,0.0,0.0,0.0,0.0,0.0,0.0,0.0,0.0,0.0,0.0,0.0,0.0,0.0,0.0,0.0,0.0,0.0,0.0,0.0,0.0,-1.9578,-2.4454,-2.6134,-2.6572,-2.5746,-2.2723,-1.996,-1.7811,0.0,0.0,0.0,0.0,0.0,0.0,0.0,0.0,0.0,0.0,0.0,0.0,0.0,0.0,0.0,0.0,0.0,0.0,0.0,0.0,0.0,0.0,0.0,0.0,0.0,0.0,0.0,0.0,0.0,0.0,0.0,0.0,0.0,0.0,0.0,0.0,0.0,0.0,0.0,0.0,0.0,0.0,0.0,0.0,0.0,0.0,0.0,0.0,0.0,0.0,0.0,0.0,0.0,0.0,0.0,0.0,0.0,0.0,0.0,0.0,0.0,0.0,0.0,0.0,0.0,0.0,0.0,0.0,0.0,0.0,0.0,0.0,0.0,0.0,0.0,0.0,0.0,0.0,0.0,0.0,0.0,0.0,0.0,0.0,0.0,0.0,0.0,0.0,0.0,0.0,0.0,0.0,0.0,0.0,0.0,0.0,0.0,0.0,0.0,0.0,0.0,0.0,0.0,-1.8498,-2.1295,-2.5732,-2.6572,-2.6315,-2.5102,-2.2235,-1.9735,-1.7915,-1.6319,0.0,0.0,0.0,0.0,0.0,0.0,0.0,0.0,0.0,0.0,0.0,0.0,0.0,0.0,0.0,0.0,0.0,0.0,0.0,0.0,0.0,0.0,0.0,0.0,0.0,0.0,0.0,0.0,0.0,0.0,0.0,0.0,0.0,0.0,0.0,0.0,0.0,0.0,0.0,0.0,0.0,0.0,0.0,0.0,0.0,0.0,0.0,0.0,0.0,0.0,0.0,0.0,0.0,0.0,0.0,0.0,0.0,0.0,0.0,0.0,0.0,0.0,0.0,0.0,0.0,0.0,0.0,0.0,0.0,0.0,0.0,0.0,0.0,0.0,0.0,0.0,0.0,0.0,0.0,0.0,0.0,0.0,0.0,0.0,0.0,0.0,0.0,0.0,0.0,0.0,0.0,0.0,0.0,0.0,0.0,0.0,0.0,0.0,0.0,0.0,0.0,0.0,-2.0328,-2.2429,-2.5576,-2.5954,-2.5377,-2.3907,-2.1554,-1.9435,-1.7761,-1.5659,0.0,0.0,0.0,0.0,0.0,0.0,0.0,0.0,0.0,0.0,0.0,0.0,0.0,0.0,0.0,0.0,0.0,0.0,0.0,0.0,0.0,0.0,0.0,0.0,0.0,0.0,0.0,0.0,0.0,0.0,0.0,0.0,0.0,0.0,0.0,0.0,0.0,0.0,0.0,0.0,0.0,0.0,0.0,0.0,0.0,0.0,0.0,0.0,0.0,0.0,0.0,0.0,0.0,0.0,0.0,0.0,0.0,0.0,0.0,0.0,0.0,0.0,0.0,0.0,0.0,0.0,0.0,0.0,0.0,0.0,0.0,0.0,0.0,0.0,0.0,0.0,0.0,0.0,0.0,0.0,0.0,0.0,0.0,0.0,0.0,0.0,0.0,0.0,0.0,0.0,0.0,0.0,0.0,0.0,0.0,0.0,0.0,0.0,0.0,0.0,0.0,0.0,-2.0257,-2.2067,-2.3143,-2.3265,-2.2926,-2.2068,-2.0203,-1.8645,-1.7589,-1.5963,0.0,0.0,0.0,0.0,0.0,0.0,0.0,0.0,0.0,0.0,0.0,0.0,0.0,0.0,0.0,0.0,0.0,0.0,0.0,0.0,0.0,0.0,0.0,0.0,0.0,0.0,0.0,0.0,0.0,0.0,0.0,0.0,0.0,0.0,0.0,0.0,0.0,0.0,0.0,0.0,0.0,0.0,0.0,0.0,0.0,0.0,0.0,0.0,0.0,0.0,0.0,0.0,0.0,0.0,0.0,0.0,0.0,0.0,0.0,0.0,0.0,0.0,0.0,0.0,0.0,0.0,0.0,0.0,0.0,0.0,0.0,0.0,0.0,0.0,0.0,0.0,0.0,0.0,0.0,0.0,0.0,0.0,0.0,0.0,0.0,0.0,0.0,0.0,0.0,0.0,0.0,0.0,0.0,0.0,0.0,0.0,0.0,0.0,0.0,0.0,0.0,0.0,-1.9447,-2.1221,0.0,-2.3062,-2.2492,-2.1104,-1.9385,-1.7952,-1.6948,0.0,0.0,0.0,0.0,0.0,0.0,0.0,0.0,0.0,0.0,0.0,0.0,0.0,0.0,0.0,0.0,0.0,0.0,0.0,0.0,0.0,0.0,0.0,0.0,0.0,0.0,0.0,0.0,0.0,0.0,0.0,0.0,0.0,0.0,0.0,0.0,0.0,0.0,0.0,0.0,0.0,0.0,0.0,0.0,0.0,0.0,0.0,0.0,0.0,0.0,0.0,0.0,0.0,0.0,0.0,0.0,0.0,0.0,0.0,0.0,0.0,0.0,0.0,0.0,0.0,0.0,0.0,0.0,0.0,0.0,0.0,0.0,0.0,0.0,0.0,0.0,0.0,0.0,0.0,0.0,0.0,0.0,0.0,0.0,0.0,0.0,0.0,0.0,0.0,0.0,0.0,0.0,0.0,0.0,0.0,0.0,0.0,0.0,0.0,0.0,0.0,0.0,-1.7365,-1.8801,-2.0342,0.0,-2.2269,-2.1675,-2.0207,-1.8492,-1.7189,-1.6475,0.0,0.0,0.0,0.0,0.0,0.0,0.0,0.0,0.0,0.0,0.0,0.0,0.0,0.0,0.0,0.0,0.0,0.0,0.0,0.0,0.0,0.0,0.0,0.0,0.0,0.0,0.0,0.0,0.0,0.0,0.0,0.0,0.0,0.0,0.0,0.0,0.0,0.0,0.0,0.0,0.0,0.0,0.0,0.0,0.0,0.0,0.0,0.0,0.0,0.0,0.0,0.0,0.0,0.0,0.0,0.0,0.0,0.0,0.0,0.0,0.0,0.0,0.0,0.0,0.0,0.0,0.0,0.0,0.0,0.0,0.0,0.0,0.0,0.0,0.0,0.0,0.0,0.0,0.0,0.0,0.0,0.0,0.0,0.0,0.0,0.0,0.0,0.0,0.0,0.0,0.0,0.0,0.0,0.0,0.0,0.0,0.0,0.0,0.0,0.0,0.0,0.0,-1.7382,-1.8496,-1.9521,-2.0419,-2.0497,-2.0128,-1.9249,-1.7458,-1.6343,0.0,0.0,0.0,0.0,0.0,0.0,0.0,0.0,0.0,0.0,0.0,0.0,0.0,0.0,0.0,0.0,0.0,0.0,0.0,0.0,0.0,0.0,0.0,0.0,0.0,0.0,0.0,0.0,0.0,0.0,0.0,0.0,0.0,0.0,0.0,0.0,0.0,0.0,0.0,0.0,0.0,0.0,0.0,0.0,0.0,0.0,0.0,0.0,0.0,0.0,0.0,0.0,0.0,0.0,0.0,0.0,0.0,0.0,0.0,0.0,0.0,0.0,0.0,0.0,0.0,0.0,0.0,0.0,0.0,0.0,0.0,0.0,0.0,0.0,0.0,0.0,0.0,0.0,0.0,0.0,0.0,0.0,0.0,0.0,0.0,0.0,0.0,0.0,0.0,0.0,0.0,0.0,0.0,0.0,0.0,0.0,0.0,0.0,0.0,0.0,0.0,0.0,0.0,-1.7045,-1.8283,-1.9469,-2.033,-1.987,-1.893,-1.7482,-1.565,-1.4653,-1.4869,0.0,0.0,0.0,0.0,0.0,0.0,0.0,0.0,0.0,0.0,0.0,0.0,0.0,0.0,0.0,0.0,0.0,0.0,0.0,0.0,0.0,0.0,0.0,0.0,0.0,0.0,0.0,0.0,0.0,0.0,0.0,0.0,0.0,0.0,0.0,0.0,0.0,0.0,0.0,0.0,0.0,0.0,0.0,0.0,0.0,0.0,0.0,0.0,0.0,0.0,0.0,0.0,0.0,0.0,0.0,0.0,0.0,0.0,0.0,0.0,0.0,0.0,0.0,0.0,0.0,0.0,0.0,0.0,0.0,0.0,0.0,0.0,0.0,0.0,0.0,0.0,0.0,0.0,0.0,0.0,0.0,0.0,0.0,0.0,0.0,0.0,0.0,0.0,0.0,0.0,0.0,0.0,0.0,0.0,0.0,0.0,0.0,0.0,0.0,0.0,0.0,0.0,-1.6404,-1.7089,-1.8011,-1.9238,-1.8896,-1.7901,-1.6226,-1.4647,-1.3735,-1.3705,0.0,0.0,0.0,0.0,0.0,0.0,0.0,0.0,0.0,0.0,0.0,0.0,0.0,0.0,0.0,0.0,0.0,0.0,0.0,0.0,0.0,0.0,0.0,0.0,0.0,0.0,0.0,0.0,0.0,0.0,0.0,0.0,0.0,0.0,0.0,0.0,0.0,0.0,0.0,0.0,0.0,0.0,0.0,0.0,0.0,0.0,0.0,0.0,0.0,0.0,0.0,0.0,0.0,0.0,0.0,0.0,0.0,0.0,0.0,0.0,0.0,0.0,0.0,0.0,0.0,0.0,0.0,0.0,0.0,0.0,0.0,0.0,0.0,0.0,0.0,0.0,0.0,0.0,0.0,0.0,0.0,0.0,0.0,0.0,0.0,0.0,0.0,0.0,0.0,0.0,0.0,0.0,0.0,0.0,0.0,0.0,0.0,0.0,0.0,0.0,0.0,0.0,-1.5875,-1.5554,-1.5898,-1.7722,-1.7767,-1.704,-1.5434,-1.4239,-1.3359,-1.2826,0.0,0.0,0.0,0.0,0.0,0.0,0.0,0.0,0.0,0.0,0.0,0.0,0.0,0.0,0.0,0.0,0.0,0.0,0.0,0.0,0.0,0.0,0.0,0.0,0.0,0.0,0.0,0.0,0.0,0.0,0.0,0.0,0.0,0.0,0.0,0.0,0.0,0.0,0.0,0.0,0.0,0.0,0.0,0.0,0.0,0.0,0.0,0.0,0.0,0.0,0.0,0.0,0.0,0.0,0.0,0.0,0.0,0.0,0.0,0.0,0.0735,0.0,0.0,0.0,0.0,0.0,0.0,0.0,0.0,0.0,0.0,0.0,0.0,0.0,0.0,0.0,0.0,0.0,0.0,0.0,0.0,0.0,0.0,0.0,0.0,0.0,0.0,0.0,0.0,0.0,0.0,0.0,0.0,0.0,0.0,0.0,0.0,0.0,0.0,0.0,0.0,0.0,-1.7487,-1.626,-1.6119,-1.8496,-1.7568,-1.6386,-1.5385,-1.37,-1.2709,-1.2794,-1.2056,0.0,0.0,0.0,0.0,0.0,0.0,0.0,0.0,0.0,0.0,0.0,0.0,0.0,0.0,0.0,0.0,0.0,0.0,0.0,0.0,0.0,0.0,0.0,0.0,0.0,0.0,0.0,0.0,0.0,0.0,0.0,0.0,0.0,0.0,0.0,0.0,0.0,0.0,0.0,0.0,0.0,0.0,0.0,0.0,0.0,0.0,0.0,0.0,0.0,0.0,0.0,0.0,0.0,0.0,0.0,0.0,0.0,0.0,0.0,0.0,0.0735,0.0,0.0,0.0,0.0,0.0,0.0,0.0,0.0,0.0,0.0,0.0,0.0,0.0,0.0,0.0,0.0,0.0,0.0,0.0,0.0,0.0,0.0,0.0,0.0,0.0,0.0,0.0,0.0,0.0,0.0,0.0,0.0,0.0,0.0,0.0,0.0,0.0,0.0,0.0,0.0,-1.6809,-1.5555,-1.5197,-1.695,-1.6388,-1.5543,-1.4738,-1.3277,-1.2339,-1.2192,-1.1594,0.0,0.0,0.0,0.0,0.0,0.0,0.0,0.0,0.0,0.0,0.0,0.0,0.0,0.0,0.0,0.0,0.0,0.0,0.0,0.0,0.0,0.0,0.0,0.0,0.0,0.0,0.0,0.0,0.0,0.0,0.0,0.0,0.0,0.0,0.0,0.0,0.0,0.0,0.0,0.0,0.0,0.0,0.0,0.0,0.0,0.0,0.0,0.0,0.0,0.0,0.0,0.0,0.0,0.1916,0.1505,0.0717,0.0826,0.0435,-0.037,0.0521,0.0758,0.0482,0.0,0.0,0.0,0.0,0.0,0.0,0.0,0.0,0.0,0.0,0.0,0.0,0.0,0.0,0.0,0.0,0.0,0.0,0.0,0.0,0.0,0.0,0.0,0.0,0.0,-1.39,-1.3761,0.0,0.0,0.0,0.0,0.0,0.0,0.0,0.0,0.0,0.0,0.0,0.0,-1.5903,-1.4835,-1.4335,-1.521,-1.5228,-1.4921,-1.428,-1.3282,-1.239,-1.1725,-1.1438,-1.131,0.0,0.0,0.0,0.0,0.0,0.0,0.0,0.0,0.0,0.0,0.0,0.0,0.0,0.0,0.0,0.0,0.0,0.0,0.0,0.0,0.0,0.0,0.0,0.0,0.0,0.0,0.0,0.0,0.0,0.0,0.0,0.0,0.5444,0.4718,0.0,0.0,0.0,0.0,0.0,0.0,0.0,0.0,0.0,0.0,0.0,0.0,0.0,0.1874,0.211,0.2084,0.2064,0.2139,0.1614,0.1057,0.044,0.0252,-0.0064,-0.0518,-0.0512,0.0,0.0877,0.0175,0.0,0.0,0.0,0.0,0.0,0.0,0.0,0.0,0.0,0.0,0.0,0.0,0.0,0.0,0.0,0.0,0.0,0.0,0.0,0.0,0.0,0.0,-1.4774,-1.5773,-1.5467,-1.4822,0.0,-1.3546,-1.316,-1.3255,-1.3952,0.0,0.0,0.0,0.0,0.0,0.0,0.0,-1.7477,-1.6026,-1.5183,-1.6052,-1.552,-1.5114,-1.5134,-1.431,-1.3384,-1.2432,-1.1635,-1.0899,-1.0168,-1.113,0.0,0.0,0.0,0.0,0.0,0.0,0.0,0.0,0.0,0.0,0.0,0.0,0.0,0.0,0.0,0.0,0.0,0.0,0.0,0.0,0.0,0.0,0.0,0.0,0.0,0.0,0.0,0.0,0.0,0.5802,0.5477,0.4745,0.4928,0.4918,0.0,0.0,0.0,0.0,0.0,0.0,0.0,0.0,0.0,0.2161,0.2027,0.1992,0.2181,0.2173,0.2155,0.2071,0.1633,0.1083,0.0495,0.0141,-0.021,-0.055,-0.0654,-0.0364,0.0165,0.0,0.0132,0.032,0.0,0.0,0.0,0.0,-0.2766,-0.2887,-0.3248,-0.254,0.0,-0.3594,0.0,0.0,0.0,0.0,0.0,0.0,0.0,0.0,0.0,0.0,-1.4332,-1.5869,-1.5363,-1.457,-1.467,-1.4243,-1.3886,0.0,-1.4497,-1.5,-1.5534,0.0,0.0,0.0,0.0,-1.6713,-1.8196,-1.682,-1.5883,-1.6249,-1.5619,-1.5185,-1.5245,-1.4507,-1.3867,-1.3434,-1.2029,-1.1036,-1.0641,-1.0669,-1.1339,0.0,0.0,0.0,0.0,0.0,0.0,0.0,0.0,0.0,0.0,0.0,0.0,0.0,0.0,0.0,0.0,0.0,0.0,0.0,0.0,0.0,0.0,0.0,0.0,0.0,0.0,0.0,0.0,0.5774,0.5614,0.4761,0.4933,0.4916,0.0,0.0,0.0,0.0,0.0,0.0,0.2334,0.2275,0.2197,0.2277,0.2168,0.2161,0.2267,0.2313,0.2277,0.2157,0.1511,0.0991,0.0458,-0.0152,-0.0666,-0.1,-0.0916,-0.0809,-0.0687,-0.0267,-0.0235,-0.0385,-0.0936,-0.1387,-0.1852,-0.2722,-0.3139,-0.3342,-0.3929,-0.3545,-0.2914,-0.3623,0.0,-0.6178,-0.7044,0.0,0.0,0.0,0.0,-1.2399,-1.4984,-1.4855,-1.4497,-1.6236,-1.5694,-1.4894,-1.5296,-1.4931,-1.4693,0.0,-1.5291,-1.5499,-1.6182,0.0,0.0,0.0,0.0,-1.7535,-1.8526,-1.7624,-1.6733,-1.6322,-1.5996,-1.5747,-1.555,-1.4847,-1.432,-1.4112,-1.2337,-1.1192,-1.0976,-1.0273,-1.0521,-1.1849,0.0,0.0,0.0,0.0,0.0,0.0,0.0,0.0,0.0,0.0,0.0,0.0,0.0,0.0,0.0,0.0,0.0,0.0,0.0,0.0,0.0,0.0,0.0,0.0,0.0,0.0,0.0,0.0,0.0,0.5025,0.5002,0.0,0.0,0.0,0.0,0.2837,0.2907,0.2828,0.2502,0.2326,0.2282,0.2391,0.2299,0.2356,0.2578,0.2582,0.2556,0.2423,0.1253,0.0392,0.0,-0.1147,-0.1738,-0.2028,-0.179,-0.1516,-0.1195,-0.0705,-0.0163,0.0207,-0.1395,-0.1726,-0.1495,-0.2879,-0.3377,-0.3399,-0.358,-0.3705,-0.4306,-0.7102,-0.9925,-1.2121,-1.1574,-1.1805,0.0,0.0,-1.2067,-1.3646,-1.5572,-1.6253,-1.6712,-1.7831,-1.752,-1.6795,-1.6255,-1.5613,-1.5431,0.0,-1.6117,-1.6176,-1.7478,0.0,-1.7584,-1.8919,-1.8769,-1.8505,-1.8519,-1.8482,-1.7895,-1.6376,-1.6976,-1.7196,-1.6482,-1.5695,-1.4904,-1.4149,-1.2517,-1.1212,-1.0375,-1.0061,-1.0317,-1.1223,-1.2275,0.0,0.0,0.0,0.0,0.0,0.0,0.0,0.0,0.0,0.0,0.0,0.0,0.0,0.0,0.0,0.0,0.0,0.0,0.0,0.0,0.0,0.0,0.0,0.0,0.0,0.0,0.0,0.0,0.6057,0.6211,0.0,0.5428,0.4505,0.3826,0.3615,0.2886,0.2495,0.2466,0.2301,0.2271,0.2399,0.2223,0.2141,0.2242,0.2293,0.2088,0.1492,0.0392,-0.0389,-0.0767,-0.1975,-0.238,-0.2159,-0.2013,-0.1882,-0.1756,-0.1438,-0.0907,-0.0437,-0.1696,-0.2041,-0.204,-0.3201,-0.3619,-0.367,-0.4113,-0.431,-0.4693,-0.6732,-0.8692,-1.0271,-1.0439,-1.1227,-1.1918,-1.1419,-1.2213,-1.3633,-1.5336,-1.545,-1.5586,-1.7378,-1.6855,-1.6064,-1.6557,-1.6186,-1.6088,-1.7116,-1.6032,-1.5318,-1.6379,-1.646,-1.6891,-1.8448,-1.8565,-1.8671,-1.9189,-1.8845,-1.8339,-1.7857,-1.7172,-1.6682,-1.6451,-1.5733,-1.497,-1.415,-1.3004,-1.1977,-1.1107,-1.0324,-1.0055,-1.0367,-1.0609,-1.199,0.0,0.0,0.0,0.0,0.0,0.0,0.0,0.0,0.0,0.0,0.0,0.0,0.0,0.0,0.0,0.0,0.0,0.0,0.0,0.0,0.0,0.0,0.0,0.0,0.0,0.0,0.679,0.6628,0.6814,0.6733,0.6205,0.5213,0.4435,0.4015,0.3276,0.2715,0.2535,0.2372,0.2285,0.2457,0.2167,0.2048,0.2018,0.2071,0.1862,0.1257,0.0078,-0.0696,-0.1059,-0.2399,-0.2848,-0.2591,-0.2382,-0.2262,-0.2212,-0.1962,-0.1653,-0.144,-0.2174,-0.2507,-0.2752,-0.3526,-0.3834,-0.3921,-0.4613,-0.5048,-0.5578,-0.7036,-0.8225,-0.9166,-0.9772,-1.0641,-1.1389,-1.1209,-1.1966,-1.3224,-1.472,-1.4943,-1.5186,-1.688,-1.6561,-1.6039,-1.6676,-1.6312,-1.6098,-1.6783,-1.625,-1.5942,-1.677,-1.7156,-1.7803,-1.9106,-1.9316,-1.9531,-2.0132,-1.9606,-1.9113,-1.8962,-1.8118,-1.7385,-1.6907,-1.6601,-1.5782,-1.4195,-1.3361,-1.235,-1.1006,-1.0708,-1.0575,-1.0575,-1.0625,-1.1975,-1.4673,0.0,0.0,0.0,0.0,0.0,0.0,0.0,0.0,0.0,0.0,0.0,0.0,0.0,0.0,0.0,0.0,0.0,0.0,0.0,0.0,0.0,0.0,0.0,0.6193,0.6768,0.7189,0.6775,0.6694,0.6475,0.5948,0.5586,0.496,0.4068,0.4006,0.3647,0.2863,0.261,0.246,0.2512,0.2242,0.2109,0.2019,0.2017,0.1972,0.1808,0.0392,-0.0541,-0.0904,-0.2282,-0.3086,-0.3354,-0.292,-0.2681,-0.2667,-0.2207,-0.2273,-0.2669,-0.2815,-0.3164,-0.3544,-0.3798,-0.4024,-0.424,-0.5058,-0.5916,-0.6943,-0.8358,-0.8996,-0.9409,-1.0096,-1.0407,-1.0519,-1.0602,-1.1422,-1.2576,-1.3771,-1.4874,-1.5818,-1.6491,-1.6809,-1.6906,-1.6634,-1.6052,-1.555,-1.547,-1.6835,-1.8185,-1.8728,-1.9542,-2.03,-2.094,-2.1028,0.0,-2.1144,-2.0751,-2.0212,-1.9518,-1.9815,-1.9473,-1.7979,-1.8352,-1.7355,-1.4283,-1.3543,-1.2241,-1.0082,-1.1203,-1.1863,-1.1873,-1.2407,-1.3418,-1.4921,0.0,0.0,0.0,0.0,0.0,0.0,0.0,0.0,0.0,0.0,0.0,0.0,0.0,0.0,0.0,0.0,0.0,0.0,0.0,0.0,0.0,0.0,0.7897,0.7231,0.7505,0.7799,0.8078,0.8034,0.7954,0.7812,0.7019,0.6391,0.5997,0.5366,0.4531,0.3554,0.3345,0.285,0.2063,0.1856,0.1731,0.1516,0.1657,0.1132,0.0078,-0.047,-0.1303,-0.2353,-0.2997,-0.3272,-0.3258,-0.3035,-0.2961,-0.2892,-0.2666,-0.284,-0.3262,-0.3113,-0.327,-0.3695,-0.4036,-0.443,-0.4872,-0.555,-0.6359,-0.7247,-0.8364,-0.879,-0.9044,-1.0012,-1.0407,-1.0539,-1.0709,-1.1714,-1.2864,-1.3364,-1.4218,-1.5022,-1.5434,-1.6019,-1.6453,-1.6341,-1.6735,-1.699,-1.6692,-1.7613,-1.8198,-1.7491,-1.7621,-1.8255,-1.9588,-1.9804,0.0,-1.99,-1.9867,-1.9968,-2.0319,-1.9669,-1.9245,-1.925,-1.8505,-1.6897,-1.4206,-1.3739,-1.3091,-1.206,-1.1415,-1.1154,-1.1255,-1.1925,-1.2514,0.0,0.0,0.0,0.0,0.0,0.0,0.0,0.0,0.0,0.0,0.0,0.0,0.0,0.0,0.0,0.0,0.0,0.0,0.0,0.0,0.0,0.0,0.918,0.9275,0.8611,0.8471,0.8495,0.8701,0.8743,0.8759,0.8682,0.8197,0.7665,0.7063,0.6433,0.5398,0.3953,0.3732,0.3031,0.1771,0.1749,0.1628,0.1329,0.1393,0.1045,0.0157,-0.062,-0.136,-0.2109,-0.3026,-0.3362,0.0,-0.3171,-0.3095,-0.3005,-0.2917,-0.3256,0.0,0.0,0.0,0.0,0.0,-0.48,-0.5276,-0.617,-0.6858,-0.7491,-0.8482,-0.8824,-0.8965,-0.9732,-1.0036,-1.0144,-1.0521,-1.1251,-1.2128,-1.2994,-1.3667,-1.4249,-1.4707,-1.5424,-1.5953,-1.5644,-1.6308,-1.6875,-1.662,-1.7057,0.0,-1.7069,-1.7617,-1.8516,-1.9741,-1.9975,-2.0029,-2.0028,-1.9982,-2.0111,-2.0563,-1.9892,-1.9419,-1.9459,-1.9301,0.0,0.0,0.0,-1.5296,-1.4673,-1.3895,0.0,0.0,0.0,-1.5122,-1.4578,0.0,0.0,0.0,-1.8917,-2.0033,0.0,0.0,0.0,0.0,0.0,0.0,0.0,0.0,0.0,0.0,0.0,0.0,0.0,0.0,0.0,0.0,1.0647,1.0969,1.0135,0.9717,0.9349,0.8947,0.8995,0.9035,0.8869,0.9003,0.8644,0.764,0.736,0.6297,0.4297,0.0,0.0,0.0,0.0,0.1698,0.1303,0.1299,0.1282,0.1173,-0.0306,-0.1042,-0.1229,-0.2617,-0.3243,-0.3226,-0.3226,-0.3169,-0.3068,-0.3049,-0.3485,-0.4134,-0.3835,-0.3951,-0.4428,-0.4811,-0.5139,-0.5531,-0.6746,0.0,0.0,-0.8745,-0.9076,-0.9125,-0.9371,-0.9534,-0.9692,-1.0233,-1.0514,-1.1027,-1.2555,-1.3226,-1.3598,-1.4127,-1.4976,-1.5493,-1.4869,-1.5415,-1.5994,-1.5973,-1.6105,-1.6479,-1.7272,-1.8598,-1.9785,-2.0481,-2.0689,-2.0752,-2.0735,-2.0481,-2.036,-2.0522,0.0,0.0,-1.9284,-2.0327,-1.9764,-1.6827,-1.7596,-1.7825,-1.7129,-1.7207,-1.7971,-1.9498,-1.9492,-1.8793,-1.7428,-1.9169,-1.892,-1.6873,-1.9244,-2.0314,0.0,0.0,0.0,0.0,0.0,0.0,0.0,0.0,0.0,0.0,0.0,0.0,0.0,0.0,0.0,1.2114,1.2493,1.2207,1.115,1.1096,1.07,0.9541,0.9165,0.9084,0.9047,0.9076,0.8926,0.856,0.8098,0.7299,0.598,0.5716,0.4696,0.2691,0.273,0.2338,0.1303,0.1278,0.0938,0.0229,0.0,0.0,-0.2044,-0.2384,-0.2758,-0.3226,-0.3226,-0.3134,-0.304,-0.3147,-0.3516,-0.4104,-0.4599,-0.4766,-0.4702,-0.48,-0.514,-0.5702,-0.6801,-0.7641,-0.8357,-0.9004,-0.9447,-0.9676,-0.9345,-0.967,0.0,-1.0293,-1.0712,-1.126,-1.2013,-1.2701,-1.3187,-1.3262,-1.4342,-1.5301,-1.5025,-1.583,-1.6718,-1.7034,-1.7371,-1.77,-1.7986,-1.7939,-1.8179,-1.9052,-1.9196,-1.9345,-1.964,-1.9675,-1.995,-2.0662,-2.0402,-2.0327,-2.0665,-2.0555,-1.9619,-1.7658,-1.7759,-1.7436,-1.6434,-1.7224,-1.7529,-1.7243,-1.6505,-1.6003,-1.5762,-1.7452,-1.8051,-1.7638,-1.9614,-2.017,0.0,0.0,0.0,0.0,0.0,0.0,0.0,0.0,0.0,0.0,0.0,1.1531,0.0,0.0,1.3186,1.3251,1.3795,1.375,1.2543,1.2009,1.1106,0.9499,0.9267,0.9157,0.8974,0.9043,0.9019,0.8836,0.8461,0.7876,0.6789,0.6281,0.522,0.3123,0.2972,0.2397,0.128,0.1249,0.0996,0.0605,0.0221,-0.0431,-0.1188,-0.193,-0.2381,-0.2686,-0.3025,-0.3124,-0.3007,-0.3214,-0.3651,-0.4298,-0.4731,-0.484,-0.4816,-0.5056,-0.5448,-0.5981,-0.7166,-0.803,-0.8714,-0.9394,-0.9689,-0.9764,-0.9512,-0.965,-0.9922,-0.998,-1.0312,-1.0754,-1.1228,-1.1785,-1.2308,-1.2513,-1.3585,-1.4559,-1.439,-1.5273,-1.623,-1.6722,-1.706,-1.7436,-1.7924,-1.7814,-1.7875,-1.8548,-1.8733,-1.8878,-1.9117,-1.9376,-1.974,-2.0191,-2.0186,-2.027,-2.0572,-2.0382,-1.9915,-1.9095,-1.9044,-1.8804,-1.8263,-1.8768,-1.8877,-1.8511,-1.8038,-1.7849,-1.7942,-1.8785,-1.9194,-1.9226,-2.0165,-2.0371,0.0,0.0,0.0,0.0,0.0,0.0,0.0,0.0,1.2473,1.2366,1.2677,1.3025,1.3239,1.4204,1.4811,1.4243,1.4939,1.5034,1.3734,1.272,1.1407,0.9477,0.9272,0.9194,0.8901,0.9039,0.9084,0.8934,0.8746,0.8253,0.7353,0.6789,0.567,0.3961,0.3555,0.2792,0.1572,0.1457,0.136,0.1202,0.0502,0.014,-0.0069,-0.1221,-0.1945,-0.2213,-0.2854,-0.3081,-0.3036,-0.3211,-0.3688,-0.4408,-0.4577,-0.474,-0.4875,-0.5388,-0.5763,-0.6201,-0.7376,-0.8205,-0.8851,-0.949,-0.9682,-0.9653,-0.9589,-0.9544,-0.9527,-0.9625,-0.9862,-1.0166,-1.0602,-1.1115,-1.1654,-1.2131,-1.3054,-1.3813,-1.3921,-1.4643,-1.548,-1.6175,-1.653,-1.6953,-1.7625,-1.7833,-1.8014,-1.8385,-1.8585,-1.8735,-1.8877,-1.9256,-1.955,-1.9669,-1.9907,-2.0069,-2.0108,-2.0169,-2.0211,-2.0277,-2.0285,-2.0285,-2.0285,-2.0304,-2.0328,-2.039,-2.0418,-2.0475,-2.0593,-2.0598,-2.0598,-2.0594,-2.0603,-2.0603,1.2536,1.2515,1.2577,1.2799,1.3374,1.3905,0.0,0.0,1.5534,1.5212,1.4807,1.4687,1.5258,1.5332,1.546,1.5712,1.6155,1.5771,1.3956,1.3626,1.2676,1.0083,0.937,0.9112,0.9072,0.9222,0.9319,0.9295,0.9104,0.8781,0.8386,0.8083,0.7153,0.556,0.5452,0.4431,0.2356,0.2375,0.1944,0.1171,0.1066,0.0622,0.0,-0.0202,-0.094,-0.2207,-0.2799,-0.2988,-0.3001,-0.2843,-0.3188,-0.3907,-0.4349,-0.4659,-0.4953,-0.5529,-0.5914,-0.6288,-0.7117,-0.7924,-0.8636,-0.8761,-0.9186,-0.9546,-0.9204,-0.9283,-0.9518,-0.9527,-0.9774,-1.0137,-1.0598,-1.1303,-1.2072,-1.2679,-1.3107,-1.3635,-1.4624,-1.4872,-1.522,-1.6416,-1.6946,-1.7309,-1.7572,-1.7743,-1.7922,-1.8187,-1.8249,-1.8415,-1.8859,-1.9043,-1.9261,-1.9567,-1.9804,-1.9969,-2.0079,-2.0169,-2.0203,-2.0205,-2.0269,-2.0265,-2.0211,-2.0334,-2.0383,-2.0395,-2.0464,-2.0536,-2.0593,-2.0594,-2.0594,-2.0593,-2.0596,-2.0598,1.29,1.3106,0.0,0.0,1.4355,1.5121,1.5214,1.5958,1.637,1.577,1.5813,1.585,1.5591,1.5624,1.5806,0.0,1.6062,1.577,1.4777,1.3793,1.2593,1.1133,1.0213,0.928,0.8541,0.8629,0.8735,0.8735,0.8746,0.8786,0.8643,0.8275,0.7498,0.6513,0.5945,0.4691,0.2821,0.2565,0.1972,0.114,0.1109,0.0952,0.0605,0.0202,-0.0805,-0.2207,-0.2337,-0.2627,-0.3007,-0.2805,-0.3132,-0.3796,-0.3904,-0.4508,-0.5332,-0.5681,-0.595,-0.6263,-0.6853,-0.77,-0.8577,-0.9155,-0.9392,-0.9473,-0.9796,-0.965,-0.9399,-0.9576,-0.9744,-0.9954,-1.0226,-1.0761,-1.1342,-1.1751,-1.2178,-1.2571,-1.2899,-1.3494,-1.4214,-1.4924,-1.574,-1.6475,-1.7036,-1.7313,-1.7572,-1.7932,-1.8187,-1.8469,-1.8753,-1.9028,-1.9512,-2.033,-2.0106,-2.0126,-2.0695,-2.0365,-2.0162,-2.0209,-2.0265,-2.0292,-2.026,-2.034,-2.0425,-2.0457,-2.0494,-2.0536,-2.0593,-2.0593,-2.0593,-2.0593,-2.0593,-2.0594,1.3673,0.0,0.0,1.4913,1.5705,1.6486,1.6739,1.7201,1.7394,1.6724,1.6669,1.6493,1.5627,1.5522,0.0,1.5641,1.5585,1.5478,1.4959,1.3835,1.2638,1.1751,1.075,0.9735,0.8568,0.8634,0.8618,0.8365,0.858,0.8723,0.8747,0.8288,0.7839,0.733,0.6466,0.5314,0.3754,0.3153,0.2395,0.1487,0.1241,0.1088,0.1088,0.0337,-0.0666,-0.1831,-0.1883,-0.2257,-0.2932,-0.2744,-0.3023,-0.3577,-0.368,-0.4284,-0.5164,-0.5618,-0.6,-0.6372,-0.6804,-0.7511,-0.8293,-0.8915,-0.9108,-0.9178,-0.9767,-0.9612,-0.9328,-0.9545,-0.9664,-0.9787,-1.0096,-1.0505,-1.0974,-1.134,-1.1734,-1.2045,-1.2135,-1.2803,-1.3602,-1.4229,-1.5068,-1.5899,-1.6642,-1.6942,-1.7199,-1.7579,-1.8061,-1.845,-1.868,-1.9229,-2.0025,-2.1157,-2.0809,-2.0783,-2.1479,-2.1079,-2.0833,-2.0881,-2.0997,-2.1049,-2.1023,-2.087,-2.0811,-2.0864,-2.0642,-2.0677,-2.0964,-2.071,-2.0847,-2.1274,-2.1061,-2.1081,0.0,0.0,1.6118,1.7008,1.7539,1.8135,1.9014,1.9228,1.9145,1.8815,1.7769,1.6683,1.5827,1.5125,1.4653,1.4653,1.4984,1.4986,1.42,1.4068,1.3307,1.1338,1.0827,1.0382,0.0,0.9653,0.9414,0.8644,0.8885,0.8934,0.8593,0.8547,0.8298,0.7975,0.7533,0.6792,0.5547,0.4498,0.3424,0.2471,0.1558,0.1119,0.1049,0.034,-0.0326,-0.0864,-0.1602,-0.2203,-0.2699,-0.2693,-0.2802,-0.297,-0.3735,-0.3956,-0.4018,-0.5336,-0.6154,-0.6701,-0.6972,-0.7302,-0.7615,-0.7492,-0.7953,-0.853,-0.8458,-0.8798,-0.9217,-0.9288,-0.9426,-0.9664,-1.0418,-1.0922,-1.1435,-1.2116,-1.2341,-1.2646,-1.3605,-1.3606,-1.3831,-1.5286,-1.5664,-1.5988,-1.6602,-1.6747,-1.6917,-1.7191,-1.7676,-1.8173,-1.8642,-1.9686,-2.0776,-2.1841,-2.201,-2.2131,-2.2331,-2.2462,-2.2556,-2.2622,-2.2813,-2.2882,-2.2815,-2.2149,-2.1769,-2.1749,-2.0989,-2.1003,-2.186,-2.1003,-2.1431,-2.3005,-2.2229,-2.2287,0.0,0.0,1.7078,1.7632,1.8291,1.8936,1.9219,1.9502,1.9271,1.7687,1.7361,1.6847,1.5219,1.4759,1.4712,1.4777,1.4518,1.4307,1.4318,1.389,1.32,1.2361,1.1961,0.0,0.0,0.0,0.0,0.9007,0.8649,0.8434,0.856,0.842,0.8297,0.8119,0.7643,0.6896,0.5912,0.5378,0.4239,0.2614,0.1559,0.111,0.1091,0.081,0.0395,-0.0317,-0.0931,-0.1563,-0.2195,-0.2544,-0.2747,-0.2802,-0.3241,-0.3624,-0.4012,-0.4677,-0.5479,-0.622,-0.6482,-0.6851,-0.725,-0.7467,-0.761,-0.7849,-0.8645,-0.879,-0.8805,-0.9199,-0.9377,-0.9634,-1.0244,-1.0802,-1.1281,-1.1524,-1.1876,-1.218,-1.2266,-1.2883,-1.3599,-1.4269,-1.5168,-1.5883,-1.6123,-1.6355,-1.6985,-1.8269,-1.881,-1.9228,-1.9704,-2.0643,-2.1621,-2.2552,-2.2277,-2.2309,-2.2929,-2.2722,-2.255,-2.2577,-2.2797,-2.292,-2.2894,-2.2756,-2.2392,-2.1815,-2.1528,-2.1538,-2.183,-2.1538,-2.1984,-2.3093,-2.2823,-2.2842,1.7977,1.8619,1.9062,1.9361,1.9545,1.9668,1.9355,1.915,1.846,1.6643,1.6326,1.5825,1.4205,1.3903,1.3966,1.4222,1.3757,1.355,1.4138,1.3473,1.2976,1.2913,1.2552,0.0,0.0,0.0,0.0,0.9063,0.8799,0.859,0.8365,0.8291,0.8261,0.8197,0.7673,0.717,0.6548,0.5912,0.4649,0.2685,0.1717,0.1185,0.1076,0.1076,0.0724,0.0,-0.0558,-0.1202,-0.1904,-0.2488,-0.2691,-0.2747,-0.2968,-0.3297,-0.379,-0.4453,-0.5065,-0.5648,-0.6014,-0.6426,-0.6823,-0.7086,-0.7157,-0.7346,-0.8321,-0.8524,-0.8561,-0.9128,-0.9337,-0.9585,-1.0166,-1.0725,-1.1169,-1.1395,-1.186,-1.2195,-1.2004,-1.2768,-1.3583,-1.3951,-1.4831,-1.561,-1.5871,-1.649,-1.7364,-1.8663,-1.9722,-2.0545,-2.1059,-2.1662,-2.2374,-2.3327,-2.3048,-2.3021,-2.3642,-2.3427,-2.3322,-2.3381,-2.3629,-2.3777,-2.3831,-2.3645,-2.3275,-2.2707,-2.241,-2.2422,-2.272,-2.2427,-2.2873,-2.4021,-2.3703,-2.3725,2.1352,2.2024,2.2,2.1924,2.1308,2.0379,1.9424,1.8232,1.6986,1.5605,1.4664,1.3867,0.0,0.0,1.2739,1.3193,1.2881,1.2899,1.3683,1.3126,1.2797,0.0,0.0,0.0,0.0,0.0,0.0,0.8946,0.0,0.9312,0.8139,0.8193,0.8201,0.8201,0.7705,0.7375,0.7377,0.6169,0.4649,0.2759,0.1965,0.1418,0.1143,0.1074,0.0716,0.0123,-0.0492,-0.1127,-0.179,-0.2408,-0.2691,-0.2691,-0.286,-0.3023,-0.3294,-0.4556,-0.5057,-0.5128,-0.5699,-0.6122,-0.6385,-0.6361,-0.6627,-0.7014,-0.7518,-0.7987,-0.8455,-0.9016,-0.9248,-0.9439,-1.0079,-1.0611,-1.1132,-1.1726,-1.2282,-1.2709,-1.2768,-1.3207,-1.3735,-1.4278,-1.4721,-1.5195,-1.5799,-1.6983,-1.7974,-1.84,-2.032,-2.1931,-2.2517,-2.2614,-2.3041,-2.4059,-2.419,-2.4247,-2.4389,-2.4579,-2.478,-2.4998,-2.5197,-2.5368,-2.5492,-2.4774,-2.434,-2.4306,-2.354,-2.3579,-2.4397,-2.3556,-2.404,-2.5675,-2.4846,-2.4912,2.2531,2.3228,2.3229,2.2608,2.1776,2.0645,1.8734,1.753,1.6277,1.4671,1.4479,1.4276,0.0,0.0,0.0,1.3773,1.364,0.0,1.4262,1.4169,0.0,0.0,0.0,1.3574,1.3427,1.3114,0.0,0.0,0.9927,0.9316,0.9424,0.8856,0.8384,0.8201,0.7785,0.7593,0.739,0.6218,0.5031,0.3774,0.2833,0.1982,0.1276,0.112,0.0959,0.0739,0.006,-0.0582,-0.1174,-0.179,-0.2296,-0.2691,-0.286,-0.3244,-0.3843,-0.4284,-0.495,-0.5699,-0.5855,-0.5967,-0.6073,-0.5963,-0.6012,-0.6298,-0.7245,-0.7648,-0.7897,-0.8814,-0.9136,-0.9288,-0.9487,-1.0264,-1.0992,-1.1159,-1.1884,-1.252,-1.2709,-1.3035,-1.3488,-1.4052,-1.4814,-1.5477,-1.577,-1.6574,-1.7579,-1.8898,-2.0019,-2.1139,-2.2162,-2.3001,-2.3599,-2.3878,-2.4054,-2.4191,-2.4372,-2.4579,-2.4812,-2.5072,-2.5254,-2.5395,-2.5426,-2.527,-2.4898,-2.4238,-2.4072,-2.4098,-2.4315,-2.4101,-2.4577,-2.5683,-2.5478,-2.5488,2.4838,2.5291,2.515,2.4193,2.2435,2.0521,1.8629,1.6749,1.5057,1.3793,1.3729,0.0,0.0,0.0,0.0,0.0,0.0,0.0,1.4051,1.4103,1.4267,0.0,1.4649,0.0,1.4055,1.3915,1.3602,0.0,1.1455,1.0357,0.9876,0.9378,0.8869,0.8092,0.7831,0.7539,0.7316,0.6254,0.5412,0.4787,0.3557,0.2545,0.1745,0.1306,0.108,0.0986,0.0,-0.0173,-0.0559,-0.1454,-0.2015,-0.2352,-0.2691,-0.3079,-0.3572,-0.4236,-0.49,-0.5488,-0.6061,-0.6196,-0.6148,-0.6035,-0.6074,-0.6338,-0.7222,-0.7574,-0.7865,-0.8774,-0.9096,-0.9257,-0.9478,-1.003,-1.0649,-1.1094,-1.1653,-1.2138,-1.2484,-1.3,-1.3589,-1.442,-1.5043,-1.561,-1.604,-1.7,-1.8153,-1.9389,-2.0565,-2.1593,-2.2272,-2.3137,-2.3692,-2.3795,-2.4056,-2.4284,-2.4389,-2.4586,-2.4795,-2.4993,-2.5171,-2.5313,-2.5387,-2.5429,-2.5236,-2.4774,-2.4807,-2.4838,-2.4865,-2.4865,-2.5138,-2.5668,-2.5665,-2.5664,2.736,2.7584,2.7105,2.6,2.3261,2.0381,1.8717,1.6079,1.3755,1.3,0.0,1.2855,1.2879,0.0,1.2768,1.2822,0.0,1.2569,1.3732,1.3669,1.4,1.5231,1.517,1.4903,1.4609,1.4315,1.4128,1.4088,1.3313,1.2003,1.0015,0.9904,0.9284,0.7889,0.7733,0.7504,0.7184,0.6405,0.5947,0.5581,0.421,0.3176,0.2468,0.1751,0.1261,0.0981,0.0356,0.0,-0.0056,-0.1119,-0.1679,-0.1846,-0.2352,-0.2747,-0.3137,-0.4349,-0.4861,-0.51,-0.6204,-0.6547,-0.6444,-0.6263,-0.636,-0.6681,-0.7241,-0.7673,-0.8107,-0.8717,-0.9059,-0.9318,-0.9646,-0.9913,-1.0312,-1.1169,-1.1505,-1.1726,-1.2258,-1.3084,-1.4013,-1.5019,-1.55,-1.5888,-1.6539,-1.7884,-1.9128,-1.9808,-2.1313,-2.2388,-2.2525,-2.3098,-2.3566,-2.3735,-2.4134,-2.4393,-2.4407,-2.4594,-2.476,-2.4917,-2.5037,-2.5201,-2.5389,-2.5395,-2.5426,-2.5503,-2.5511,-2.5538,-2.5593,-2.5595,-2.559,-2.5616,-2.5603,-2.5631,2.8041,2.8359,2.785,2.6155,2.375,2.1102,1.8463,1.5821,0.0,0.0,0.0,1.2611,1.2719,1.2983,0.0,1.3548,0.0,0.0,0.0,0.0,1.4295,0.0,0.0,0.0,0.0,0.0,0.0,0.0,0.0,1.3027,1.1091,1.0179,0.9007,0.7527,0.7488,0.7296,0.6945,0.6945,0.6479,0.5581,0.5362,0.4394,0.2785,0.2325,0.177,0.1127,0.0861,0.0,0.0,-0.0224,-0.0896,-0.179,-0.1902,-0.2627,-0.3688,-0.3907,-0.4761,-0.582,-0.6035,-0.6503,-0.6896,-0.652,-0.6406,-0.6529,-0.6908,-0.7582,-0.8246,-0.8315,-0.8906,-0.9511,-0.9345,-0.9607,-1.0079,-1.0677,-1.1207,-1.1664,-1.2138,-1.3369,-1.455,-1.5237,-1.6358,-1.7275,-1.7458,-1.853,-1.9546,-2.0088,-2.0931,-2.1708,-2.2192,-2.2933,-2.3437,-2.3544,-2.3917,-2.4266,-2.4543,-2.4591,-2.476,-2.5125,-2.516,-2.5228,-2.5313,-2.5365,-2.543,-2.5511,-2.5557,-2.5579,-2.5609,-2.559,-2.5628,-2.5678,-2.5687,-2.5696,2.6709,2.7514,2.8107,2.6363,2.3793,2.1031,1.8441,0.0,0.0,0.0,0.0,1.2352,1.2425,0.0,0.0,0.0,0.0,0.0,0.0,0.0,0.0,0.0,0.0,0.0,0.0,0.0,0.0,0.0,0.0,1.3265,1.1905,1.0218,0.881,0.7676,0.7423,0.7258,0.7249,0.7087,0.6767,0.6301,0.586,0.5009,0.3847,0.2991,0.2239,0.1645,0.1195,0.0,0.0449,0.0112,-0.0336,-0.0952,-0.1567,-0.2179,-0.285,-0.3519,-0.4233,-0.4944,-0.576,-0.6253,-0.6553,-0.6717,-0.6756,-0.6761,-0.6864,-0.7287,-0.7802,-0.8112,-0.8518,-0.8906,-0.9067,-0.9457,-0.9932,-1.0495,-1.1356,-1.2244,-1.3035,-1.3871,-1.4768,-1.5774,-1.6572,-1.7325,-1.8034,-1.8879,-1.972,-2.0494,-2.1158,-2.1738,-2.2231,-2.2832,-2.3259,-2.3414,-2.3803,-2.4174,-2.4526,-2.4689,-2.4837,-2.5038,-2.513,-2.5231,-2.5303,-2.5393,-2.5471,-2.5499,-2.5562,-2.559,-2.5604,-2.5593,-2.5615,-2.5651,-2.5676,-2.5709,2.5716,2.6912,2.815,2.6647,2.3922,2.0944,1.862,1.558,0.0,0.0,1.1986,1.2092,1.2079,0.0,0.0,0.0,0.0,0.0,0.0,0.0,0.0,0.0,0.0,0.0,0.0,0.0,0.0,0.0,0.0,0.0,1.2137,1.0141,0.8751,0.8247,0.7639,0.7391,0.7728,0.721,0.6964,0.6895,0.619,0.5466,0.4819,0.3722,0.2831,0.215,0.153,0.0,0.0,0.0393,0.0112,-0.0112,-0.1064,-0.1567,-0.1902,-0.2959,-0.3572,-0.3959,-0.5109,-0.576,-0.6091,-0.6588,-0.6918,-0.7067,-0.6872,-0.7101,-0.7512,-0.7837,-0.8149,-0.8445,-0.883,-0.9226,-0.9713,-1.039,-1.1555,-1.2781,-1.384,-1.4411,-1.5134,-1.6386,-1.6884,-1.7526,-1.8619,-1.9308,-2.0035,-2.0959,-2.1479,-2.1899,-2.2298,-2.2678,-2.3021,-2.3369,-2.3767,-2.4155,-2.4442,-2.4673,-2.4808,-2.4884,-2.5056,-2.5182,-2.5283,-2.5429,-2.5492,-2.5504,-2.5576,-2.5619,-2.5628,-2.5609,-2.5613,-2.5622,-2.5681,-2.5705,2.6988,2.7993,2.8246,2.714,2.4438,2.1487,1.9136,0.0,0.0,1.2158,1.1815,1.1692,1.157,1.1838,0.0,0.0,0.0,0.0,0.0,0.0,0.0,0.0,0.0,0.0,0.0,0.0,0.0,0.0,0.0,0.0,1.1654,0.9964,0.9223,0.9706,0.825,0.7778,0.8337,0.752,0.7054,0.6721,0.6619,0.6005,0.4985,0.4725,0.3856,0.2467,0.2073,0.0,0.0,0.0898,0.0505,0.0,-0.0112,-0.084,-0.179,-0.1958,-0.2736,-0.3796,-0.3959,-0.4889,-0.5982,-0.5819,-0.6367,-0.6993,-0.6558,-0.7248,-0.8061,-0.7305,-0.7937,-0.8832,-0.8766,-0.8862,-0.9234,-1.0186,-1.151,-1.281,-1.3638,-1.4743,-1.5871,-1.6775,-1.8057,-1.9082,-1.9459,-2.0221,-2.0879,-2.1308,-2.1495,-2.1768,-2.2181,-2.2368,-2.2695,-2.3346,-2.3798,-2.4173,-2.4389,-2.4424,-2.4575,-2.4884,-2.4955,-2.508,-2.5192,-2.5406,-2.5505,-2.5504,-2.5632,-2.5698,-2.5696,-2.5681,-2.5683,-2.5687,-2.5705,-2.5696,2.3688,2.6024,2.8102,2.6382,2.4061,2.1404,1.836,0.0,0.0,1.1983,1.1511,1.1378,1.1347,1.1524,1.1733,0.0,0.0,0.0,0.0,0.0,0.0,0.0,0.0,0.0,0.0,0.0,0.0,0.0,0.0,0.0,1.2029,1.0878,1.0149,0.9895,0.909,0.8611,0.8377,0.7789,0.725,0.6692,0.6578,0.6169,0.5517,0.5086,0.4207,0.2954,0.2512,0.0,0.0,0.1066,0.0898,0.0617,0.0168,-0.028,-0.0784,-0.1511,-0.2125,-0.2736,-0.3849,-0.4622,-0.5152,-0.5695,-0.6135,-0.64,-0.619,-0.639,-0.6766,-0.6952,-0.7356,-0.7886,-0.8545,-0.9208,-0.9932,-1.0708,-1.1976,-1.3244,-1.3998,-1.5119,-1.6252,-1.7151,-1.7854,-1.8574,-1.9441,-1.9904,-2.0449,-2.1276,-2.1511,-2.1797,-2.2313,-2.2485,-2.284,-2.3513,-2.371,-2.3939,-2.4248,-2.4337,-2.4524,-2.4814,-2.4975,-2.5149,-2.5303,-2.543,-2.5511,-2.5561,-2.5601,-2.5665,-2.5698,-2.5701,-2.5705,-2.5707,-2.5707,-2.5691,2.1319,2.4179,2.6808,2.5385,2.3323,2.0842,0.0,0.0,1.3105,1.181,1.14,1.121,1.1094,1.1308,1.1547,1.1444,0.0,1.1747,0.0,0.0,0.0,0.0,0.0,0.0,0.0,0.0,0.0,0.0,0.0,0.0,0.0,1.1704,1.1064,1.0535,0.9779,0.919,0.8908,0.8122,0.7441,0.686,0.6531,0.6152,0.5807,0.5381,0.4639,0.3622,0.3178,0.0,0.0,0.1513,0.1346,0.1122,0.0561,0.0224,-0.0056,-0.1119,-0.1621,-0.2014,-0.3463,-0.4103,-0.4375,-0.5113,-0.5417,-0.5549,-0.5605,-0.5736,-0.5965,-0.6502,-0.6894,-0.7377,-0.8393,-0.9359,-1.0225,-1.0753,-1.2135,-1.3509,-1.4153,-1.5349,-1.6512,-1.7286,-1.772,-1.8238,-1.9222,-1.9743,-2.0333,-2.1229,-2.1601,-2.1969,-2.252,-2.2738,-2.3056,-2.3638,-2.3664,-2.3819,-2.4229,-2.4408,-2.4604,-2.4836,-2.5005,-2.5173,-2.5367,-2.5449,-2.5518,-2.5576,-2.5595,-2.5621,-2.5668,-2.5693,-2.5701,-2.5705,-2.5705,-2.5705,2.1267,2.3124,2.3921,2.4393,2.2369,1.9719,0.0,0.0,1.2528,1.1819,1.1544,1.126,1.0802,1.1234,1.1494,1.0929,1.1411,0.0,0.0,0.0,0.0,0.0,0.0,0.0,0.0,0.0,0.0,0.0,0.0,0.0,0.0,1.2031,1.1877,1.187,1.0026,0.9289,0.9995,0.8446,0.7565,0.7202,0.6522,0.5961,0.5612,0.5612,0.5174,0.0,0.0,0.0,0.0,0.2293,0.1849,0.1291,0.129,0.0842,0.0112,-0.0503,-0.1174,-0.1902,-0.2521,-0.3175,-0.3711,-0.3816,-0.4086,-0.4501,-0.4828,-0.5513,-0.6141,-0.5897,-0.6634,-0.7637,-0.8346,-0.9056,-0.968,-1.004,-1.1809,-1.3522,-1.3986,-1.5347,-1.6637,-1.7115,-1.7908,-1.8577,-1.8855,-1.9949,-2.0909,-2.1245,-2.182,-2.233,-2.2738,-2.3017,-2.3324,-2.3678,-2.3761,-2.3955,-2.4355,-2.4594,-2.4779,-2.4981,-2.5053,-2.5173,-2.5303,-2.5421,-2.549,-2.5499,-2.5576,-2.5604,-2.5604,-2.5678,-2.5693,-2.5698,-2.5698,-2.5703,1.7038,1.9022,2.0556,2.0049,1.8767,1.718,1.5359,0.0,1.2285,1.1632,1.1287,1.104,1.0687,1.0935,1.1093,1.0829,1.1278,0.0,0.0,0.0,0.0,0.0,0.0,0.0,0.0,0.0,0.0,0.0,0.0,0.0,0.0,1.173,1.1657,1.1864,1.0898,1.0269,0.9983,0.911,0.8159,0.7192,0.6748,0.619,0.5612,0.5612,0.5174,0.0,0.0,0.0,0.0,0.2458,0.2071,0.1515,0.1347,0.1178,0.0841,-0.028,-0.0838,-0.1229,-0.2685,-0.3164,-0.3217,-0.3528,-0.3621,-0.3662,-0.3975,-0.4572,-0.5296,-0.6224,-0.7527,-0.8829,-0.9545,-1.0054,-1.0579,-1.1216,-1.2178,-1.3104,-1.3622,-1.5007,-1.6176,-1.6462,-1.7277,-1.8133,-1.8779,-1.9522,-2.0261,-2.1119,-2.1462,-2.1907,-2.2582,-2.2816,-2.3157,-2.3707,-2.3961,-2.4155,-2.4321,-2.4393,-2.461,-2.5044,-2.5087,-2.519,-2.5359,-2.5401,-2.5441,-2.5492,-2.5562,-2.56,-2.5604,-2.5668,-2.5707,-2.5701,-2.5697,-2.5701,0.0,1.603,1.7401,1.725,1.6418,0.0,0.0,0.0,1.1833,1.14,1.1126,1.0905,1.0687,1.0785,1.0855,1.0811,1.1168,0.0,0.0,0.0,0.0,0.0,0.0,0.0,0.0,0.0,0.0,0.0,0.0,0.0,0.0,1.1696,1.1614,1.1536,1.1076,1.0574,1.0014,0.9419,0.8476,0.7325,0.6835,0.6316,0.5845,0.5567,0.5338,0.0,0.0,0.0,0.0,0.3067,0.2571,0.1961,0.1626,0.1459,0.129,0.0,-0.0448,-0.0727,-0.2404,-0.272,-0.2555,-0.3074,-0.3153,-0.3147,-0.3577,-0.4136,-0.4935,-0.6413,-0.7528,-0.8527,-0.9508,-1.0038,-1.0489,-1.1116,-1.2007,-1.28,-1.3245,-1.4495,-1.5734,-1.627,-1.7062,-1.791,-1.8736,-1.9579,-2.0314,-2.1039,-2.1524,-2.2056,-2.2704,-2.291,-2.3206,-2.3774,-2.4002,-2.4192,-2.4393,-2.453,-2.4764,-2.513,-2.5141,-2.5222,-2.5437,-2.5432,-2.5464,-2.5531,-2.5583,-2.5607,-2.5601,-2.5671,-2.5705,-2.5693,-2.5703,-2.5703,0.0,0.0,0.0,0.0,0.0,0.0,0.0,0.0,0.0,1.1185,1.105,1.085,1.0766,1.0795,1.0855,1.0892,1.1159,0.0,0.0,0.0,0.0,0.0,0.0,0.0,0.0,0.0,0.0,0.0,0.0,0.0,0.0,1.1765,1.1667,1.0994,1.0712,1.0374,1.012,0.948,0.8604,0.7542,0.6909,0.6458,0.6263,0.5677,0.5732,0.0,0.0,0.0,0.0,0.3904,0.3292,0.2681,0.213,0.1852,0.1572,0.0505,0.0,-0.0337,-0.1681,-0.1923,-0.1707,-0.2307,-0.268,-0.299,-0.3499,-0.4112,-0.4914,-0.6407,-0.6853,-0.7203,-0.8532,-0.9267,-0.977,-1.0108,-1.1447,-1.2678,-1.2892,-1.4059,-1.5325,-1.6453,-1.7177,-1.7899,-1.8792,-2.0039,-2.0942,-2.1134,-2.1895,-2.2632,-2.307,-2.3241,-2.3458,-2.3876,-2.3961,-2.4174,-2.4564,-2.4889,-2.5113,-2.5192,-2.5203,-2.5313,-2.5503,-2.5517,-2.5542,-2.5595,-2.5601,-2.5589,-2.5606,-2.5677,-2.5703,-2.5703,-2.5702,-2.5699,1.0853,0.0,1.1013,1.1436,1.1398,0.0,0.0,0.0,0.0,0.0,0.0,1.0981,1.1175,1.0785,1.0678,1.1442,1.1287,0.0,0.0,0.0,0.0,0.0,0.0,0.0,0.0,0.0,0.0,0.0,0.0,0.0,0.0,1.1825,1.1421,1.0923,1.0274,0.996,1.0114,0.9715,0.9073,0.8211,0.779,0.7344,0.6864,0.6761,0.6544,0.0,0.0,0.0,0.4618,0.4405,0.3959,0.3347,0.3239,0.285,0.2348,0.1506,0.0965,0.0405,-0.0902,-0.1131,-0.091,-0.1394,-0.2153,-0.2934,-0.322,-0.3833,-0.4688,-0.5796,-0.6973,-0.8044,-0.8714,-0.9611,-1.0496,-1.1128,-1.1549,-1.2144,-1.3261,-1.445,-1.5504,-1.6232,-1.7696,-1.8869,-1.9148,-2.0143,-2.1071,-2.1549,-2.1994,-2.2537,-2.323,-2.3365,-2.3553,-2.3996,-2.4115,-2.4302,-2.4645,-2.479,-2.4968,-2.5196,-2.5312,-2.5426,-2.5576,-2.5576,-2.5576,-2.5601,-2.559,-2.5632,-2.5681,-2.5683,-2.5703,-2.5703,-2.5655,-2.5622,1.0244,1.0049,0.9941,1.0088,1.0205,1.0361,0.0,0.0,0.0,0.0,0.0,0.0,1.1042,0.0,0.0,0.0,0.0,0.0,0.0,0.0,0.0,0.0,0.0,0.0,0.0,0.0,0.0,0.0,0.0,0.0,0.0,1.2071,1.1772,1.1279,1.0825,1.0372,0.9913,0.9684,0.9151,0.8245,0.8158,0.799,0.7676,0.7396,0.7289,0.0,0.0,0.0,0.5433,0.4787,0.4294,0.3959,0.3683,0.3403,0.3014,0.2119,0.158,0.1144,-0.0169,-0.061,-0.0655,-0.1052,-0.1771,-0.2555,-0.2962,-0.356,-0.4413,-0.5898,-0.7067,-0.8004,-0.884,-0.9589,-1.0321,-1.0998,-1.1362,-1.1897,-1.3125,-1.4212,-1.5267,-1.6321,-1.7584,-1.8695,-1.9426,-2.0193,-2.091,-2.143,-2.1919,-2.2449,-2.3056,-2.3307,-2.3598,-2.3996,-2.4115,-2.4266,-2.4526,-2.4752,-2.4949,-2.5184,-2.5274,-2.5406,-2.5599,-2.5593,-2.5605,-2.5642,-2.5659,-2.5655,-2.5703,-2.5702,-2.57,-2.5701,-2.564,-2.56,1.04,1.0205,1.0098,1.0118,1.0235,1.0351,0.0,0.0,0.0,0.0,0.0,0.0,0.0,0.0,0.0,0.0,0.0,0.0,0.0,0.0,0.0,0.0,0.0,0.0,0.0,0.0,0.0,0.0,0.0,0.0,0.0,1.2402,1.2278,1.1765,1.1652,1.105,0.9951,0.9688,0.918,0.8389,0.8461,0.8527,0.8527,0.7978,0.7978,0.8368,0.0,0.0,0.6465,0.5277,0.4791,0.468,0.407,0.3793,0.3624,0.273,0.2293,0.1912,0.0621,-0.0108,-0.0509,-0.0922,-0.1393,-0.1975,-0.2636,-0.3289,-0.4256,-0.6097,-0.6915,-0.7538,-0.8658,-0.9358,-0.9897,-1.0442,-1.1112,-1.1983,-1.3053,-1.3989,-1.5092,-1.6734,-1.752,-1.8368,-1.9682,-2.033,-2.0829,-2.1308,-2.1965,-2.252,-2.284,-2.3242,-2.3638,-2.3958,-2.4058,-2.4211,-2.4458,-2.4728,-2.4993,-2.5217,-2.5245,-2.5368,-2.562,-2.5624,-2.5632,-2.5703,-2.5703,-2.5703,-2.5703,-2.5697,-2.5709,-2.5707,-2.5642,-2.5625,1.0582,1.0544,1.0467,1.0322,1.0312,1.0418,0.0,0.0,0.0,0.0,0.0,0.0,0.0,0.0,0.0,0.0,0.0,0.0,0.0,0.0,0.0,0.0,0.0,0.0,0.0,0.0,0.0,0.0,0.0,0.0,0.0,1.2466,1.2219,1.2061,1.1308,1.097,1.1072,1.0547,1.0135,0.9703,0.9256,0.9054,0.9054,0.8995,0.8784,0.8573,0.0,0.7824,0.7272,0.6465,0.6036,0.5882,0.5289,0.4743,0.4349,0.4181,0.3521,0.2505,0.1401,0.0728,0.0265,-0.0219,-0.0738,-0.1296,-0.2209,-0.3246,-0.4364,-0.5408,-0.6136,-0.6844,-0.7704,-0.9246,-1.0554,-1.0376,-1.1447,-1.2858,-1.423,-1.5055,-1.6019,-1.781,-1.8846,-1.9667,-2.0292,-2.0975,-2.1595,-2.2062,-2.2527,-2.2927,-2.3199,-2.3383,-2.3638,-2.3961,-2.4116,-2.4355,-2.4785,-2.4869,-2.5025,-2.5346,-2.5472,-2.5581,-2.5676,-2.5679,-2.5693,-2.5703,-2.5703,-2.5703,-2.5703,-2.5701,-2.5696,-2.5707,-2.5693,-2.5684,1.0621,1.0669,1.0846,1.1149,1.0899,1.0601,0.0,0.0,0.0,0.0,0.0,0.0,0.0,0.0,0.0,0.0,0.0,0.0,0.0,0.0,0.0,0.0,0.0,0.0,0.0,0.0,0.0,0.0,0.0,0.0,0.0,0.0,1.2503,1.2553,1.2149,1.1981,1.2172,1.161,1.0951,1.0115,0.9925,0.9673,0.9413,0.9725,0.9569,0.9093,0.0,0.8362,0.8031,0.7272,0.6902,0.6745,0.6213,0.5832,0.5449,0.4842,0.4051,0.3078,0.202,0.153,0.1173,0.0163,-0.0586,-0.1195,-0.1856,-0.2887,-0.3964,-0.4676,-0.5891,-0.7177,-0.8141,-0.9163,-1.0114,-1.082,-1.1412,-1.2168,-1.3619,-1.4902,-1.6143,-1.7301,-1.8671,-1.9823,-2.0496,-2.0942,-2.1399,-2.201,-2.2573,-2.3,-2.3122,-2.3553,-2.3873,-2.4037,-2.4211,-2.4418,-2.4705,-2.4905,-2.5124,-2.537,-2.5531,-2.5624,-2.5698,-2.5705,-2.5694,-2.5702,-2.5703,-2.5703,-2.5703,-2.5702,-2.5697,-2.5707,-2.5696,-2.571,1.0708,1.0794,1.103,1.1676,0.0,0.0,0.0,0.0,0.0,0.0,0.0,0.0,0.0,0.0,0.0,0.0,0.0,0.0,0.0,0.0,0.0,0.0,0.0,0.0,0.0,0.0,0.0,0.0,0.0,0.0,0.0,0.0,1.2774,1.2881,1.2881,1.2881,1.2881,1.2278,1.1522,1.0626,1.06,1.0395,0.9969,1.0293,1.019,0.9769,0.9093,0.8837,0.8732,0.8031,0.7658,0.7503,0.702,0.6642,0.6322,0.5113,0.434,0.3721,0.2819,0.2366,0.2043,0.0753,-0.0054,-0.0701,-0.1374,-0.2233,-0.3101,-0.381,-0.5392,-0.7189,-0.843,-0.9275,-1.0082,-1.1345,-1.1743,-1.2191,-1.3335,-1.4878,-1.6261,-1.7056,-1.8469,-1.9808,-2.0698,-2.1007,-2.1354,-2.1953,-2.2582,-2.3014,-2.3093,-2.3653,-2.4077,-2.4154,-2.4352,-2.4572,-2.4771,-2.5061,-2.5274,-2.5437,-2.5535,-2.5621,-2.5696,-2.5701,-2.5691,-2.5703,-2.5703,-2.5683,-2.568,-2.5696,-2.5685,-2.5684,-2.5678,-2.5675,1.0843,1.0909,1.0975,1.1217,1.126,0.0,0.0,0.0,0.0,0.0,0.0,0.0,0.0,0.0,0.0,0.0,0.0,0.0,0.0,0.0,0.0,0.0,0.0,0.0,0.0,0.0,0.0,0.0,0.0,0.0,0.0,0.0,0.0,1.2881,1.2881,1.2881,1.2881,1.1949,1.1604,1.1968,1.141,1.1099,1.1049,1.06,1.0403,1.0293,0.9769,0.9458,0.9309,0.8732,0.8415,0.8262,0.7658,0.7069,0.6426,0.5164,0.4673,0.4505,0.3895,0.3226,0.2615,0.2168,0.156,0.0722,-0.0591,-0.1088,-0.1492,-0.2515,-0.4204,-0.6047,-0.7708,-0.9776,-1.1492,-1.1724,-1.3149,-1.4482,-1.472,-1.5595,-1.6802,-1.8197,-1.9081,-1.9974,-2.1134,-2.1615,-2.1982,-2.2395,-2.2764,-2.3109,-2.3323,-2.3684,-2.4025,-2.4351,-2.4622,-2.4924,-2.5311,-2.5473,-2.5571,-2.5589,-2.559,-2.5625,-2.5707,-2.569,-2.5709,-2.5698,-2.5703,-2.5677,-2.5609,-2.5668,-2.5678,-2.5602,-2.5618,-2.5565,1.0784,1.1211,1.1655,1.1976,1.2119,0.0,0.0,0.0,0.0,0.0,0.0,0.0,0.0,0.0,0.0,0.0,0.0,0.0,0.0,0.0,0.0,0.0,0.0,0.0,0.0,0.0,0.0,0.0,0.0,0.0,0.0,0.0,0.0,1.2881,1.2617,1.248,1.248,1.1849,1.1614,1.1777,1.1204,1.0784,1.0462,1.0845,1.0663,1.0029,1.0444,1.0174,0.951,0.9666,0.9465,0.8942,0.8408,0.7824,0.7235,0.6627,0.6195,0.5764,0.5105,0.4505,0.3843,0.2619,0.2009,0.1505,0.0,-0.0719,-0.1109,-0.1821,-0.3619,-0.5653,-0.6844,-0.8882,-1.0862,-1.1826,-1.2868,-1.3811,-1.4511,-1.6006,-1.7413,-1.7998,-1.9368,-2.0765,-2.1672,-2.1982,-2.2313,-2.2944,-2.3351,-2.3656,-2.3929,-2.4227,-2.4468,-2.4625,-2.4892,-2.5158,-2.543,-2.5595,-2.5668,-2.5654,-2.5668,-2.5675,-2.5698,-2.5696,-2.5701,-2.57,-2.5703,-2.5662,-2.5601,-2.563,-2.5613,-2.5609,-2.5607,-2.5554,1.0784,1.1309,1.1843,0.0,0.0,0.0,0.0,0.0,0.0,0.0,0.0,0.0,0.0,0.0,0.0,0.0,0.0,0.0,0.0,0.0,0.0,0.0,0.0,0.0,0.0,0.0,0.0,0.0,0.0,0.0,0.0,0.0,0.0,0.0,1.226,1.2021,1.2021,1.1572,1.1433,1.1561,1.0946,1.0591,1.0526,1.0994,1.0857,1.031,1.0804,1.068,1.0123,1.0344,1.0035,0.9406,0.9033,0.856,0.7984,0.7658,0.7283,0.6848,0.607,0.555,0.4933,0.3515,0.2762,0.2173,0.0993,0.0277,-0.0277,-0.1072,-0.2733,-0.4606,-0.573,-0.8165,-1.0685,-1.2015,-1.3057,-1.3964,-1.4823,-1.6411,-1.7831,-1.8254,-1.9507,-2.0889,-2.2102,-2.2234,-2.2459,-2.333,-2.3746,-2.4062,-2.4369,-2.4632,-2.4836,-2.4981,-2.5197,-2.5364,-2.5492,-2.5613,-2.5701,-2.567,-2.5699,-2.5703,-2.5703,-2.5703,-2.568,-2.5618,-2.5644,-2.5605,-2.551,-2.5544,-2.5557,-2.5549,-2.5538,-2.5499,1.0957,1.1174,1.1292,0.0,0.0,0.0,0.0,0.0,0.0,0.0,0.0,0.0,0.0,0.0,0.0,0.0,0.0,0.0,0.0,0.0,0.0,0.0,0.0,0.0,0.0,0.0,0.0,0.0,0.0,0.0,0.0,0.0,0.0,0.0,1.1814,1.1596,1.1596,1.1123,1.1104,1.149,1.0705,1.0763,1.1587,1.1051,1.1013,1.1358,1.0867,1.0842,1.115,1.0651,1.0087,0.9614,0.9636,0.9273,0.8718,0.7984,0.7717,0.757,0.6799,0.623,0.5716,0.5015,0.3952,0.2883,0.257,0.2065,0.1276,-0.0161,-0.1371,-0.2572,-0.4258,-0.784,-1.129,-1.2416,-1.4021,-1.5469,-1.5985,-1.697,-1.8079,-1.9278,-1.9529,-2.021,-2.2417,-2.2423,-2.2424,-2.3451,-2.389,-2.4228,-2.4564,-2.4832,-2.5103,-2.5369,-2.5511,-2.5562,-2.5518,-2.562,-2.5678,-2.5595,-2.5664,-2.5698,-2.5701,-2.5694,-2.5593,-2.5402,-2.5527,-2.5504,-2.5303,-2.5423,-2.5468,-2.5406,-2.5406,-2.536,1.1153,1.1806,0.0,0.0,0.0,0.0,0.0,0.0,0.0,0.0,0.0,0.0,0.0,0.0,0.0,0.0,0.0,0.0,0.0,0.0,0.0,0.0,0.0,0.0,0.0,0.0,0.0,0.0,0.0,0.0,0.0,0.0,0.0,0.0,1.1746,1.1541,1.1541,1.1381,1.1382,1.1497,1.1319,1.1166,1.1094,1.0957,1.0738,1.054,1.1343,1.1366,1.0768,1.0889,1.0846,1.0744,1.0736,1.0288,0.9657,0.9913,0.9048,0.782,0.8071,0.7286,0.6077,0.5499,0.4698,0.3836,0.2794,0.2403,0.1923,0.0052,-0.1395,-0.2776,-0.4414,-0.7841,-1.105,-1.1846,-1.3777,-1.5608,-1.62,-1.7875,-1.9341,-1.9484,-2.0192,-2.1288,-2.294,-2.2638,-2.2635,-2.3971,-2.4368,-2.4655,-2.5037,-2.5192,-2.5303,-2.5387,-2.5476,-2.5519,-2.5503,-2.5626,-2.5678,-2.5599,-2.5658,-2.5679,-2.5634,-2.5625,-2.554,-2.5337,-2.5372,-2.5307,-2.516,-2.5284,-2.5332,-2.5264,-2.536,-2.536,1.1196,0.0,0.0,0.0,0.0,0.0,0.0,0.0,0.0,0.0,0.0,0.0,0.0,0.0,0.0,0.0,0.0,0.0,0.0,0.0,0.0,0.0,0.0,0.0,0.0,0.0,0.0,0.0,0.0,0.0,0.0,0.0,0.0,1.2181,1.1733,1.1506,1.1545,1.1535,1.1627,1.1774,1.1726,1.1579,1.1404,1.1079,1.0854,1.0813,1.2182,1.2059,1.0997,1.1826,1.1801,1.12,1.146,1.1028,1.0286,1.0672,0.9939,0.8687,0.8613,0.797,0.7026,0.6021,0.5264,0.4656,0.405,0.3416,0.2581,0.1304,-0.0454,-0.2297,-0.3833,-0.7157,-1.0384,-1.1371,-1.344,-1.5411,-1.6292,-1.767,-1.8923,-1.9646,-2.0092,-2.0869,-2.2449,-2.2426,-2.2591,-2.3789,-2.4501,-2.5006,-2.528,-2.5379,-2.5432,-2.5432,-2.5492,-2.5522,-2.5466,-2.559,-2.5632,-2.5564,-2.5629,-2.5628,-2.5552,-2.5585,-2.5499,-2.5272,-2.529,-2.5207,-2.5012,-2.5126,-2.5149,-2.5084,-2.5141,-2.513,0.0,0.0,0.0,0.0,0.0,0.0,0.0,0.0,0.0,0.0,0.0,0.0,0.0,0.0,0.0,0.0,0.0,0.0,0.0,0.0,0.0,0.0,0.0,0.0,0.0,0.0,0.0,0.0,0.0,0.0,0.0,0.0,1.2623,1.2125,1.1774,1.1627,1.1641,1.1678,1.1909,1.2246,1.2029,1.2029,1.221,1.1431,1.1309,1.1804,1.3011,1.2796,1.1724,1.3084,1.2793,1.149,1.2012,1.1535,1.066,1.0694,1.036,0.9743,0.8741,0.8416,0.8219,0.6711,0.5831,0.539,0.5823,0.4816,0.3436,0.2993,0.1128,-0.1127,-0.2877,-0.6118,-0.9358,-1.1003,-1.3107,-1.5078,-1.6214,-1.6795,-1.77,-1.973,-1.9577,-1.9679,-2.1406,-2.1994,-2.2476,-2.3333,-2.4461,-2.5239,-2.5297,-2.5427,-2.5519,-2.5519,-2.5557,-2.5549,-2.5435,-2.5535,-2.5562,-2.5503,-2.5551,-2.5557,-2.5499,-2.5551,-2.5449,-2.5205,-2.5245,-2.5137,-2.4888,-2.4955,-2.4949,-2.4872,-2.4836,-2.4795,0.0,0.0,0.0,0.0,0.0,0.0,0.0,0.0,0.0,0.0,0.0,0.0,0.0,0.0,0.0,0.0,0.0,0.0,0.0,0.0,0.0,0.0,0.0,0.0,0.0,0.0,0.0,0.0,0.0,0.0,0.0,0.0,1.2411,1.2174,1.2186,1.2138,1.2054,1.2425,1.2673,0.0,1.2803,1.2697,1.2437,1.1872,1.1817,1.2221,1.2894,1.3227,1.3242,1.3984,1.3917,1.3302,1.3016,1.2069,1.096,1.1343,1.0526,0.9281,0.9689,0.9182,0.8327,0.8114,0.7148,0.6121,0.6484,0.5923,0.4866,0.3278,0.2394,0.1015,-0.306,-0.5823,-0.8293,-1.1277,-1.378,-1.5466,-1.5345,-1.743,-1.9341,-1.9408,-1.9829,-2.0521,-2.1596,-2.2006,-2.2773,-2.446,-2.5033,-2.5299,-2.5365,-2.5507,-2.557,-2.557,-2.5587,-2.5619,-2.5633,-2.5604,-2.5586,-2.5582,-2.5538,-2.5522,-2.5492,-2.541,-2.5284,-2.5113,-2.5037,-2.4902,-2.4734,-2.4804,-2.4799,-2.4737,-2.478,-2.4795,0.0,0.0,0.0,0.0,0.0,0.0,0.0,0.0,0.0,0.0,0.0,0.0,0.0,0.0,0.0,0.0,0.0,0.0,0.0,0.0,0.0,0.0,0.0,0.0,0.0,0.0,0.0,0.0,0.0,0.0,0.0,1.2346,1.2208,1.2162,1.2208,1.2363,1.2615,1.2873,1.299,1.299,1.3094,1.3025,1.2838,1.2365,1.2105,1.2112,1.2984,1.326,1.312,1.3865,1.3878,1.343,1.3141,1.2446,1.1643,1.1902,1.1163,1.0052,1.0245,0.9935,0.9253,0.8757,0.8037,0.7346,0.7314,0.6753,0.5933,0.4934,0.366,0.2002,-0.0565,-0.2682,-0.5138,-0.9069,-1.2542,-1.5185,-1.5934,-1.7461,-1.885,-1.9392,-1.9808,-2.0274,-2.089,-2.1821,-2.3133,-2.5009,-2.5352,-2.5426,-2.5483,-2.555,-2.559,-2.5602,-2.5607,-2.5608,-2.5646,-2.5651,-2.5629,-2.5593,-2.5534,-2.5495,-2.55,-2.5332,-2.5192,-2.5091,-2.491,-2.4731,-2.4594,-2.4405,-2.4353,-2.4405,-2.4316,-2.4352,0.0,0.0,0.0,0.0,0.0,0.0,0.0,0.0,0.0,0.0,0.0,0.0,0.0,0.0,0.0,0.0,0.0,0.0,0.0,0.0,0.0,0.0,0.0,0.0,0.0,0.0,0.0,0.0,0.0,0.0,1.2156,1.2046,1.1996,1.1984,1.2049,1.2304,1.2808,1.3031,1.3128,1.306,1.3216,1.3301,1.3267,1.2826,1.2389,1.21,1.324,1.3319,1.273,1.3603,1.3662,1.3166,1.3085,1.2754,1.2347,1.225,1.1794,1.1186,1.0789,1.0623,1.0391,0.9268,0.8718,0.8457,0.83,0.7623,0.6933,0.6948,0.5272,0.3271,0.2592,0.1164,-0.116,-0.5443,-0.9969,-1.4041,-1.6608,-1.7387,-1.8039,-1.9492,-1.972,-1.9825,-2.028,-2.1583,-2.3141,-2.4807,-2.5201,-2.5311,-2.5356,-2.5518,-2.5615,-2.5601,-2.5602,-2.5601,-2.5628,-2.5648,-2.5657,-2.5602,-2.553,-2.5495,-2.5514,-2.5308,-2.5157,-2.5088,-2.4818,-2.462,-2.4461,-2.4019,-2.3899,-2.404,-2.3756,-2.3774,0.0,0.0,0.0,0.0,0.0,0.0,0.0,0.0,0.0,0.0,0.0,0.0,0.0,0.0,0.0,0.0,0.0,0.0,0.0,0.0,0.0,0.0,0.0,0.0,0.0,0.0,0.0,0.0,0.0,0.0,1.2339,1.1921,1.1627,1.1492,1.1814,1.1882,1.1622,1.2711,1.3147,1.2909,1.3415,1.3648,1.3615,1.3254,1.306,1.2945,1.3606,1.3803,1.3766,1.4344,1.4321,1.3915,1.3452,1.2953,1.2444,1.207,1.1864,1.1715,1.1638,1.1292,1.0788,1.04,0.9371,0.8483,0.9369,0.8949,0.8127,0.8044,0.785,0.6987,0.4017,0.3216,0.2318,-0.108,-0.5924,-1.1044,-1.569,-1.779,-1.8955,-1.9588,-1.9836,-2.0257,-2.123,-2.1511,-2.1958,-2.3071,-2.3983,-2.4508,-2.4399,-2.516,-2.5654,-2.5607,-2.56,-2.5613,-2.5677,-2.5581,-2.5546,-2.5589,-2.549,-2.5462,-2.5577,-2.5283,-2.508,-2.5006,-2.4741,-2.451,-2.4321,-2.3959,-2.3816,-2.3837,-2.3437,-2.3414,0.0,0.0,0.0,0.0,0.0,0.0,0.0,0.0,0.0,0.0,0.0,0.0,0.0,0.0,0.0,0.0,0.0,0.0,0.0,0.0,0.0,0.0,0.0,0.0,0.0,0.0,0.0,0.0,0.0,1.2109,1.147,1.1236,1.1069,1.0999,1.1343,1.157,1.1729,1.2393,1.2864,1.3134,1.3355,1.368,1.4013,1.3894,1.3795,1.3741,1.3588,1.3632,1.3772,1.3848,1.3738,1.3549,1.3335,1.3071,1.2815,1.2651,1.2433,1.2185,1.1848,1.1595,1.1318,1.0654,0.9862,0.9303,0.985,0.9678,0.9288,0.9323,0.9362,0.8962,0.7178,0.7093,0.6394,0.2006,-0.0173,-0.3569,-1.2038,-1.4968,-1.6103,-1.6524,-1.6688,-1.7783,-2.1089,-1.9681,-1.9195,-2.2476,-2.3747,-2.4329,-2.4252,-2.5032,-2.5592,-2.5593,-2.5605,-2.5633,-2.5699,-2.5643,-2.5605,-2.5595,-2.5503,-2.5483,-2.5537,-2.4454,-2.4148,-2.4766,-2.4588,-2.4229,-2.3744,-2.3522,-2.3318,-2.3165,-2.2996,-2.3069,0.0,0.0,0.0,0.0,0.0,0.0,0.0,0.0,0.0,0.0,0.0,0.0,0.0,0.0,0.0,0.0,0.0,0.0,0.0,0.0,0.0,0.0,0.0,0.0,0.0,0.0,0.0,0.0,0.0,1.1807,1.0855,1.0611,1.0563,1.0698,1.0899,1.1215,1.1676,1.2046,1.2633,1.3424,1.3424,1.3799,1.4497,1.4351,1.4415,1.4606,1.3828,1.3628,1.3848,1.3594,1.3438,1.3323,1.3425,1.3388,1.3277,1.337,1.3103,1.2612,1.2155,1.1826,1.149,1.0658,1.0238,1.0092,1.0301,1.0441,1.0579,1.0801,1.1032,1.1105,1.0675,1.1146,1.0663,0.6454,0.5308,0.2377,-0.7877,-1.2042,-1.3553,-1.2794,-1.2657,-1.3834,-1.7594,-1.6532,-1.6443,-2.0224,-2.2426,-2.3634,-2.3634,-2.4369,-2.4993,-2.5233,-2.5279,-2.5371,-2.5654,-2.5654,-2.5633,-2.5569,-2.5528,-2.5474,-2.5457,-2.3817,-2.329,-2.4063,-2.3859,-2.3619,-2.3356,-2.2972,-2.2738,-2.2591,-2.2388,-2.2581,0.0,0.0,0.0,0.0,0.0,0.0,0.0,0.0,0.0,0.0,0.0,0.0,0.0,0.0,0.0,0.0,0.0,0.0,0.0,0.0,0.0,0.0,0.0,0.0,0.0,0.0,0.0,0.0,0.0,1.1479,1.1092,1.0352,1.0174,1.0672,1.0697,1.0748,1.0775,1.161,1.2591,1.378,1.378,1.4237,1.5061,1.4515,1.4749,1.5477,1.4624,1.4254,1.4268,1.4254,1.4026,1.3702,1.4092,1.4007,1.3708,1.4105,1.3648,1.287,1.2836,1.2095,1.1022,1.0505,1.0372,1.0532,1.0922,1.1479,1.2074,1.2542,1.3403,1.4169,1.4061,1.4681,1.502,1.3792,0.9632,0.3796,-0.4043,-1.0215,-1.3108,-0.9184,-0.8422,-0.85,-0.8757,-1.1842,-1.4381,-1.4705,-1.8792,-2.185,-2.1844,-2.2656,-2.3523,-2.4288,-2.4362,-2.4709,-2.552,-2.5543,-2.5508,-2.5499,-2.5499,-2.544,-2.5321,-2.3832,-2.2865,-2.2617,-2.2186,-2.2464,-2.3486,-2.246,-2.2096,-2.2286,-2.1549,-2.1849,0.0,0.0,0.0,0.0,0.0,0.0,0.0,0.0,0.0,0.0,0.0,0.0,0.0,0.0,0.0,0.0,0.0,0.0,0.0,0.0,0.0,0.0,0.0,0.0,0.0,0.0,0.0,0.0,0.0,0.0,1.0895,1.0566,1.051,1.0681,1.0873,1.1038,1.1215,1.1522,1.2316,1.3539,1.3539,1.4211,1.5404,1.5239,1.5389,1.5826,1.5521,1.5118,1.462,1.4397,1.4222,1.4092,1.4222,1.4292,1.4283,1.4305,1.4156,1.3847,1.2963,1.2622,1.2448,1.1656,1.1305,1.1421,1.2662,1.2787,1.2775,1.3857,1.4686,1.5252,1.5114,1.5532,1.5631,1.4292,0.9829,0.5637,0.474,-0.2596,-0.7977,-0.4363,-0.3906,-0.4877,-0.7258,-0.6909,-0.722,-0.9913,-1.4536,-1.7713,-1.7726,-1.8507,-2.0397,-2.3857,-2.1898,-2.1731,-2.524,-2.555,-2.5557,-2.5495,-2.551,-2.487,-2.3431,-2.1839,-2.073,-2.0159,-1.9061,-1.9577,-2.1697,-2.1843,-2.1857,-2.179,-2.1321,-2.1436,0.0,0.0,0.0,0.0,0.0,0.0,0.0,0.0,0.0,0.0,0.0,0.0,0.0,0.0,0.0,0.0,0.0,0.0,0.0,0.0,0.0,0.0,0.0,0.0,0.0,0.0,0.0,0.0,0.0,0.0,1.1182,1.0862,1.0729,1.0825,1.1085,1.1353,1.1564,1.1511,1.2121,1.3312,1.3432,1.4201,1.5551,1.5664,1.5854,1.6108,1.6024,1.5711,1.5179,1.4951,1.4735,1.4578,1.4797,1.4876,1.4833,1.4845,1.4811,1.4587,1.3628,1.3375,1.3403,1.2779,1.237,1.2413,1.3897,1.3994,1.387,1.5089,1.6103,1.6787,1.6597,1.6677,1.6494,1.5289,1.1613,0.8761,1.0134,0.294,-0.276,0.0838,0.1066,-0.0107,-0.242,-0.2199,-0.2557,-0.5225,-0.9714,-1.2813,-1.2904,-1.3295,-1.4954,-1.8651,-1.8148,-1.8311,-2.0175,-2.196,-2.2958,-2.2917,-2.2912,-2.2469,-2.1498,-1.9969,-1.8279,-1.6522,-1.5942,-1.6545,-1.831,-1.9929,-2.0735,-2.0798,-2.0469,-2.0777,0.0,0.0,0.0,0.0,0.0,0.0,0.0,0.0,0.0,0.0,0.0,0.0,0.0,0.0,0.0,0.0,0.0,0.0,0.0,0.0,0.0,0.0,0.0,0.0,0.0,0.0,0.0,0.0,1.2676,1.2362,1.204,1.1217,1.0863,1.1108,1.139,1.1593,1.1703,1.1564,1.2045,1.3099,1.3509,1.4323,1.5415,1.5841,1.6136,1.6313,1.6108,1.6024,1.6024,1.5996,1.5652,1.5181,1.5767,1.5739,1.5404,1.5839,1.561,1.5036,1.4845,1.4322,1.374,1.3725,1.3534,1.3458,1.4546,1.505,1.543,1.6287,1.7679,1.8854,1.8683,1.8353,1.7907,1.7341,1.5359,1.3162,1.1524,0.582,0.2183,0.6191,0.6307,0.5862,0.6198,0.2249,-0.0856,-0.0576,-0.4314,-0.7292,-0.7575,-0.7201,-0.7375,-0.8643,-1.3165,-1.4444,-1.0452,-1.4695,-1.7584,-1.7594,-1.7619,-1.8196,-1.9434,-1.8176,-1.5641,-1.1863,-1.2878,-1.3487,-1.3542,-1.6715,-1.8688,-1.9439,-1.8925,-1.9819,0.5631,0.0,0.0,0.0,0.0,0.0,0.827,0.8974,0.0,0.0,0.0,0.0,0.0,0.0,0.0,0.0,0.0,0.0,0.0,0.0,0.0,0.0,0.0,0.0,0.0,0.0,0.0,0.0,1.3066,1.2659,1.2306,1.225,1.2062,1.1689,1.2284,1.2395,1.2003,1.1891,1.2288,1.3121,1.375,1.4596,1.5564,1.6223,1.6617,1.6815,1.6763,1.6722,1.6696,1.6297,1.605,1.5922,1.6188,1.6297,1.6293,1.6297,1.6253,1.6056,1.4838,1.4689,1.4934,1.4562,1.4621,1.5089,1.6263,1.6559,1.6638,1.7377,1.8212,1.9017,1.9491,1.9424,1.8887,1.7522,1.6476,1.5179,1.2902,1.0396,0.846,0.7991,0.7335,0.6974,0.728,0.5815,0.4386,0.3886,0.0454,-0.2295,-0.2944,-0.2457,-0.3681,-0.8065,-0.6918,-0.7107,-1.0127,-1.1709,-1.2623,-1.2872,-1.3682,-1.3656,-1.2473,-1.2873,-1.1892,-0.9267,-0.9935,-1.0825,-1.1958,-1.5496,-1.7581,-1.8351,-1.8394,-1.8855,0.0,0.0,0.0,0.0,0.0,0.0,0.714,0.7861,0.8701,0.0,0.0,0.0,0.0,0.0,0.0,0.0,0.0,0.0,0.0,0.0,0.0,0.0,0.0,0.0,0.0,0.0,0.0,1.4244,1.3912,1.3469,1.2846,1.2978,1.2741,1.2091,1.2485,1.2565,1.2276,1.2185,1.2427,1.3031,1.3973,1.46,1.4973,1.5959,1.6458,1.6572,1.6572,1.6734,1.6993,1.6809,1.6602,1.6405,1.6591,1.6696,1.6773,1.6696,1.6799,1.6905,1.5959,1.5919,1.6225,1.6188,1.6105,1.624,1.7531,1.7663,1.7524,1.8198,1.8757,1.9286,1.9843,1.9871,1.9391,1.7965,1.6981,1.5879,1.4051,1.2815,1.1461,0.9428,0.8448,0.8016,0.8277,0.768,0.7016,0.6518,0.4435,0.268,0.2063,0.2452,0.152,-0.178,-0.2084,-0.2519,-0.3615,-0.6028,-0.7569,-0.7762,-0.8442,-0.8916,-0.9132,-0.9486,-0.8632,-0.6338,-0.7214,-0.8604,-1.0481,-1.3366,-1.5587,-1.7102,-1.7584,-1.8048,0.0,0.0,0.0,0.0,0.0,0.0,0.5963,0.6822,0.7596,0.0,0.0,0.0,0.0,0.0,0.0,0.0,0.0,0.0,0.0,0.0,0.0,0.0,0.0,0.0,0.0,1.4658,1.4887,1.4918,1.4944,1.4531,1.3581,1.3603,1.3351,1.2598,1.2681,1.2747,1.2796,1.2668,1.2768,1.3151,1.4229,1.454,1.4198,1.545,1.6045,1.6068,1.6142,1.654,1.7142,1.7415,1.7224,1.6773,1.7018,1.7052,1.7002,1.7068,1.7256,1.7505,1.7466,1.7369,1.7376,1.7918,1.7517,1.7084,1.8413,1.8455,1.8218,1.8837,1.9284,1.9643,1.9936,1.9898,1.9532,1.8502,1.7148,1.5837,1.495,1.3775,1.2378,1.0664,0.967,0.9093,0.9102,0.8472,0.79,0.7859,0.7496,0.708,0.6569,0.6815,0.6978,0.6704,0.1872,0.0561,0.5259,0.0725,-0.2404,-0.245,-0.2539,-0.3998,-0.7173,-0.6779,-0.5591,-0.363,-0.5194,-0.6988,-0.9034,-1.0946,-1.3128,-1.5528,-1.6363,-1.7044,0.0,0.0,0.0,0.0,0.0,0.0,0.5634,0.5788,0.6171,0.0,0.0,0.0,0.0,0.0,0.0,0.0,0.0,0.0,0.0,0.0,0.0,0.0,0.0,0.0,0.0,1.495,1.5404,1.5666,1.545,1.499,1.4318,1.4955,1.5032,1.4417,1.4976,1.5059,1.4598,1.4508,1.4529,1.4677,1.4913,1.5021,1.5069,1.5923,1.6387,1.6514,1.6994,1.7419,1.7811,1.7687,1.7472,1.7216,1.7455,1.7572,1.7549,1.7572,1.7595,1.7597,1.7182,1.7041,1.7089,1.7317,1.7542,1.788,1.8641,1.9011,1.9268,1.9612,1.992,2.0116,2.0025,1.986,1.9532,1.885,1.7876,1.6767,1.546,1.4497,1.3478,1.2069,1.1281,1.0692,0.9981,0.9597,0.911,0.8269,0.8572,0.8555,0.7412,0.8145,0.8333,0.7256,0.6101,0.5274,0.4929,0.394,0.3126,0.2757,0.2167,0.1372,0.0317,-0.0793,-0.2101,-0.358,-0.5538,-0.6865,-0.7465,-1.0035,-1.1871,-1.3117,-1.3632,-1.4473,0.0,0.0,0.0,0.4794,0.0,0.0,0.0,0.5026,0.5224,0.6318,0.0,0.0,0.0,0.0,0.0,0.0,0.0,0.0,0.0,0.0,0.0,0.0,0.0,0.0,0.0,1.4466,1.498,1.5775,1.6054,1.5943,1.548,1.5873,1.5788,1.5119,1.5468,1.5507,1.5209,1.5166,1.5166,1.5209,1.5271,1.5292,1.533,1.5825,1.6256,1.6627,1.7014,1.7495,1.8005,1.7971,1.7839,1.7669,1.7789,1.7856,1.7856,1.7856,1.7856,1.781,1.7628,1.7654,1.7832,1.8075,1.8415,1.8768,1.922,1.9576,1.9869,2.0051,2.0207,2.0279,2.0123,1.9903,1.9557,1.8945,1.8091,1.7136,1.6124,1.5199,1.4192,1.2936,1.2413,1.1791,1.0601,1.0118,0.9646,0.8933,0.8947,0.8773,0.8039,0.8315,0.8384,0.7862,0.7211,0.6578,0.5814,0.5113,0.4625,0.4346,0.4003,0.3724,0.3569,0.1832,-0.05,-0.3535,-0.4611,-0.5019,-0.4718,-0.7612,-0.9929,-1.176,-1.1987,-1.2657,0.0,0.0,0.0,0.0,0.0,0.4008,0.0,0.0,0.0,0.4865,0.0,0.0,0.0,0.0,0.0,0.0,0.0,0.0,0.0,0.0,0.0,0.0,0.0,0.0,0.0,1.3913,1.4505,1.5534,1.6209,1.6473,1.6199,1.6321,1.6138,1.5524,1.5641,1.5723,1.5723,1.5749,1.577,1.577,1.561,1.5563,1.5616,1.5688,1.605,1.6716,1.6993,1.7483,1.8113,1.8205,1.8184,1.8091,1.8048,1.8048,1.807,1.807,1.8091,1.81,1.8093,1.8327,1.868,1.885,1.9173,1.9545,1.9802,2.0049,2.0238,2.0305,2.0309,2.0277,2.0167,1.9913,1.9525,1.8893,1.8054,1.724,1.6661,1.5736,1.4707,1.373,1.3221,1.2507,1.1046,1.0467,1.0049,0.9716,0.9301,0.8923,0.8653,0.8405,0.8311,0.8373,0.7304,0.6635,0.6735,0.5496,0.4736,0.4736,0.4684,0.4695,0.4834,0.2625,0.0,-0.3084,-0.3461,-0.3335,-0.2826,-0.5307,-0.7929,-1.0545,-1.0655,-1.1197,0.0,0.0,0.0,0.0,0.3998,0.0,0.0,0.0,0.3511,0.3745,0.0,0.0,0.0,0.0,0.0,0.0,0.0,0.0,0.0,0.0,0.0,0.0,0.0,0.0,0.0,0.0,1.4748,1.4895,1.5266,1.5466,1.5425,1.6039,1.637,1.6271,1.6918,1.7249,1.7249,1.7378,1.7429,1.7395,1.6248,1.6055,1.6703,1.6023,1.6186,1.708,1.7624,1.809,1.8426,1.8385,1.8406,1.8426,1.8246,1.8246,1.8345,1.8345,1.8391,1.8366,1.7843,1.8164,1.8698,1.8337,1.8944,1.9877,2.0087,2.0212,2.0307,2.0372,2.0351,2.0237,2.0,1.9819,1.9505,1.8716,1.7962,1.7253,1.6706,1.5933,1.5225,1.48,1.3887,1.2751,1.1446,1.0981,1.0687,1.0341,1.0233,1.0029,0.9444,0.9273,0.9056,0.8601,0.786,0.7149,0.6504,0.5932,0.5664,0.5664,0.5289,0.5077,0.5211,0.2006,-0.0335,-0.1448,-0.2854,-0.386,-0.4446,-0.4963,-0.6308,-0.8456,-0.9103,-0.9982,0.0,0.0,0.0,0.0,0.0,0.0,0.0,0.0,0.3698,0.0,0.0,0.0,0.0,0.0,0.0,0.0,0.5944,0.0,0.0,0.0,0.0,0.0,0.0,0.0,0.0,0.0,0.0,0.0,1.4529,1.502,1.534,1.56,1.5956,1.6387,1.6775,1.7171,1.7606,1.7789,1.7878,1.7861,1.6955,1.6875,1.7531,1.6902,1.7032,1.776,1.8145,1.8385,1.8545,1.8526,1.8582,1.8658,1.8659,1.8603,1.8526,1.8696,1.8733,1.8662,1.8534,1.8739,1.9086,1.913,1.9574,2.0105,2.0227,2.0332,2.0414,2.0351,2.0348,2.0303,2.0028,1.9805,1.9535,1.9109,1.8233,1.7382,1.7116,1.6192,1.5285,1.4909,1.4192,1.3416,1.2567,1.1678,1.0992,1.0791,1.0361,0.9997,0.9722,0.9638,0.9516,0.9234,0.8627,0.8099,0.7735,0.6519,0.5778,0.5673,0.4904,0.4525,0.4653,0.3019,0.134,-0.0224,-0.1342,-0.2178,-0.2841,-0.407,-0.5058,-0.5846,-0.7042,-0.7841,0.7471,0.0,0.0,0.0,0.0,0.0,0.0,0.0,0.0,0.0,0.0,0.0,0.0,0.0,0.0,0.0,0.0,0.5922,0.0,0.0,0.0,0.0,0.0,0.0,0.0,0.0,0.0,1.287,1.349,1.4088,1.4592,1.4783,1.5288,1.6184,1.6509,1.7028,1.7755,1.7966,1.8053,1.8053,1.7443,1.7498,1.8121,1.7563,1.7671,1.8287,1.8445,1.8544,1.8604,1.8641,1.8715,1.8824,1.9019,1.8931,1.8771,1.9,1.889,1.8605,1.8544,1.8621,1.884,1.9409,1.9877,2.0248,2.0307,2.041,2.0459,2.0359,2.0317,2.0256,2.0031,1.9767,1.9504,1.9206,1.8406,1.7642,1.7402,1.647,1.5637,1.5286,1.4585,1.394,1.3576,1.2378,1.1394,1.1207,1.0619,1.0196,1.0089,0.99,0.9737,0.9757,0.9197,0.8783,0.8692,0.7267,0.6145,0.5673,0.4901,0.4522,0.4477,0.3913,0.2792,0.1005,0.0112,-0.067,-0.1342,-0.2843,-0.3566,-0.3677,-0.532,-0.6195,0.0,0.0,0.0,0.9761,0.0,0.0,0.0,0.0,0.3806,0.0,0.0,0.0,0.0,0.0,0.0,0.4951,0.0,0.0,0.0,0.0,0.0,0.0,0.0,0.0,0.0,0.0,0.0,1.1837,1.193,1.2195,1.2668,1.3351,1.4348,1.5678,1.641,1.7177,1.7983,1.8121,1.8187,1.8187,1.7582,1.7711,1.8467,1.7659,1.7729,1.8485,1.8485,1.8544,1.8604,1.8733,1.8788,1.8824,1.9153,1.92,1.9115,1.9243,1.8842,1.8107,1.7333,1.7205,1.7528,1.8515,1.9492,2.0319,2.0371,2.0408,2.0406,2.0401,2.0259,2.0079,1.9936,1.9687,1.9346,1.8681,1.8389,1.8072,1.7358,1.6869,1.6517,1.6297,1.5152,1.4192,1.4256,1.3098,1.2018,1.1641,1.1234,1.0943,1.0878,1.0118,0.9744,1.0134,0.949,0.8941,0.8776,0.8224,0.7261,0.5878,0.5773,0.5609,0.5281,0.4168,0.3219,0.2325,0.1002,-0.0112,-0.0894,-0.1229,-0.1677,-0.2238,-0.4326,-0.5697,0.0,0.0,1.1277,1.1695,0.0,0.0,0.0,0.0,0.0,0.0,0.0,0.0,0.0,0.0,0.4183,0.4708,0.5049,0.0,0.0,0.0,0.0,0.0,0.0,0.0,0.0,0.0,0.0,1.1142,1.0908,1.1338,1.2796,1.3493,1.4436,1.5721,1.6647,1.7446,1.8142,1.8307,1.8406,1.8406,1.8202,1.8239,1.8485,1.8222,1.8239,1.8505,1.8638,1.8752,1.8878,1.8999,1.9115,1.9212,1.9413,1.9471,1.9442,1.9485,1.9286,1.8906,1.8236,1.8127,1.8364,1.8785,1.9225,1.9677,2.0275,2.0445,2.0385,2.0357,2.021,2.0046,1.9839,1.9567,1.924,1.8753,1.8246,1.7808,1.7415,1.6952,1.6512,1.6219,1.5419,1.4679,1.4232,1.3387,1.265,1.2246,1.1689,1.1282,1.1105,1.1115,1.1008,1.0642,1.051,1.031,0.9909,0.8482,0.7202,0.6136,0.571,0.5445,0.5281,0.4944,0.4223,0.3226,0.2449,0.1394,0.0168,-0.0448,-0.1064,-0.1734,-0.2901,-0.3959,1.3381,1.3386,0.0,1.3627,1.2124,0.0,0.9263,0.0,0.0,0.0,0.0,0.0,0.0,0.0,0.0,0.4708,0.5088,0.557,0.0,0.6675,0.0,0.0,0.0,0.0,0.0,0.0,0.9421,1.0335,1.0372,1.1031,0.0,0.0,1.4443,1.5958,1.6905,1.7715,1.8351,1.8524,1.8563,1.8485,1.8524,1.8524,1.8485,1.8485,1.8485,1.8505,1.8714,1.8861,1.8984,1.913,1.9289,1.9413,1.9541,1.9614,1.9614,1.9655,1.9462,1.9045,1.8388,1.846,1.8889,1.8994,1.9308,1.9729,2.0289,2.0425,2.0344,2.0253,2.0127,1.9974,1.9688,1.9438,1.9198,1.8878,1.8375,1.7924,1.7715,1.7118,1.6591,1.6301,1.5579,1.4847,1.4342,1.3682,1.3082,1.2685,1.2222,1.1847,1.1579,1.181,1.1814,1.1299,1.1246,1.1047,1.0328,0.8901,0.7682,0.6838,0.6411,0.6095,0.5937,0.5664,0.5085,0.4213,0.3545,0.2605,0.1375,0.0835,0.0112,-0.0839,-0.1287,-0.2184]}]]